GFSWCAN_925_thetae_000.txt.gz
Theta_e
315 315 313 312 312 309 308 308 308 308 309 309 311 311 313 315 315 315 313 312 314 310 311 310 310 309 308 308 313 307 311 310 309 315 316 313 315 312 313 312 313 313 312 312 312 314 314 312 314 318 311 310 309 308
315 315 314 312 311 308 307 307 307 308 308 308 309 311 312 314 315 315 314 311 314 311 312 312 312 311 309 310 306 305 312 308 309 311 310 308 312 308 310 316 310 316 314 315 313 312 311 309 310 309 308 308 308 308
311 315 314 311 310 307 306 306 306 306 307 308 308 310 311 313 314 314 313 312 314 310 310 311 313 312 311 310 310 310 308 308 310 308 308 309 314 308 312 311 313 312 310 314 314 312 310 309 308 307 307 307 306 306
311 315 313 311 309 306 305 305 305 306 307 307 307 309 310 311 313 313 313 312 313 310 314 315 311 311 311 312 311 310 309 310 310 311 313 314 318 309 312 311 311 309 312 312 312 311 309 307 307 305 305 304 305 304
312 314 312 310 308 305 305 305 305 305 305 306 307 308 310 310 312 312 312 312 312 313 316 315 311 309 310 313 312 310 310 310 310 312 312 314 312 312 308 307 310 308 311 311 311 309 309 308 307 306 306 305 303 301
313 314 311 309 307 305 305 304 304 304 305 306 306 308 309 310 311 312 312 311 312 312 312 309 309 307 310 312 311 310 310 310 310 311 310 310 309 309 310 312 308 306 307 307 309 306 305 305 303 302 304 302 299 298
313 312 310 308 306 305 304 304 304 304 305 305 306 307 308 311 311 309 309 308 311 311 309 309 311 306 307 309 308 309 308 309 310 310 310 310 310 307 308 311 307 307 306 306 305 305 307 305 305 299 298 296 296 297
306 307 307 306 305 305 304 304 304 304 304 305 306 306 309 310 309 307 307 309 311 310 308 307 309 308 306 310 310 308 310 309 309 309 309 310 309 309 310 307 306 306 306 303 303 302 303 300 296 296 296 295 295 295
297 303 306 306 305 304 304 304 304 304 304 305 306 307 308 307 306 305 308 309 308 308 308 308 309 311 305 308 307 307 307 311 308 311 310 309 310 311 308 306 306 305 305 304 299 295 291 296 295 295 296 296 295 295
294 297 300 304 305 305 304 304 303 303 304 305 307 305 304 303 305 306 305 305 302 304 304 308 307 309 306 308 307 306 305 307 309 308 306 309 309 305 304 304 304 303 302 296 297 294 289 289 295 294 296 295 293 294
294 294 297 299 303 305 304 304 303 303 305 306 302 301 301 303 302 301 304 304 305 305 306 306 306 307 303 307 308 304 304 304 305 300 307 305 302 301 299 299 295 292 294 295 295 293 294 296 295 295 295 293 293 292
294 295 295 298 300 302 304 303 303 305 305 304 301 301 301 299 300 301 303 301 304 302 303 305 304 304 303 301 304 303 304 303 304 301 304 303 301 298 298 295 294 293 294 295 295 294 293 293 294 293 293 292 291 287
293 294 295 296 298 299 302 304 305 305 302 301 300 299 301 300 301 301 300 301 301 299 301 301 303 302 301 300 302 303 304 304 300 303 300 299 297 296 293 294 294 293 294 294 292 291 291 292 294 293 290 289 287 285
293 294 295 296 296 297 299 301 304 302 303 301 301 302 300 299 298 295 294 294 295 297 301 301 301 302 301 302 302 304 302 301 302 302 299 297 294 296 295 293 292 293 291 291 290 289 287 287 288 289 288 287 285 283
294 294 294 295 296 296 297 299 302 302 301 301 299 300 298 290 292 291 293 294 294 296 299 298 297 299 300 300 300 301 301 302 300 300 298 292 287 287 293 291 290 290 290 290 290 289 287 286 284 284 284 284 284 284
294 295 294 295 296 296 297 298 299 299 297 299 296 294 296 296 296 288 284 296 293 295 293 292 298 296 299 297 300 299 300 300 299 297 291 285 292 291 291 291 289 289 289 289 290 290 289 286 284 284 284 284 284 284
293 294 294 295 295 295 297 295 295 294 296 298 296 294 289 291 295 290 293 294 294 291 291 297 291 292 296 297 297 296 299 299 295 289 286 288 291 292 292 291 289 288 288 289 289 290 289 288 286 283 281 283 284 284
294 293 294 294 294 295 294 294 293 296 299 298 293 293 297 296 296 294 291 292 294 292 292 293 290 292 292 294 293 295 296 291 286 287 287 289 290 290 289 289 290 289 288 288 289 289 288 285 282 282 283 283 283 283
293 293 294 294 295 295 293 293 293 297 297 297 294 291 294 296 294 292 291 291 290 290 295 295 296 292 293 292 294 293 283 285 293 293 291 291 292 291 291 290 288 286 286 287 287 286 286 285 284 284 283 283 281 281
293 293 293 293 295 294 295 295 293 296 296 296 293 294 293 293 292 291 293 292 287 288 295 294 294 293 294 294 290 287 287 289 291 292 292 290 291 288 285 285 286 287 286 285 285 285 284 283 283 282 282 281 280 279
293 293 293 292 292 293 293 295 295 295 294 294 293 292 293 293 294 292 292 288 289 297 296 292 293 293 288 286 291 290 290 289 289 289 291 287 288 285 284 285 286 285 283 283 283 282 283 281 281 280 280 279 278 278
292 292 291 291 292 292 293 292 294 291 291 292 293 292 292 292 293 294 294 296 296 291 291 292 289 288 288 290 290 290 291 290 289 287 289 288 284 279 279 283 283 276 282 282 282 281 280 279 279 279 278 277 277 276
291 292 291 291 292 292 292 291 292 290 291 292 291 292 293 292 291 290 294 293 291 290 288 287 286 287 287 286 287 286 286 286 284 283 284 284 284 284 285 284 284 280 279 280 281 279 279 279 279 277 276 275 275 274
291 287 288 289 291 291 288 291 292 291 289 290 292 290 290 290 289 291 293 287 286 286 286 284 281 281 280 279 282 283 283 283 283 283 284 282 277 282 282 281 281 282 281 279 278 277 277 276 276 275 274 274 274 274
288 287 282 286 287 288 289 289 290 290 290 287 284 286 286 286 287 287 285 284 282 281 279 278 278 276 275 277 281 280 282 283 281 279 282 283 280 278 277 277 277 277 278 277 276 276 275 274 274 274 273 273 274 274
290 288 288 279 286 282 287 288 289 289 284 281 281 283 280 284 286 287 283 278 275 275 274 273 273 274 280 278 279 280 279 280 282 280 279 280 280 278 276 275 274 275 276 276 275 274 274 274 273 273 273 273 273 272
283 284 287 286 285 283 283 283 285 282 280 282 284 283 281 284 285 283 275 273 274 274 274 274 274 273 272 275 277 277 277 278 280 278 277 277 279 279 278 275 273 275 275 275 274 274 274 273 273 273 273 272 272 271
285 284 284 285 282 278 279 279 277 280 281 281 282 280 283 284 284 274 271 274 273 274 274 274 274 275 275 275 275 275 274 275 275 275 275 275 275 276 276 276 275 275 274 274 274 273 273 273 273 272 272 271 271 271
286 282 282 287 279 278 277 280 281 281 283 282 281 280 279 275 267 268 273 273 273 274 274 273 273 274 274 274 274 274 274 275 276 276 275 275 274 273 274 274 274 273 273 273 273 273 273 274 272 272 271 270 270 270
285 277 279 275 280 284 281 278 275 271 276 276 276 273 272 269 270 270 271 272 273 272 274 274 273 273 273 272 272 273 274 275 276 276 275 274 274 274 273 273 273 272 272 271 271 271 271 271 271 271 270 270 269 269
278 276 276 277 278 273 273 275 276 278 274 272 273 273 271 267 270 269 270 270 271 272 273 273 274 274 274 273 273 272 272 273 274 275 275 274 274 274 273 273 272 272 271 271 270 270 270 270 269 269 269 268 268 268
283 286 279 277 274 271 272 274 275 275 274 274 273 271 273 274 275 268 269 270 272 272 274 273 272 271 272 273 273 274 274 273 273 274 274 274 274 274 273 272 272 271 271 270 270 269 269 269 268 268 267 267 267 267
279 278 276 276 275 276 277 279 279 275 271 270 272 274 274 277 276 268 268 269 270 270 270 270 271 271 271 272 272 272 273 273 274 274 275 276 275 274 272 272 272 271 270 270 270 269 269 268 268 267 267 267 267 267

GFSWCAN_925_thetae_003.txt.gz
Theta_e
300 302 304 314 315 313 313 310 309 309 310 310 311 312 313 313 314 315 312 312 312 308 309 310 310 308 307 307 312 306 310 309 308 315 316 315 315 312 313 311 311 312 311 313 312 316 318 311 313 316 310 308 307 307
300 302 304 310 315 313 312 310 309 309 309 309 310 311 311 313 315 315 313 311 313 309 310 311 311 309 308 309 304 303 311 307 308 310 309 308 312 308 311 317 309 317 313 314 312 312 310 309 309 307 306 307 307 308
299 301 303 306 315 313 312 309 308 308 308 309 309 309 311 313 314 315 313 312 313 309 310 309 311 311 311 310 309 310 306 306 309 306 306 308 313 307 312 311 312 310 308 313 313 311 310 308 307 307 307 308 307 306
298 299 302 307 315 312 311 309 307 307 308 308 308 309 310 312 314 314 313 312 312 309 314 313 311 310 311 311 309 309 307 309 308 308 310 312 316 307 310 310 310 309 310 311 311 310 308 307 307 307 306 305 305 303
298 298 304 308 314 312 310 308 307 307 307 307 308 309 309 311 312 313 312 311 312 311 316 313 309 308 311 311 310 310 308 308 308 311 312 314 313 312 308 307 311 307 310 311 312 308 307 307 306 305 305 305 304 302
296 300 306 311 314 311 309 307 306 306 306 306 307 309 309 311 312 312 310 311 312 312 312 312 307 306 309 310 309 308 309 310 308 311 310 310 309 309 308 309 306 305 306 306 308 305 304 304 302 302 303 299 297 296
295 302 307 313 313 310 308 307 306 306 306 306 307 308 310 311 311 308 307 308 311 311 310 310 310 307 306 308 308 309 308 309 310 309 310 310 309 307 307 309 306 305 305 306 304 303 306 304 302 296 295 296 297 297
294 296 308 313 311 309 307 306 306 306 306 307 307 307 311 310 308 307 308 310 310 309 306 306 309 307 306 309 310 307 310 309 309 309 308 310 308 307 308 305 305 305 303 302 301 299 299 296 295 296 296 295 295 296
294 294 299 308 309 307 306 306 305 306 306 306 307 309 308 307 306 307 309 309 308 308 307 307 309 310 305 307 307 307 307 311 308 311 309 307 308 308 306 305 304 304 305 303 295 293 293 295 295 293 292 292 295 295
294 294 296 303 307 307 306 306 305 306 306 307 308 305 304 304 307 307 305 306 302 303 303 305 305 308 307 307 306 306 304 308 309 309 306 309 308 305 302 302 302 301 300 296 296 297 290 288 288 293 293 293 295 295
294 294 295 298 304 306 306 305 305 305 307 307 302 301 301 303 303 301 303 305 304 301 305 304 304 306 303 307 307 303 304 303 305 305 308 305 299 297 297 297 294 292 295 295 295 292 293 295 294 293 293 293 293 292
294 293 294 297 299 306 305 305 305 306 307 304 301 302 302 299 299 299 304 301 303 302 301 305 304 304 302 301 304 302 304 302 303 301 304 301 296 295 296 296 294 293 294 295 295 295 294 293 293 292 292 292 293 293
294 293 294 295 296 299 305 305 305 305 303 303 301 300 302 300 302 301 299 301 301 300 302 302 304 302 301 301 302 302 303 303 299 302 302 295 292 293 291 293 293 292 294 294 294 293 292 291 292 293 292 293 292 288
294 294 294 295 296 297 299 304 304 303 302 300 300 302 303 301 297 296 294 295 295 300 302 303 302 302 302 302 303 304 302 301 299 296 295 291 292 295 293 292 291 292 291 291 291 290 289 288 288 290 291 291 288 285
294 295 294 294 295 296 297 299 300 302 298 299 301 304 301 291 289 284 292 297 296 301 300 299 297 299 298 301 300 302 302 302 297 295 292 289 288 289 293 292 291 291 289 289 289 289 289 288 286 285 286 286 286 285
294 294 294 294 295 295 295 296 295 297 294 296 296 295 295 292 295 293 292 298 295 298 294 295 297 298 300 300 302 302 300 296 295 290 290 284 291 291 292 292 291 289 288 288 289 289 290 289 287 286 286 284 284 283
294 293 294 295 295 294 295 293 294 294 296 298 298 294 289 288 294 295 295 299 295 301 295 296 293 295 296 297 296 296 297 294 291 287 284 288 290 290 290 291 291 291 289 288 288 289 289 289 288 285 281 284 283 283
294 293 294 294 294 293 292 292 293 296 298 298 296 293 295 294 295 294 292 295 297 295 293 292 290 296 294 295 293 294 290 285 283 286 287 289 289 290 288 290 292 292 289 289 288 288 287 286 283 283 284 283 283 282
293 293 293 294 294 293 293 293 292 298 297 296 293 291 293 294 291 291 293 292 292 291 293 294 290 291 293 291 290 284 282 285 291 291 290 290 291 291 291 291 290 288 286 286 286 286 286 286 285 284 283 282 282 281
292 293 293 292 292 292 295 295 291 296 296 296 294 294 293 293 291 294 293 292 292 292 290 290 293 294 294 292 287 286 286 288 290 291 291 289 290 289 287 286 285 287 285 285 285 285 284 283 283 282 282 281 280 279
292 293 293 292 292 293 293 295 295 295 294 294 292 292 293 291 292 294 295 290 290 285 291 292 293 291 286 286 290 290 289 288 289 289 290 285 286 285 283 283 284 285 284 283 282 283 284 282 281 280 281 279 278 278
291 292 292 291 292 292 293 292 294 291 292 293 293 292 293 293 293 293 294 295 291 291 292 292 290 290 289 289 288 289 289 289 288 286 288 287 284 279 278 282 282 275 281 282 282 281 279 279 279 278 278 277 276 275
291 291 291 291 292 292 291 291 291 290 293 292 292 293 292 292 291 292 294 292 291 289 288 288 285 285 285 286 285 284 284 284 283 282 283 283 283 283 283 283 283 279 275 279 280 279 278 279 278 276 275 275 275 275
290 286 288 290 290 291 290 291 291 290 290 292 292 290 289 288 290 291 291 287 286 286 284 282 280 280 279 279 281 281 281 283 282 282 282 282 276 280 280 280 280 281 281 278 278 277 277 276 275 274 274 274 274 274
284 282 282 285 284 286 287 287 288 289 290 288 289 288 287 287 290 289 286 286 284 282 279 278 279 278 277 278 280 280 280 281 279 278 281 283 280 277 276 276 276 277 278 277 275 275 274 274 274 273 273 273 274 274
286 285 279 277 281 283 287 285 288 288 288 287 286 284 283 287 287 287 284 280 278 276 273 272 273 274 279 277 279 278 277 278 280 279 278 279 280 276 272 273 272 275 276 277 276 274 274 273 273 273 273 273 272 272
279 282 286 286 283 283 282 284 286 286 285 286 283 283 284 287 285 284 277 276 277 274 274 274 274 273 273 274 277 276 276 278 279 277 276 277 278 279 279 275 274 275 275 275 274 274 273 273 273 273 272 272 271 270
283 282 283 287 281 277 279 278 278 281 281 282 283 281 284 285 285 276 273 273 273 273 273 274 274 275 275 275 275 275 275 275 275 275 275 275 275 275 276 276 275 275 274 274 274 273 273 273 273 272 272 271 270 270
282 282 282 287 281 277 277 279 280 280 282 281 281 280 279 274 267 267 272 272 273 273 273 272 272 273 273 273 274 274 274 275 275 273 274 273 273 273 275 275 274 274 273 273 273 273 274 273 272 272 270 270 270 270
285 280 280 278 280 283 279 276 274 271 275 275 276 272 271 268 269 270 271 272 273 273 273 274 273 273 272 272 272 273 274 275 276 276 274 274 274 273 273 273 273 272 272 272 271 271 271 271 271 271 270 270 269 269
279 275 275 276 276 272 270 274 274 276 271 269 270 272 271 266 269 269 270 270 271 272 272 272 273 273 273 272 272 272 272 274 274 275 275 275 274 274 273 272 272 272 271 271 270 270 270 270 270 269 269 268 268 267
285 287 283 278 275 270 271 272 272 272 270 271 270 269 270 273 273 269 268 270 271 271 273 273 272 272 273 273 274 274 274 273 273 274 274 274 274 273 273 272 272 271 271 270 270 270 269 269 268 268 267 267 267 267
279 279 277 275 272 272 273 272 273 271 270 269 270 272 271 274 274 267 268 269 271 271 271 271 271 272 272 272 272 272 273 274 274 275 275 275 275 273 272 272 271 271 270 270 269 269 269 268 268 267 267 267 266 266

GFSWCAN_925_thetae_006.txt.gz
Theta_e
298 298 300 302 303 305 312 314 312 311 310 310 310 311 313 313 313 313 312 311 310 306 308 309 308 307 306 306 308 304 309 308 309 315 316 314 314 312 313 312 310 311 311 312 313 316 318 310 312 315 310 307 307 306
297 298 300 300 301 304 310 314 312 311 309 310 310 310 311 312 314 314 312 311 311 306 309 310 310 308 307 307 303 303 309 307 308 310 310 309 312 308 311 317 309 315 311 312 312 313 310 308 310 307 306 306 306 307
297 297 299 299 300 302 305 314 312 310 309 309 309 309 310 312 314 314 313 312 311 308 308 308 311 311 310 310 308 310 306 305 308 305 306 308 313 308 314 312 311 310 308 313 312 311 310 308 306 306 306 307 306 305
297 297 298 298 301 302 304 313 311 309 308 308 308 309 310 312 314 314 313 312 311 308 313 312 310 308 310 310 309 309 307 307 306 306 310 312 314 306 309 310 310 308 309 310 310 309 309 308 307 306 305 304 304 303
296 296 297 298 301 303 306 313 310 309 308 308 308 308 309 311 313 313 313 312 312 312 316 313 308 308 309 309 309 309 307 307 307 309 310 312 310 309 306 307 311 306 309 311 311 308 308 307 305 304 304 303 300 302
296 295 296 298 303 305 309 312 309 308 307 307 307 308 309 312 312 312 313 312 312 311 311 314 307 307 308 310 308 307 307 307 306 308 308 308 307 307 305 309 306 304 305 305 308 304 303 302 300 301 300 298 297 296
296 295 296 297 305 307 311 311 308 307 307 307 307 308 309 311 311 307 307 309 311 310 310 310 310 307 306 308 308 309 308 308 307 306 307 309 309 307 306 309 306 304 304 303 302 302 304 303 302 296 296 296 297 296
296 295 295 296 303 310 311 309 307 306 306 307 308 309 311 310 308 307 309 310 309 307 306 307 308 309 306 310 311 307 310 310 309 308 309 309 308 308 308 304 304 302 301 300 299 297 299 295 294 296 295 293 294 294
295 295 294 295 300 310 311 308 306 306 306 307 309 310 308 307 305 308 308 309 308 307 306 306 308 309 306 308 307 307 307 311 308 311 310 308 309 305 305 304 303 302 303 300 294 295 292 293 295 291 293 290 295 293
295 294 294 294 298 307 309 307 306 306 307 308 308 304 304 304 308 308 307 306 301 303 300 305 304 309 306 307 306 307 305 308 310 310 305 306 305 304 302 302 301 300 299 295 297 297 290 290 287 293 294 293 292 293
294 294 293 294 296 303 307 306 306 307 308 307 302 302 302 304 303 299 302 301 303 302 304 301 302 306 303 307 307 303 300 300 301 303 308 302 301 297 296 296 295 294 296 296 295 292 292 294 293 293 293 293 292 292
294 294 293 294 294 299 307 306 307 307 307 304 302 302 301 300 299 300 305 298 302 299 299 305 303 301 302 301 303 302 298 296 305 301 306 299 297 294 295 295 294 294 295 294 294 293 292 292 292 291 291 291 292 293
294 294 294 294 294 296 306 306 307 306 304 304 301 301 304 300 302 302 304 302 293 295 302 302 304 302 300 299 299 299 302 299 300 303 304 297 291 290 291 292 291 291 292 292 293 293 292 292 291 292 291 292 292 291
294 294 294 293 294 294 304 306 304 303 301 299 301 303 304 302 302 295 293 293 294 299 303 303 302 302 302 302 302 303 301 301 302 302 297 290 291 294 292 291 291 291 292 292 292 291 290 289 288 289 290 291 290 287
294 294 293 293 294 292 293 301 303 301 298 299 301 304 301 290 289 284 283 296 298 302 301 299 297 300 299 301 299 298 301 302 301 295 291 288 289 291 292 291 290 289 289 289 288 288 288 289 287 287 288 287 286 285
294 294 293 294 294 294 293 297 298 297 293 297 296 296 294 290 294 294 296 299 296 301 296 296 297 296 299 299 301 298 297 298 294 289 287 288 290 291 292 291 290 289 288 288 288 288 288 288 287 288 287 286 285 284
293 293 294 294 293 293 293 292 293 294 297 298 297 293 288 285 291 295 298 299 296 301 296 296 299 299 296 299 297 294 294 291 286 285 284 288 292 290 290 291 291 291 290 289 288 288 288 288 288 286 284 286 284 283
293 293 294 293 293 293 292 292 293 296 298 297 296 295 294 293 295 296 295 296 298 295 294 295 293 297 297 296 294 291 286 281 281 286 286 288 288 288 288 291 292 292 291 290 288 287 286 286 284 284 284 283 282 281
293 293 293 293 293 292 293 293 292 297 297 294 293 293 292 293 292 293 294 292 293 292 293 293 294 294 293 289 287 282 280 283 292 291 290 289 291 291 291 291 290 288 287 286 285 285 285 285 285 284 283 282 281 280
292 293 293 292 292 292 295 295 292 296 296 295 295 294 294 294 293 295 294 293 294 294 294 293 294 294 294 291 285 285 285 289 291 292 291 289 289 289 286 286 286 287 285 283 285 284 284 282 282 282 281 281 280 278
292 292 292 292 292 291 293 294 295 294 294 293 293 293 294 293 296 298 295 292 296 295 294 293 293 291 285 286 289 289 288 289 290 290 290 284 285 284 282 283 283 284 283 282 282 282 283 281 280 280 279 278 278 277
291 291 291 291 292 292 291 291 293 292 292 292 293 292 294 295 295 295 294 296 295 294 293 293 289 287 286 287 286 287 287 287 286 286 287 287 284 279 278 281 282 273 279 280 281 279 277 278 278 278 278 276 276 276
290 290 290 290 291 290 291 291 291 291 294 293 293 293 292 292 292 292 294 293 291 288 288 287 284 284 284 283 283 283 283 284 282 282 283 282 281 281 281 281 282 278 275 278 280 278 278 278 277 276 275 275 275 275
289 284 285 286 289 290 290 290 291 290 291 292 292 291 289 290 291 293 294 288 287 286 284 283 283 282 281 280 281 280 280 282 281 281 281 280 277 278 279 279 279 280 280 278 278 277 276 275 275 274 274 274 274 274
281 282 280 280 281 288 289 289 289 288 289 289 289 289 287 287 291 289 289 286 284 282 279 278 280 278 277 278 279 278 279 281 279 281 280 282 278 277 276 276 276 277 278 277 275 274 274 274 274 273 273 273 274 273
281 282 279 276 279 282 286 288 289 288 288 288 286 285 285 289 290 290 285 281 279 276 273 272 275 276 278 278 279 278 277 278 280 279 277 279 279 276 273 275 274 275 276 277 275 274 273 273 273 273 273 272 272 271
279 283 285 285 283 283 283 284 286 287 287 288 286 286 286 288 287 283 277 276 276 273 274 274 275 274 274 276 276 276 276 278 279 277 276 277 278 278 278 276 274 275 275 275 275 274 274 273 273 273 272 272 271 270
282 282 281 284 280 276 279 278 279 282 283 283 284 284 287 287 286 276 274 272 273 273 273 274 274 275 275 275 275 275 275 275 275 275 275 275 275 276 276 276 275 275 274 274 274 273 273 273 273 272 271 271 270 270
281 281 281 286 280 276 275 278 279 279 282 282 282 281 279 275 269 270 271 272 272 273 272 272 272 273 273 273 274 274 274 275 275 272 273 271 271 273 275 275 274 274 274 274 273 273 274 273 272 271 270 270 269 270
284 276 279 281 282 283 278 275 273 270 274 274 274 272 272 269 268 269 270 271 272 272 273 273 272 273 271 271 271 273 275 276 276 275 272 271 273 273 273 273 273 272 272 272 272 271 271 271 271 270 270 269 269 269
277 275 274 275 276 270 269 274 273 275 269 267 266 270 269 264 268 268 269 269 270 271 271 270 271 272 272 272 272 270 270 274 276 276 276 276 274 273 273 272 272 272 271 271 271 271 270 270 269 269 268 268 268 267
284 283 282 280 276 271 273 273 269 268 268 269 267 266 268 269 270 266 268 269 270 271 273 272 272 272 273 274 274 274 275 274 274 274 274 274 273 273 272 272 272 271 271 271 270 270 269 269 269 268 267 267 267 267
277 276 275 277 274 274 274 274 273 270 268 268 269 271 269 274 274 266 268 268 270 271 272 272 272 272 273 273 273 273 274 274 275 275 274 274 273 273 272 272 271 271 270 270 269 269 269 268 268 267 267 266 266 266

GFSWCAN_925_thetae_009.txt.gz
Theta_e
295 297 298 299 299 300 300 302 304 312 312 311 310 310 311 312 313 312 311 310 308 307 308 309 307 305 305 304 308 304 309 308 311 318 319 315 316 312 313 310 310 313 313 313 313 315 316 310 312 315 311 307 307 306
294 297 298 298 299 300 300 302 303 311 312 311 310 310 311 312 313 313 311 309 310 306 308 308 308 307 306 306 302 302 308 306 308 311 309 309 311 308 312 317 309 314 310 312 312 313 309 308 310 306 306 306 306 306
293 296 298 298 298 299 300 301 303 307 312 310 309 310 310 311 312 313 313 311 309 306 308 307 310 310 310 309 307 310 306 305 307 305 306 308 313 308 313 313 311 309 308 312 311 311 309 307 306 305 305 306 304 304
293 296 297 297 298 299 300 301 303 305 311 310 309 310 310 310 312 313 311 312 311 306 311 312 309 308 310 308 308 308 306 306 304 305 308 310 312 305 309 309 310 308 309 310 309 309 308 308 306 304 303 302 302 301
293 296 296 297 297 298 300 303 303 307 311 309 309 309 309 310 312 312 312 312 312 310 316 313 307 308 308 308 308 308 306 306 306 309 309 312 307 308 306 307 309 306 308 311 312 308 308 307 304 303 303 302 301 301
293 295 296 297 296 297 299 304 305 310 310 309 308 308 309 310 312 311 313 312 312 311 313 314 307 307 308 309 307 306 306 305 304 307 306 306 306 306 306 311 307 304 304 305 307 303 302 301 300 300 299 298 297 296
293 295 296 296 296 297 299 305 307 311 309 308 308 308 309 311 311 308 310 308 311 310 310 310 311 307 306 308 308 308 308 306 305 305 306 306 307 304 305 310 306 303 304 303 301 302 303 302 302 297 296 297 298 296
293 295 296 296 296 296 299 306 310 310 308 307 307 308 309 311 309 308 310 309 309 307 307 307 309 310 306 310 312 307 310 309 309 309 307 308 306 305 308 304 303 302 300 299 299 298 301 295 294 295 294 293 293 293
293 295 296 296 295 296 298 309 310 308 307 307 308 309 308 308 306 308 308 308 307 307 307 304 309 313 306 308 307 307 307 312 308 311 310 308 306 305 306 302 301 299 301 298 295 293 294 295 294 293 293 291 295 294
293 295 295 295 295 295 298 309 308 307 307 309 308 305 305 305 309 309 307 306 303 303 300 305 303 309 307 307 306 307 306 309 310 310 306 307 303 302 301 301 301 299 297 294 296 294 292 289 288 291 292 293 293 293
293 295 295 295 295 294 296 308 307 306 308 307 303 302 302 304 302 299 300 302 301 303 303 303 303 307 303 308 307 303 304 302 307 303 309 303 302 301 297 298 295 296 297 297 298 295 293 292 291 292 292 291 291 292
293 294 295 295 294 294 295 302 306 308 308 305 303 303 301 300 299 301 297 296 303 303 302 305 300 301 301 301 303 301 297 293 298 300 307 301 298 295 295 296 296 295 295 293 292 292 291 291 291 291 291 291 292 293
293 294 295 295 294 294 295 305 307 307 304 305 302 301 304 301 302 303 304 303 293 294 302 302 303 301 298 297 295 295 293 296 298 304 302 299 294 292 292 292 293 294 293 291 291 291 291 290 291 291 290 291 292 291
293 294 294 294 294 293 295 306 306 304 302 300 301 304 305 303 302 296 296 295 294 298 303 302 301 301 298 296 298 302 297 299 300 298 297 293 291 294 291 290 292 291 291 291 290 289 289 289 288 289 290 290 289 288
293 294 293 294 294 293 292 300 304 301 298 299 302 305 302 292 289 281 285 296 298 302 300 298 296 299 299 302 300 299 301 301 300 295 291 286 285 289 290 289 289 289 289 289 288 288 288 289 287 288 288 287 286 286
293 293 294 294 294 293 292 296 299 297 293 297 297 296 294 291 293 294 294 300 297 300 294 293 292 293 299 297 301 294 299 296 295 290 287 287 291 291 290 289 288 288 287 287 288 288 288 288 287 287 287 287 285 284
293 293 294 294 293 293 292 293 294 294 297 299 296 294 289 286 293 295 298 301 300 300 293 292 296 295 296 298 298 290 293 291 287 286 287 293 294 291 290 290 289 289 289 288 288 287 287 287 287 286 285 284 283 282
293 293 293 293 293 293 292 292 293 296 299 295 297 293 295 294 296 298 296 296 299 295 294 293 293 296 293 295 293 290 284 280 281 287 288 289 288 287 289 290 290 291 290 288 287 285 285 285 284 284 283 281 281 281
293 293 293 293 293 292 293 293 293 297 296 294 294 293 293 294 293 293 295 293 293 292 293 294 293 289 291 288 287 281 279 284 291 290 289 288 289 289 289 287 286 285 285 284 284 284 284 284 283 283 282 282 280 280
292 292 292 292 293 292 295 294 292 295 295 295 294 295 294 294 294 294 294 294 294 296 298 295 293 293 293 290 286 287 286 289 293 292 290 288 287 285 282 283 285 285 283 283 284 282 282 281 281 281 281 281 280 278
291 291 291 291 292 292 293 294 294 294 293 293 293 294 294 295 296 298 296 293 298 297 294 293 292 289 287 287 289 288 288 290 290 290 290 286 284 282 280 281 284 284 283 282 281 283 282 280 280 280 280 278 278 277
290 290 290 291 291 291 291 291 292 292 291 292 292 293 295 296 296 296 295 296 296 292 292 292 288 288 287 287 286 286 287 287 287 288 288 287 285 281 279 280 282 272 278 279 281 277 277 278 278 278 277 276 276 277
290 289 287 287 290 288 290 290 291 291 294 293 292 293 292 293 293 293 294 293 291 288 288 285 282 284 283 282 283 282 284 284 282 282 282 281 280 280 280 280 281 277 275 277 278 277 278 278 277 276 275 275 275 275
288 282 283 282 285 288 288 289 290 291 291 292 291 289 289 290 291 294 293 290 287 286 285 283 283 282 281 281 281 280 280 281 280 280 281 280 279 278 279 279 279 279 280 277 278 278 276 276 275 274 274 274 274 273
281 280 278 276 277 284 288 289 288 288 290 289 290 289 288 287 292 292 291 287 285 282 281 281 282 282 282 279 279 278 279 281 280 281 280 280 277 276 276 276 276 277 278 278 275 275 274 274 274 274 274 274 274 272
281 278 281 274 280 283 284 289 289 288 289 288 287 285 285 290 292 291 286 282 280 279 277 277 278 279 279 278 278 278 277 279 280 278 277 279 279 277 274 275 274 275 277 278 276 274 273 273 273 273 272 272 272 271
278 281 285 284 282 282 283 285 286 285 288 289 288 288 288 291 290 284 278 276 277 274 274 274 275 276 276 276 275 275 277 279 279 277 277 278 278 278 279 276 274 275 276 276 275 275 274 273 273 272 272 271 271 270
281 281 280 280 278 275 277 278 280 282 281 283 286 287 287 286 285 276 273 272 272 273 273 274 275 276 275 275 275 275 275 275 276 276 275 275 275 276 277 276 275 275 275 275 274 273 273 273 272 272 271 271 270 270
280 281 280 282 277 275 274 277 277 278 280 280 281 283 280 274 270 271 271 271 272 273 272 272 272 274 274 274 275 275 275 275 275 273 273 272 270 273 275 275 275 274 274 274 274 274 273 272 272 271 270 270 270 270
284 276 279 282 282 282 275 273 272 272 273 273 274 273 272 270 268 268 270 271 272 271 272 272 272 273 271 272 272 273 275 276 276 275 272 270 271 274 274 274 273 273 272 272 272 273 271 271 271 270 270 270 269 269
277 273 274 274 275 269 269 274 272 273 268 266 265 270 270 266 268 268 268 269 269 270 271 270 271 272 272 271 272 270 271 275 276 277 277 277 275 273 273 272 272 272 271 271 271 271 270 270 269 269 269 268 268 267
283 280 281 281 275 272 275 275 269 267 269 268 267 264 266 269 269 266 267 268 269 269 272 272 271 272 273 273 274 274 275 275 275 275 275 274 273 273 272 272 271 271 271 271 270 270 269 269 268 268 267 267 267 266
274 274 275 274 271 272 272 271 272 269 267 266 267 269 267 272 272 266 267 268 269 271 272 272 272 273 273 273 273 273 274 274 274 274 274 273 273 272 272 272 271 271 270 270 270 269 268 268 267 267 266 266 265 265

GFSWCAN_925_thetae_012.txt.gz
Theta_e
294 294 293 295 298 299 299 300 301 302 303 305 312 311 310 311 312 312 311 309 310 311 312 310 308 307 306 311 315 308 315 313 316 323 322 319 320 320 316 315 317 318 321 320 322 325 323 313 313 318 317 314 314 314
293 294 293 295 297 298 299 299 300 301 303 304 312 311 310 311 312 312 311 309 309 310 312 308 308 307 306 307 307 305 316 313 317 318 318 316 317 314 317 318 311 318 319 317 318 318 313 311 313 311 313 313 311 311
293 294 293 294 297 298 299 299 300 302 303 304 312 310 310 311 312 312 311 309 308 313 313 312 312 310 309 308 306 314 310 309 311 311 314 316 320 314 319 318 315 311 311 316 314 313 311 310 309 309 310 310 309 308
294 293 293 294 297 298 298 299 300 302 304 304 311 310 310 310 312 312 311 310 310 312 316 314 309 309 308 307 307 308 308 308 309 311 316 318 319 310 317 315 316 313 313 315 313 311 310 310 310 309 307 307 307 306
294 294 294 294 297 298 298 298 299 302 304 305 310 310 310 310 311 312 312 311 312 314 317 315 309 308 308 307 308 308 310 312 314 317 319 320 312 314 310 312 315 311 315 317 319 314 314 312 309 307 308 307 307 305
294 294 294 294 298 297 298 298 299 303 305 308 310 309 309 310 311 311 312 311 312 311 314 317 309 310 309 309 310 310 310 310 312 316 315 312 310 314 320 320 314 310 309 309 313 311 308 310 308 306 306 304 303 303
294 294 294 294 297 297 297 297 299 304 306 310 309 309 309 310 311 310 312 309 311 310 311 312 314 309 307 310 311 312 311 311 313 312 313 314 312 312 314 319 312 310 309 307 306 306 307 307 307 304 303 302 300 299
294 294 294 294 297 297 297 297 298 304 308 310 309 309 309 310 310 309 309 309 309 308 308 309 311 311 307 313 315 309 313 313 312 312 310 313 311 311 316 313 307 308 306 306 304 303 307 303 302 301 300 298 298 298
294 294 294 295 296 297 296 296 299 306 310 308 308 308 308 309 308 309 307 307 307 308 308 308 313 315 308 308 308 308 309 314 309 313 312 311 314 317 316 310 307 306 308 304 300 300 302 302 299 297 297 297 298 297
294 294 293 295 296 296 296 296 301 309 308 308 309 307 307 305 309 308 307 309 305 304 304 308 307 312 308 308 308 309 307 311 313 311 307 310 314 309 306 307 307 305 303 300 301 299 298 296 296 296 298 298 297 297
294 294 293 295 296 296 296 295 305 308 308 307 304 304 303 306 303 303 307 310 307 308 306 306 307 310 305 310 308 305 307 306 313 310 312 310 309 307 303 303 303 301 301 303 305 303 302 300 298 296 296 296 295 295
294 294 293 295 295 296 294 295 302 308 308 305 304 303 301 302 303 306 307 303 306 309 304 307 305 306 304 303 306 303 305 302 310 304 308 309 306 299 302 301 301 301 301 299 300 298 296 296 296 295 295 295 294 294
294 293 294 295 295 295 294 297 303 307 305 304 303 302 306 303 306 307 307 306 304 301 303 303 304 303 301 302 301 302 305 307 303 306 306 306 299 297 299 300 299 299 296 295 295 294 294 293 293 293 293 293 292 292
294 293 294 294 295 295 293 295 304 305 303 301 301 306 306 307 306 305 305 304 301 302 303 303 302 305 301 304 302 303 300 302 303 303 304 301 298 297 296 298 299 297 295 295 294 293 293 293 292 291 291 291 291 291
293 293 294 294 295 294 292 293 299 303 298 300 303 308 306 297 293 290 293 298 300 303 301 302 302 302 301 303 301 300 302 303 302 302 301 297 295 294 295 298 298 295 294 294 292 292 291 290 290 289 288 288 288 287
292 293 293 294 294 294 292 295 298 297 293 297 298 298 296 297 296 295 297 301 300 302 299 300 300 302 301 303 302 302 302 302 303 301 297 293 295 294 295 297 295 293 293 292 291 291 290 290 290 289 287 286 285 284
292 292 293 294 294 293 292 292 295 295 297 299 298 295 293 294 297 297 300 302 302 302 302 301 304 303 299 301 302 299 301 301 297 294 293 296 295 293 292 291 291 290 291 290 289 289 289 288 287 287 288 283 282 282
291 292 293 294 293 292 292 292 293 297 298 296 299 296 296 296 297 298 298 299 301 298 297 301 297 300 302 302 301 299 295 289 288 293 293 293 293 292 293 293 292 291 290 289 288 286 285 286 287 286 283 281 281 281
293 293 293 293 293 292 293 293 293 297 296 295 295 295 295 296 296 296 296 294 294 294 296 298 299 299 299 296 296 292 291 293 294 293 292 292 292 292 290 289 288 288 287 285 286 286 285 285 285 284 282 281 281 281
290 291 291 291 293 293 295 294 292 296 296 296 296 296 295 296 296 295 295 295 297 299 301 299 297 295 295 294 291 293 292 293 294 294 292 290 289 289 288 289 287 284 283 283 284 283 282 281 281 281 281 281 281 280
290 290 291 291 292 292 292 292 294 294 294 294 294 295 296 296 298 298 298 296 300 300 299 294 293 290 290 290 290 292 291 293 295 296 293 290 286 285 283 283 284 285 285 285 285 285 283 282 280 280 280 278 278 278
290 290 289 289 291 291 292 291 293 292 293 293 294 295 297 298 298 298 296 298 298 294 293 293 291 290 289 288 287 288 288 289 289 289 289 287 286 285 284 283 284 283 283 284 283 282 280 278 278 277 277 277 277 277
289 288 287 285 288 289 290 290 292 292 294 294 293 294 293 294 294 294 295 294 291 288 288 287 285 285 285 284 283 283 284 285 285 284 283 282 281 281 281 281 281 282 281 278 279 278 278 278 277 276 276 275 275 274
287 282 283 283 284 287 289 290 290 291 292 292 292 291 290 292 291 295 293 290 288 286 287 285 285 285 285 284 283 282 282 282 282 282 282 283 282 280 280 279 279 280 280 278 278 277 277 276 276 275 274 274 274 273
283 281 280 278 279 285 287 290 290 290 291 290 291 290 290 288 294 293 291 288 285 283 284 284 285 285 284 282 281 280 281 282 283 282 281 280 279 278 277 277 276 277 278 277 276 275 274 274 274 274 274 274 273 272
281 281 281 279 282 283 285 289 290 290 290 289 288 287 288 292 293 290 286 281 280 280 279 282 284 283 282 281 281 281 279 281 281 280 279 279 279 279 278 278 278 277 278 278 276 274 273 273 273 273 273 273 273 271
280 281 285 284 282 282 284 286 286 288 290 290 289 289 291 292 290 283 279 275 277 275 274 275 278 281 280 278 276 276 278 279 279 278 277 278 279 279 279 278 277 276 277 277 276 275 274 273 273 272 272 271 271 271
282 282 281 280 280 277 279 279 282 284 285 285 288 289 290 287 285 275 274 272 272 273 273 274 276 277 276 275 275 274 274 276 276 276 276 275 276 277 277 277 276 276 275 275 275 274 274 273 273 272 271 271 270 270
280 281 281 277 276 277 277 279 280 281 279 281 285 285 281 274 270 272 271 271 272 273 274 274 273 274 274 275 275 275 275 275 276 276 276 275 275 273 275 275 275 274 274 274 274 274 273 273 272 271 271 270 270 270
283 277 279 282 282 281 276 274 275 275 275 274 275 274 273 271 268 268 269 271 272 272 271 272 272 274 273 274 273 274 275 276 276 276 275 274 274 274 274 274 274 274 274 274 274 274 272 272 271 271 270 270 269 269
278 275 275 277 278 272 272 274 274 273 270 270 268 273 272 270 269 268 268 268 269 270 271 271 271 272 273 273 273 274 275 276 276 276 276 276 275 274 273 273 272 272 272 272 272 271 271 271 270 270 269 268 268 267
283 282 282 281 276 273 275 275 271 270 270 271 270 267 269 272 271 268 267 268 269 270 272 272 272 272 273 273 274 275 275 276 276 276 276 275 273 273 272 272 272 271 271 271 271 271 270 270 269 268 267 267 266 266
276 277 275 273 272 272 272 272 272 269 269 269 269 270 269 273 272 268 268 268 269 270 271 272 272 273 273 274 274 274 274 275 275 275 274 274 273 273 272 272 271 271 271 271 270 270 269 268 268 267 266 266 265 265

GFSWCAN_925_thetae_015.txt.gz
Theta_e
295 295 295 294 294 295 297 299 299 300 301 302 303 304 312 311 311 311 311 311 311 315 315 312 310 310 310 314 317 310 318 318 322 324 324 324 325 321 323 324 324 324 324 326 326 328 328 316 315 319 319 316 315 316
295 295 295 294 294 295 296 299 299 300 300 302 303 304 311 311 310 311 311 310 309 313 315 310 310 309 308 307 310 307 316 316 321 322 322 320 320 319 321 321 315 325 323 323 323 325 315 315 315 314 316 316 315 315
295 295 295 295 294 295 296 299 299 300 300 302 303 305 311 310 311 311 311 308 309 313 315 313 313 310 309 308 308 315 313 313 314 315 319 320 321 319 323 322 318 314 313 319 316 315 315 314 312 313 315 314 313 311
295 295 295 295 294 295 296 298 299 299 300 302 303 305 311 310 311 311 311 310 312 315 318 316 310 311 309 309 308 309 310 310 312 314 319 320 322 314 320 319 318 315 313 317 316 314 312 312 312 311 311 310 309 309
295 295 295 295 295 295 296 298 299 299 300 301 304 307 311 310 311 312 312 312 311 316 319 315 311 309 309 309 309 309 310 313 315 318 321 323 315 316 314 315 318 314 317 318 318 316 316 315 312 310 310 309 308 307
295 295 295 295 295 294 296 298 298 298 299 301 305 310 310 310 311 311 312 312 312 311 315 317 312 311 311 312 312 312 313 314 317 321 320 316 313 317 323 323 318 314 313 313 316 314 313 312 310 310 309 308 308 307
295 295 295 294 295 294 297 297 298 298 299 302 306 310 310 310 311 311 313 310 312 312 314 315 314 311 310 313 313 314 314 314 317 317 319 318 316 316 320 323 318 314 312 310 310 311 311 310 310 308 307 305 304 303
295 295 295 294 294 294 297 297 298 298 298 303 307 310 310 310 310 310 309 309 310 308 309 314 313 313 310 316 317 312 317 316 315 316 314 318 314 315 320 319 313 312 311 310 309 307 310 309 307 306 304 302 301 301
295 295 295 294 294 295 296 297 298 298 299 303 310 310 309 309 308 309 309 309 307 309 309 310 313 316 309 310 311 313 314 320 312 318 317 316 320 321 321 318 312 312 311 309 306 306 306 306 304 302 301 301 300 300
295 295 295 294 294 295 296 297 297 297 303 309 309 307 308 306 308 308 306 309 307 306 306 312 312 313 310 310 309 311 310 314 315 313 310 314 318 317 313 312 312 310 308 303 303 301 299 299 300 301 300 300 300 299
295 295 294 294 294 296 296 297 295 299 308 308 305 306 304 307 305 305 309 313 311 310 308 309 312 311 306 312 310 307 310 309 317 314 315 316 314 312 309 308 309 308 304 306 308 305 304 302 302 300 299 298 298 298
295 295 294 293 295 296 297 295 294 295 307 306 304 304 302 304 306 309 312 307 307 313 306 309 310 310 305 304 307 305 310 308 315 307 312 312 311 302 305 306 306 305 305 306 305 305 303 300 299 298 297 297 297 296
295 294 294 293 295 296 295 294 293 297 306 304 304 303 308 305 308 310 309 308 307 307 305 305 307 305 304 305 305 307 310 312 305 308 310 310 302 302 304 304 305 304 303 302 299 297 296 296 296 296 296 295 295 295
294 294 293 294 295 295 295 294 293 299 303 303 305 307 309 308 308 310 310 310 307 306 304 305 305 307 305 307 306 309 305 304 308 307 308 305 302 302 303 303 301 300 299 297 297 296 295 295 294 294 294 294 294 293
293 293 293 294 294 295 294 292 293 297 299 301 305 311 307 302 297 297 299 302 303 304 304 305 307 305 305 305 304 302 303 306 306 307 306 302 300 300 301 302 300 298 297 296 296 295 294 293 293 291 291 291 290 290
292 292 293 294 294 294 293 292 294 296 293 298 300 302 299 302 298 297 299 303 304 304 304 307 305 306 303 306 304 305 305 307 309 307 302 299 298 300 302 298 297 296 295 295 294 293 293 292 293 291 289 288 287 287
291 293 293 293 293 294 292 292 293 295 297 300 300 299 299 302 302 300 301 303 303 304 308 307 308 307 302 304 305 304 305 306 303 299 299 298 298 299 300 295 294 294 294 293 292 292 292 290 290 290 288 285 284 283
292 293 292 293 293 293 292 292 293 297 298 298 301 298 298 298 300 300 301 303 304 303 304 307 301 302 305 305 305 304 300 295 295 298 297 295 295 295 294 293 293 292 292 291 290 288 288 289 290 288 285 283 282 282
293 292 292 292 293 292 294 294 293 298 297 297 296 296 297 298 298 299 299 297 297 297 299 301 303 305 304 303 302 298 296 296 297 296 295 295 295 294 293 292 291 290 289 289 289 289 289 289 288 286 284 284 284 283
289 290 291 291 292 293 295 295 293 297 298 297 297 297 297 298 297 297 296 297 299 301 303 303 299 297 297 296 295 297 296 296 295 295 294 294 293 292 292 292 290 288 287 287 286 286 285 284 284 283 283 283 283 282
289 290 290 291 292 292 293 293 295 294 296 296 296 297 298 298 298 299 298 297 300 301 299 296 295 292 292 293 294 294 295 296 296 296 294 291 289 289 288 287 288 288 288 288 287 286 285 284 283 283 281 281 280 279
290 289 290 289 292 292 293 291 292 294 295 295 296 297 299 300 300 299 296 299 298 296 295 294 293 292 291 290 290 291 291 292 291 291 289 289 288 288 288 287 287 288 288 288 287 285 283 281 280 280 279 279 278 277
288 288 288 288 290 292 292 291 293 293 296 295 295 296 295 296 295 295 296 295 292 289 290 289 288 287 287 286 286 286 288 289 288 287 286 285 285 285 285 285 285 285 284 283 283 281 280 280 279 278 278 278 277 276
286 284 285 286 287 289 290 292 292 292 293 293 294 294 292 293 292 296 294 291 288 289 288 287 287 287 287 286 285 284 284 285 285 285 285 285 284 283 283 282 282 282 282 281 280 280 278 278 277 277 276 276 276 275
286 284 284 283 286 288 289 292 292 292 292 292 293 293 292 290 296 294 292 288 286 286 287 287 288 289 287 284 283 282 282 285 285 284 282 283 281 280 280 279 279 279 279 279 278 277 276 276 276 276 276 275 274 273
284 284 285 285 286 287 288 291 291 292 292 291 290 290 290 294 294 290 285 281 281 280 279 282 286 285 284 284 284 283 280 281 283 282 280 281 282 283 282 281 280 277 278 278 277 276 275 275 275 275 275 275 275 273
284 285 287 285 285 285 287 288 288 290 291 291 291 292 293 293 290 283 279 276 277 275 275 276 280 283 281 279 278 277 277 279 280 278 277 278 279 279 281 281 280 277 278 278 277 276 275 275 274 274 273 272 272 272
286 285 284 284 284 282 284 284 287 287 288 286 290 289 290 286 284 276 275 274 273 274 274 275 276 277 277 277 276 276 276 277 277 277 277 277 277 277 278 278 278 278 277 276 276 275 275 274 274 273 273 272 271 271
286 284 285 278 281 284 282 284 285 283 280 282 287 286 281 274 272 272 272 271 273 275 277 276 275 275 275 275 275 276 276 278 279 279 278 277 276 274 275 275 275 275 275 275 275 274 274 273 273 272 272 271 271 270
285 283 284 282 279 284 281 277 280 279 277 276 277 276 275 272 270 269 270 271 273 273 273 274 274 276 277 276 276 275 276 276 277 278 278 277 276 274 274 274 274 275 275 275 275 275 273 272 272 271 271 270 269 269
281 282 282 282 282 278 277 276 276 276 275 275 274 277 275 273 271 268 268 269 270 272 274 274 273 274 276 276 276 277 277 276 276 276 277 276 275 274 274 274 274 273 274 274 274 272 272 271 271 270 269 269 268 267
284 283 284 282 280 276 276 278 276 277 277 278 276 274 273 276 276 271 267 268 271 273 274 274 274 273 274 274 275 276 276 276 276 276 276 275 274 273 273 272 272 272 272 272 272 271 271 270 269 269 268 267 267 266
281 280 278 277 277 278 277 278 277 277 276 276 274 273 273 276 277 270 268 268 269 270 272 272 273 273 274 274 274 275 276 276 275 275 275 274 274 273 273 272 272 272 272 271 271 270 270 269 268 267 267 266 266 266

GFSWCAN_925_thetae_018.txt.gz
Theta_e
296 296 296 296 296 296 295 296 297 299 300 301 301 302 304 306 312 312 311 311 311 314 314 312 312 311 312 313 316 312 316 317 321 321 324 325 324 322 324 323 320 323 324 326 324 327 326 315 314 319 317 315 314 314
295 295 296 296 296 296 295 295 297 299 300 300 301 302 304 306 312 311 311 311 311 312 314 310 311 310 309 310 310 310 315 318 321 323 321 320 321 319 320 326 320 324 321 323 323 324 316 313 314 314 315 314 313 311
295 295 296 296 296 296 295 295 297 299 299 300 301 303 304 306 312 311 311 309 309 312 313 313 313 310 309 308 308 314 313 313 316 314 318 319 321 318 319 319 317 316 313 317 317 314 314 313 312 313 313 311 310 309
295 295 296 296 296 295 295 295 296 298 299 300 301 302 303 308 311 311 311 310 311 314 318 315 310 311 310 309 308 310 311 310 312 315 318 319 323 315 322 317 316 313 312 315 315 314 312 312 311 310 309 308 308 307
296 295 296 296 296 295 295 295 296 298 298 299 300 301 304 309 311 311 311 311 312 315 319 316 311 310 310 309 308 309 310 313 314 317 320 321 315 315 314 314 317 312 314 316 318 314 314 312 309 308 308 307 306 306
296 296 296 295 296 295 295 295 296 298 299 299 300 302 305 309 311 311 312 311 312 311 316 316 312 311 311 311 310 310 311 313 315 319 320 316 313 316 317 319 318 312 312 312 313 311 311 309 308 307 307 306 305 303
295 296 296 295 296 295 295 295 296 297 299 299 300 302 305 310 311 311 313 311 311 312 314 313 313 311 310 312 313 313 313 314 315 316 318 317 314 313 319 323 317 311 309 309 309 309 309 308 308 306 305 304 303 301
295 296 296 296 296 295 294 295 297 298 298 298 300 304 306 311 311 310 310 309 311 310 311 312 313 313 310 316 315 311 315 315 314 315 313 317 313 314 318 317 312 309 308 308 307 308 307 306 304 302 300 299 298 298
296 296 296 296 296 295 294 296 297 298 298 298 302 304 310 310 309 309 309 309 309 310 310 310 312 316 310 311 311 312 313 319 312 317 316 314 317 315 318 316 310 309 308 305 303 303 304 303 301 299 298 298 298 298
296 296 296 296 295 294 295 296 298 297 296 299 302 308 308 307 309 309 307 308 306 305 306 312 311 313 309 311 310 312 309 313 314 313 309 312 312 315 313 311 309 307 304 302 302 302 301 298 299 298 298 297 297 296
296 296 296 295 294 294 296 297 296 295 300 304 306 306 306 307 306 307 308 310 309 309 308 309 311 311 307 312 310 307 308 307 314 311 313 313 314 311 306 307 306 303 302 302 303 300 301 300 299 297 296 296 295 295
296 295 295 294 293 294 295 297 296 294 292 296 301 304 304 304 306 308 310 306 308 309 307 310 309 309 306 305 307 306 309 307 314 305 311 311 307 301 304 307 304 302 302 303 302 302 300 298 296 296 295 294 295 295
295 295 294 293 294 295 295 296 296 293 294 300 303 302 306 304 309 308 309 307 308 306 304 304 306 303 303 303 304 306 306 311 303 308 309 305 299 301 302 303 302 302 304 301 299 296 295 295 295 295 294 295 294 294
294 294 293 294 294 294 294 296 294 292 293 301 301 307 308 308 306 306 305 305 303 303 304 304 304 305 304 304 304 301 303 303 303 303 303 300 298 301 301 300 299 298 297 296 295 294 294 294 293 294 294 294 293 291
293 292 293 294 293 293 294 295 292 292 294 299 300 310 306 301 298 298 299 300 302 303 304 304 302 303 302 301 301 301 302 299 304 304 302 297 295 298 298 298 296 295 295 295 294 293 292 292 291 290 291 291 290 289
293 293 293 292 293 293 295 293 292 294 293 297 299 302 301 302 298 298 300 302 302 304 301 302 301 298 299 299 298 297 300 301 302 300 295 293 297 298 297 295 294 294 294 293 292 291 291 290 288 287 288 288 287 287
293 293 292 293 293 293 293 292 292 294 297 299 300 299 300 298 299 299 301 304 303 304 304 301 301 299 301 298 299 299 300 301 295 293 292 292 296 296 294 292 291 292 292 291 290 290 290 289 288 286 284 284 284 283
292 292 292 292 293 293 292 292 293 296 299 298 301 299 298 298 299 300 301 302 302 300 301 304 299 301 299 299 299 299 295 289 290 292 291 294 294 292 291 291 290 290 289 288 288 288 289 288 286 284 283 282 282 281
292 292 291 292 292 293 293 294 292 298 297 297 296 296 298 298 298 298 300 298 296 296 299 301 302 299 298 296 296 294 292 290 294 292 292 292 292 291 291 290 289 288 287 288 288 287 287 288 285 284 283 283 282 281
289 290 290 291 292 292 294 294 292 296 297 296 296 297 297 297 296 297 297 297 298 300 302 299 298 295 295 293 292 294 293 294 294 293 292 291 292 292 290 290 288 287 286 286 286 285 284 283 284 284 283 283 282 282
289 289 289 290 292 291 292 292 294 294 295 296 296 297 297 297 298 298 298 297 299 301 298 294 293 291 291 291 292 293 293 293 294 295 292 290 289 289 287 287 287 287 286 285 285 285 283 282 283 283 281 280 280 280
290 289 289 289 290 289 292 291 291 292 294 295 296 297 299 300 300 298 295 298 297 295 295 294 292 291 290 289 289 291 291 292 291 291 290 289 288 287 286 286 287 286 286 285 283 281 281 281 281 280 280 279 278 278
288 287 288 287 285 286 291 291 293 293 295 295 295 296 295 296 295 294 295 293 291 289 289 288 287 287 287 286 287 287 290 290 288 287 286 285 285 286 285 286 285 284 282 282 282 280 280 281 280 279 279 277 277 276
286 283 282 283 284 283 288 291 292 292 293 293 294 294 292 292 292 295 293 290 288 288 288 287 286 286 286 285 284 285 285 286 285 285 285 285 283 282 282 282 283 283 282 281 280 279 279 279 279 277 277 276 275 275
282 281 280 278 280 283 283 288 291 292 292 292 293 293 291 290 295 293 290 286 284 282 284 287 286 286 285 284 283 282 285 285 285 283 282 282 281 280 279 279 279 280 281 279 278 277 277 277 276 276 276 275 274 274
281 279 281 281 280 283 284 286 289 291 292 292 291 291 290 294 291 287 283 279 279 278 277 278 283 284 283 283 283 282 280 283 282 281 280 283 282 280 278 278 277 277 279 280 278 276 276 276 276 276 276 276 275 273
281 280 285 285 284 285 283 286 286 289 289 289 290 291 292 292 287 281 278 275 276 275 275 276 280 281 280 279 278 277 280 282 280 277 278 280 281 282 281 279 277 277 278 279 278 277 276 275 275 274 273 273 272 272
284 283 280 280 282 280 281 280 282 283 285 285 289 287 287 283 281 276 274 274 273 275 275 276 277 278 277 277 277 277 276 277 277 277 277 277 277 278 279 279 278 278 278 277 277 276 276 275 274 273 273 272 272 271
283 283 282 276 276 279 278 279 280 280 279 280 284 283 279 274 272 271 272 272 274 277 277 276 276 276 276 276 277 278 278 279 279 278 277 276 274 274 276 276 276 276 276 276 275 275 275 274 273 273 272 272 271 271
281 280 280 275 276 280 276 274 276 276 275 275 276 275 275 273 270 270 271 271 272 273 274 275 277 277 277 277 276 275 276 278 279 279 277 276 274 274 275 275 275 275 275 275 276 275 274 273 272 272 272 271 270 270
280 278 276 278 276 274 273 274 274 275 272 271 272 274 274 272 271 270 269 270 272 274 275 275 275 276 277 277 277 277 275 276 277 278 278 276 274 274 275 275 275 275 275 275 274 273 272 272 271 271 270 269 268 268
282 278 275 277 274 272 272 272 271 271 271 271 270 269 271 275 275 271 268 270 273 274 276 275 275 273 275 275 276 277 277 276 276 276 276 275 275 274 274 274 274 274 274 273 272 272 271 271 270 269 268 268 267 267
277 274 272 271 271 273 273 271 272 271 270 269 269 270 268 271 273 268 268 269 270 271 272 272 273 274 274 275 275 276 276 276 275 275 275 275 274 273 273 273 272 272 272 272 271 271 270 269 269 268 267 267 267 267

GFSWCAN_925_thetae_021.txt.gz
Theta_e
296 296 296 296 296 297 296 296 295 296 298 299 300 301 302 303 305 310 311 312 312 313 314 312 311 310 313 313 315 313 316 316 319 322 323 324 323 321 320 321 320 323 325 326 324 326 322 314 313 317 314 313 311 309
295 295 296 296 296 297 296 296 295 296 297 299 300 301 302 303 305 310 310 311 312 311 313 311 310 310 309 313 313 311 315 317 319 320 318 321 321 316 319 324 317 323 321 324 320 322 316 313 314 313 312 312 311 308
295 295 296 296 296 296 296 295 295 296 297 299 300 301 302 303 305 311 310 310 309 311 312 312 312 309 309 310 311 315 313 314 315 312 317 318 319 316 317 317 318 317 313 317 317 314 313 312 312 312 310 309 307 306
295 295 296 296 296 296 296 295 295 295 297 299 300 301 301 303 306 311 311 311 311 312 315 313 310 309 310 309 309 310 311 311 312 314 318 318 320 313 319 315 315 311 311 314 313 312 311 311 311 308 307 306 306 305
296 296 296 296 296 296 296 296 295 295 296 299 299 300 301 303 307 311 311 311 311 314 317 314 310 310 309 309 309 310 311 313 315 319 319 321 316 313 313 313 315 309 312 315 317 312 311 310 308 307 307 307 306 305
296 296 296 296 296 296 296 296 295 295 297 298 299 299 301 303 305 311 311 311 311 312 314 315 311 310 310 309 309 309 310 311 314 318 319 316 312 316 313 315 314 310 310 311 313 310 309 308 306 306 305 304 303 303
297 296 296 296 296 296 296 295 294 295 297 299 298 299 300 303 306 311 312 310 311 311 313 311 313 310 309 310 310 311 310 312 314 314 317 314 313 313 317 320 316 310 308 308 307 308 308 308 307 304 304 302 301 300
296 297 296 296 296 296 296 295 295 296 298 297 298 298 301 305 310 310 310 310 311 311 311 310 312 312 310 314 313 309 313 313 312 314 312 315 311 312 317 315 310 307 306 306 306 306 307 304 302 301 300 299 299 298
297 297 297 296 296 296 295 294 296 296 297 297 298 299 304 309 309 308 310 311 310 310 311 309 312 314 309 311 310 310 310 316 309 313 313 312 315 315 315 313 308 307 308 305 301 302 303 302 300 298 297 297 298 297
296 296 296 296 295 294 294 295 296 297 296 298 301 305 308 308 310 310 309 309 306 305 307 311 310 313 309 310 310 310 307 311 313 312 306 310 311 312 312 310 307 304 303 302 303 299 299 298 298 297 297 296 296 296
296 296 295 295 294 293 294 295 295 297 295 298 303 306 305 308 308 308 308 309 309 308 308 310 310 311 306 311 310 305 307 306 314 311 313 312 313 310 303 305 303 301 302 302 301 300 301 300 298 296 295 295 294 294
295 295 294 294 293 294 295 294 294 296 294 293 292 294 303 304 305 309 311 306 309 311 307 310 310 309 306 305 308 306 308 306 312 304 310 312 307 301 302 304 300 300 301 300 300 299 298 295 295 295 294 294 294 293
294 294 293 293 294 294 293 294 295 296 294 294 297 300 301 303 309 310 310 309 308 306 305 305 307 304 303 304 304 303 302 304 301 303 307 306 299 299 301 300 300 300 300 300 299 296 295 294 294 294 293 293 293 293
294 293 293 293 294 293 293 294 296 294 292 296 300 305 305 305 304 304 307 303 301 301 303 304 304 305 304 305 304 302 302 301 301 303 302 299 297 299 299 298 298 297 297 297 296 295 294 294 293 293 293 293 292 291
293 293 292 291 292 293 293 294 294 293 291 298 299 307 306 299 297 298 297 302 299 303 304 302 301 301 297 303 299 300 300 298 302 302 299 291 292 295 295 294 294 295 295 295 294 294 293 292 291 289 290 290 289 288
293 291 290 292 293 293 293 293 293 293 292 296 298 302 301 300 298 298 300 302 300 304 299 298 297 293 297 296 295 294 298 300 301 298 292 290 295 295 293 293 294 295 294 294 293 291 290 289 288 286 287 287 286 286
292 290 290 292 292 292 293 293 292 294 297 299 299 297 299 291 293 297 300 303 303 304 302 296 296 297 294 292 295 294 297 298 298 289 287 289 294 292 292 291 291 293 292 291 290 288 286 285 285 284 282 282 283 283
291 290 291 292 292 292 292 292 293 296 297 297 299 298 298 296 295 299 300 302 301 298 298 298 295 294 296 296 294 294 291 285 285 289 291 291 289 290 291 290 290 291 290 289 287 286 285 284 283 281 280 281 281 281
292 292 291 291 292 292 292 293 292 296 296 296 295 295 296 298 297 297 299 297 295 296 298 297 295 294 296 293 292 286 285 287 292 291 290 289 290 290 289 289 289 288 288 287 287 286 285 285 282 281 281 281 280 279
289 289 289 290 291 291 286 289 292 294 295 295 295 296 296 296 296 296 296 296 296 297 298 294 296 295 294 292 289 288 289 291 293 293 290 289 289 290 290 290 288 286 285 285 285 284 283 282 282 282 282 281 280 280
289 289 288 289 291 290 283 286 289 293 293 294 295 296 297 296 298 298 298 296 300 300 293 293 292 291 289 288 291 292 292 293 293 293 292 290 289 289 287 287 287 286 285 284 284 285 282 282 282 283 282 281 281 280
289 289 288 288 283 281 284 287 288 291 293 294 294 295 298 299 299 298 296 297 295 293 293 292 290 289 289 288 289 290 291 291 292 291 290 289 288 288 287 286 286 283 282 282 282 281 280 280 281 280 280 279 279 278
288 286 286 283 280 280 284 284 286 289 292 293 293 295 294 295 294 293 294 291 289 288 288 288 287 286 287 287 288 288 290 290 289 289 288 286 286 286 286 285 284 283 280 280 280 280 279 281 279 278 278 277 278 277
286 281 280 279 277 280 282 281 287 288 290 292 292 293 292 291 290 293 290 286 284 284 287 287 287 287 287 285 285 285 285 287 286 285 286 286 284 282 282 282 282 282 281 280 279 279 279 279 279 277 277 276 275 274
280 278 276 274 273 279 278 280 281 286 288 291 290 291 290 289 293 290 286 282 281 279 279 283 286 286 285 284 283 283 285 286 285 283 282 282 281 280 279 279 279 279 280 279 278 277 278 278 277 276 275 275 274 274
279 275 279 274 275 279 280 280 280 283 288 290 291 290 290 292 287 284 281 277 277 277 276 277 278 284 282 283 283 282 281 283 283 282 281 282 282 282 280 280 279 278 279 280 278 276 276 276 276 275 275 275 275 273
278 277 282 284 282 282 281 282 282 282 283 286 288 289 290 289 285 280 277 275 275 275 274 276 279 281 280 279 278 278 280 282 279 278 279 281 281 281 281 280 278 278 279 280 279 278 276 275 275 275 275 274 273 273
281 281 280 276 278 276 277 276 277 277 280 283 285 284 285 282 282 275 274 273 273 274 276 276 278 278 277 277 277 277 277 277 278 278 279 279 279 280 281 280 280 279 280 279 278 277 277 276 275 274 273 273 272 272
280 280 279 274 273 273 273 275 276 277 278 277 280 281 278 274 272 271 272 272 274 276 277 277 276 277 277 277 277 278 278 280 281 279 278 277 276 275 277 277 277 277 277 276 276 276 276 275 274 274 273 272 271 271
278 275 275 270 274 277 272 272 273 273 273 272 274 275 274 272 271 270 271 272 273 274 275 277 277 278 278 277 276 276 278 280 280 279 278 276 274 275 276 276 276 276 276 275 275 275 274 273 273 272 272 271 271 270
277 272 273 272 272 269 269 271 270 274 268 266 265 271 274 271 271 270 270 271 273 275 276 276 276 277 278 278 278 277 276 277 278 279 279 276 275 275 275 275 275 276 276 275 274 273 273 272 272 272 271 270 269 269
278 273 273 274 272 269 268 268 266 266 265 266 266 264 272 275 274 270 269 271 274 274 277 275 275 274 276 276 277 277 278 276 275 275 276 275 275 275 275 275 275 275 274 273 273 273 273 272 271 271 270 269 268 268
273 271 266 267 268 270 270 269 268 268 266 265 266 267 265 271 275 269 269 269 270 271 272 273 274 275 276 276 276 276 276 276 276 276 276 275 275 275 274 274 274 273 273 273 272 272 271 271 270 269 268 268 268 267

GFSWCAN_925_thetae_027.txt.gz
Theta_e
295 296 296 297 297 296 297 297 297 297 297 295 296 297 300 301 302 304 305 311 311 313 312 311 310 313 313 311 314 312 314 315 316 320 319 321 321 318 320 319 321 321 322 322 318 321 317 310 311 315 310 311 309 308
295 296 296 296 297 297 297 297 297 297 297 296 296 297 300 301 301 302 307 310 312 312 312 311 311 310 310 312 313 312 314 315 318 319 318 319 322 316 315 318 314 319 318 318 316 316 312 311 313 312 309 310 307 306
296 296 297 297 297 297 297 297 297 297 297 296 296 297 299 300 301 301 305 309 311 311 312 311 312 311 310 310 311 312 312 313 316 314 316 318 321 312 316 315 315 314 312 317 317 314 314 312 311 309 307 306 303 303
296 297 297 296 297 297 297 297 297 297 297 295 296 297 299 299 299 301 304 309 311 311 314 313 309 309 309 309 310 311 311 311 312 314 317 318 318 311 315 313 315 313 312 314 314 311 311 311 310 306 304 303 303 301
296 297 297 297 297 297 297 297 297 297 295 295 296 297 300 299 299 300 304 309 311 313 316 314 309 309 309 308 309 310 311 313 315 318 319 321 315 313 310 310 312 308 313 316 317 313 312 310 307 304 305 304 302 301
297 297 297 297 297 297 297 296 296 295 294 295 297 297 298 299 299 301 311 310 311 311 313 315 310 309 307 308 308 310 311 311 314 317 318 316 311 315 313 315 313 309 307 310 314 308 306 305 304 304 304 302 301 301
297 297 296 296 296 296 296 295 294 294 295 296 296 296 297 298 299 302 308 307 309 311 313 311 312 310 307 308 308 310 309 311 313 315 317 315 313 313 316 316 315 309 308 307 305 306 307 307 306 303 302 301 300 298
296 296 295 295 295 294 294 294 294 295 294 295 296 297 298 299 300 303 307 309 310 311 311 309 311 312 309 313 313 310 313 313 312 314 312 314 312 311 316 314 311 306 305 305 304 304 306 303 302 301 300 300 299 298
296 296 295 294 294 293 293 294 294 294 294 296 297 299 300 301 305 309 310 310 311 310 312 309 311 311 308 311 310 310 310 316 310 314 313 311 314 314 315 313 308 305 307 304 300 301 302 302 300 299 298 298 298 297
296 295 294 294 294 294 294 294 293 294 295 296 299 302 305 306 305 310 310 310 307 307 307 312 307 312 308 311 310 311 308 312 314 312 307 310 312 310 309 309 307 304 301 301 302 300 299 299 298 298 298 298 297 295
296 295 294 294 294 294 293 293 293 295 295 295 296 297 295 303 305 309 309 310 309 308 309 307 309 311 305 311 312 307 308 307 313 306 313 311 311 307 302 305 304 301 301 302 302 300 301 300 298 296 294 294 294 295
295 294 294 294 294 293 293 293 294 294 295 296 296 294 293 300 305 307 308 306 309 312 308 311 307 306 305 305 308 306 307 305 312 302 310 311 306 301 301 304 301 300 300 300 299 298 297 296 295 295 294 293 293 291
295 293 295 295 294 292 293 293 293 294 295 293 294 295 298 301 307 310 311 310 309 306 305 305 307 306 305 305 304 303 312 312 301 304 307 305 298 298 298 298 297 298 298 296 295 295 295 294 294 294 293 293 291 289
295 294 294 294 290 292 293 293 293 294 293 295 298 301 302 306 307 306 306 307 301 298 305 305 304 305 304 306 305 310 303 300 302 304 304 297 298 298 297 296 297 297 295 295 295 295 294 294 294 294 293 292 290 288
295 293 292 289 292 293 293 292 292 293 293 296 298 302 304 301 299 298 297 299 299 301 302 303 302 304 303 304 299 300 303 303 303 306 297 291 290 291 296 296 295 294 294 294 294 294 294 294 293 292 291 290 289 287
295 293 289 291 292 293 292 292 293 293 292 294 296 299 301 300 300 298 299 300 299 302 299 301 302 305 305 303 295 297 300 303 305 295 289 284 293 293 293 293 293 294 294 294 294 293 292 291 289 287 287 287 287 286
294 291 291 292 292 290 291 291 292 293 295 296 298 296 297 298 299 298 299 301 301 301 306 302 305 304 293 290 295 293 298 301 291 287 284 286 289 291 291 291 291 292 292 292 292 290 288 287 287 286 283 282 284 284
293 292 293 292 291 290 291 291 291 292 293 285 294 293 295 296 297 298 297 299 301 300 298 301 295 296 297 297 294 294 290 291 284 285 287 288 287 288 290 290 290 290 289 289 288 287 286 286 284 281 280 281 281 281
294 294 291 290 290 291 291 291 291 292 285 292 293 292 294 295 297 297 295 296 296 296 297 297 294 295 297 293 293 288 287 286 291 291 288 288 288 288 289 288 288 287 287 287 287 286 284 284 282 281 280 281 279 279
291 290 289 288 289 289 287 282 286 290 288 285 291 290 291 294 295 295 296 296 296 298 300 301 297 295 296 294 290 289 288 288 290 290 288 287 286 287 288 288 288 286 285 284 283 283 281 281 280 280 280 280 279 279
289 289 288 287 289 287 285 287 283 287 290 290 281 287 292 294 296 298 298 295 298 300 299 293 292 291 289 288 289 289 289 291 291 291 290 286 286 287 286 287 287 287 286 284 283 284 282 280 280 282 281 280 279 279
288 288 287 286 280 277 279 285 285 284 288 282 283 282 288 292 295 294 291 296 291 289 288 290 289 288 289 289 289 290 290 290 290 291 290 289 287 287 287 287 287 286 286 285 283 281 279 280 281 281 280 279 279 278
288 286 284 281 279 277 280 278 280 276 284 280 279 282 287 289 292 291 290 288 284 282 281 284 283 286 286 287 288 289 290 289 288 288 288 287 287 288 287 286 285 284 282 280 280 280 279 281 280 279 279 278 278 277
286 280 280 279 275 278 278 275 279 278 276 281 278 281 285 288 290 290 288 284 281 280 279 278 280 286 287 286 286 286 287 288 286 287 287 287 285 284 284 283 283 283 282 280 281 281 280 279 279 278 277 277 276 275
282 278 276 276 269 275 274 275 272 278 279 276 280 279 285 285 290 288 285 282 279 278 277 277 278 279 284 284 284 284 286 287 287 286 286 285 283 282 281 281 281 281 281 280 279 279 278 277 277 277 276 276 275 274
280 274 277 273 272 278 277 279 276 277 277 277 280 281 281 286 285 286 282 277 276 276 275 275 275 277 279 282 284 284 283 285 285 284 283 284 285 284 282 281 281 280 281 281 279 278 277 276 276 276 276 275 275 274
279 277 280 281 280 279 279 279 279 277 276 277 275 276 280 282 283 281 277 275 275 274 273 273 274 276 278 280 279 280 282 284 284 281 282 284 285 284 284 284 282 280 281 281 280 280 277 276 276 276 275 276 275 275
280 279 280 275 276 273 275 274 273 275 275 278 279 277 279 283 282 273 271 274 272 272 273 275 276 277 278 278 278 278 278 279 280 280 281 280 281 283 284 284 282 280 281 282 282 281 280 278 277 276 276 275 273 273
279 278 278 273 272 272 273 276 275 275 276 274 275 276 275 275 268 266 271 271 272 273 275 277 277 277 277 278 278 279 279 281 283 282 281 280 278 277 278 279 280 282 281 280 280 281 280 278 277 276 275 274 273 273
279 274 274 268 274 276 272 271 270 270 271 271 272 271 271 269 271 271 270 270 270 271 274 276 278 278 278 279 278 278 280 282 283 283 282 281 277 276 278 279 279 279 278 278 277 277 276 275 274 274 273 273 272 272
275 271 270 271 271 267 266 268 269 272 265 263 263 268 269 266 271 271 271 271 272 275 276 276 276 277 278 278 279 279 278 279 282 282 280 277 276 277 277 278 278 277 277 277 276 276 275 274 274 273 272 272 271 271
276 271 272 274 271 267 266 265 263 265 263 265 266 262 265 269 272 267 271 272 274 274 276 275 275 274 276 276 277 278 278 276 276 278 278 277 276 277 277 277 277 277 277 277 276 275 274 274 273 272 272 270 270 269
269 267 263 265 268 269 268 267 267 266 265 265 265 264 263 269 273 268 271 271 271 272 273 274 274 274 275 276 276 276 277 277 277 278 278 278 278 277 277 277 276 276 276 275 274 274 273 273 272 271 270 270 269 269

GFSWCAN_925_thetae_030.txt.gz
Theta_e
295 296 296 297 297 297 297 297 297 298 297 297 297 296 297 300 301 301 304 309 310 311 311 311 311 312 312 312 312 312 313 314 316 318 318 320 320 318 318 317 320 319 322 321 319 321 316 310 311 315 310 310 310 309
296 296 297 297 297 297 297 297 297 298 297 297 296 296 297 300 301 300 304 305 311 311 312 311 311 310 312 310 312 311 314 315 316 316 317 319 321 314 314 317 313 318 316 317 316 315 311 310 312 310 308 308 307 306
296 297 297 298 298 298 297 298 298 297 297 297 295 296 297 300 300 300 301 304 311 311 311 310 311 311 311 311 311 313 312 312 315 312 314 317 318 312 316 313 315 313 311 316 316 314 312 311 310 306 305 304 303 302
297 297 297 297 297 297 297 297 297 297 296 296 295 296 298 298 299 300 300 302 306 311 313 312 309 309 310 309 311 310 311 311 312 314 317 318 319 311 313 312 313 312 312 314 313 312 309 309 308 304 302 302 301 300
297 297 297 296 296 296 296 296 296 295 295 294 295 296 297 297 298 299 301 305 308 312 316 314 309 308 308 309 310 310 311 311 314 317 319 320 316 313 308 308 310 307 313 315 316 313 311 309 305 303 303 302 301 300
297 297 296 296 295 295 294 294 294 294 294 295 295 295 295 296 297 298 307 308 309 311 312 314 310 309 307 308 308 310 311 312 313 317 318 317 312 314 316 313 313 308 307 309 313 307 306 305 304 303 302 300 300 299
297 296 296 295 295 294 294 294 294 294 294 294 295 295 296 297 298 299 306 305 307 308 313 311 311 309 308 307 307 309 309 311 313 315 317 316 313 313 315 314 313 309 307 307 305 305 307 307 305 301 301 300 298 296
296 296 295 295 294 294 294 293 294 294 294 295 296 297 298 298 299 300 304 306 305 310 311 310 311 311 308 313 312 310 313 312 313 314 312 315 312 312 316 314 312 306 304 304 304 304 306 302 301 300 299 298 298 296
296 296 296 295 294 294 294 293 293 294 295 295 297 299 299 300 303 306 309 309 310 310 311 309 310 310 308 311 310 310 310 316 310 314 313 311 315 316 314 312 310 306 307 304 300 301 302 302 300 299 298 298 297 295
296 296 296 295 295 295 294 293 293 294 294 295 296 301 305 301 301 307 309 310 307 307 308 312 307 311 308 311 310 311 308 312 313 312 307 310 312 311 309 308 307 304 302 301 303 301 300 299 299 298 298 297 296 295
295 296 295 295 295 295 294 293 293 294 294 295 296 297 296 299 304 308 308 309 308 309 309 309 306 309 305 311 313 307 308 307 312 307 312 312 311 306 302 304 304 301 300 302 302 300 302 301 299 297 296 295 294 293
296 296 295 295 295 294 292 293 293 293 294 295 295 294 294 299 304 307 307 306 308 311 308 311 308 306 305 304 306 306 307 306 310 301 309 311 304 300 300 303 302 300 300 301 300 299 298 297 297 295 294 293 291 290
295 295 295 295 295 292 293 293 293 294 294 294 295 295 299 302 307 309 311 309 309 304 305 305 306 305 304 303 302 303 311 311 301 304 308 303 298 298 298 298 298 298 298 297 296 295 295 294 295 294 292 291 290 288
295 295 295 295 291 293 294 293 292 293 293 295 298 300 299 305 305 305 304 304 299 299 303 305 304 305 305 306 306 311 304 302 302 304 304 298 296 298 297 296 297 296 295 294 294 294 294 294 293 292 291 290 289 287
295 295 294 291 292 294 293 292 292 293 293 295 297 300 302 300 299 298 297 298 298 300 301 303 302 304 303 305 301 301 304 305 303 305 298 291 289 290 296 295 294 293 293 293 294 294 293 293 292 291 290 289 287 285
295 294 290 291 293 293 291 291 292 293 292 294 294 296 300 299 300 296 297 299 298 302 299 301 303 305 306 301 300 300 301 303 305 295 289 282 292 293 293 293 292 293 293 293 293 293 292 292 290 287 286 286 285 285
294 293 291 293 292 290 291 291 292 293 295 294 297 296 297 297 298 297 299 299 301 301 305 303 306 307 295 290 296 295 300 301 292 286 283 284 288 291 290 291 291 292 292 292 292 291 289 287 287 286 284 282 283 283
293 293 293 293 290 290 291 291 291 291 293 291 292 286 293 294 296 297 297 297 299 301 298 303 297 294 296 296 296 295 289 283 287 284 286 287 287 288 289 289 290 290 289 289 288 287 288 288 286 283 281 281 281 281
294 294 293 289 289 290 286 290 290 291 290 291 292 292 293 294 294 295 296 296 296 296 297 298 299 296 297 292 290 285 280 286 290 291 288 287 288 288 288 287 287 287 287 287 288 288 286 286 283 282 281 281 280 279
294 291 289 288 288 288 286 280 286 290 290 283 289 291 290 292 292 294 295 294 295 297 300 301 301 295 293 292 288 288 287 287 289 290 288 286 285 285 286 287 287 285 284 284 284 283 282 281 281 281 281 280 280 280
291 289 288 287 288 286 285 287 282 286 289 289 286 284 289 286 294 295 296 294 297 300 299 294 293 291 289 288 289 288 289 288 290 290 289 284 285 285 285 285 285 286 285 285 284 284 283 281 280 282 281 280 279 279
289 288 287 285 280 277 278 286 284 281 287 288 284 277 288 289 281 289 290 294 288 285 284 284 285 285 287 288 288 288 289 290 290 289 289 288 286 285 286 286 286 285 285 286 284 282 280 280 280 280 279 278 279 279
288 286 284 281 279 277 279 277 279 280 282 280 274 278 278 281 284 285 287 286 283 282 281 281 280 281 282 286 288 288 289 289 287 287 288 285 286 286 286 286 286 284 283 281 281 281 280 281 280 279 278 278 278 278
286 280 280 279 275 277 276 274 278 275 274 277 275 279 278 278 280 282 284 281 281 280 279 278 278 280 284 287 287 286 286 288 286 286 286 286 285 284 286 285 285 285 283 281 281 281 280 279 280 278 278 277 276 275
283 279 276 276 269 275 275 274 271 277 279 274 278 277 278 278 282 281 281 278 279 278 277 276 276 277 279 283 285 285 285 286 286 285 286 285 283 283 282 282 282 282 282 281 280 280 279 278 278 277 277 277 275 274
281 275 276 275 272 277 277 278 275 276 274 275 275 274 272 280 280 281 280 276 274 276 276 275 274 275 276 279 281 283 283 283 285 284 283 284 284 284 283 282 281 281 282 282 281 279 278 278 277 277 277 276 276 275
279 277 279 280 279 278 278 278 278 276 274 276 273 275 274 279 278 281 277 273 272 274 273 273 273 274 275 276 278 280 280 282 284 284 284 285 285 284 284 284 283 281 282 282 281 280 278 277 277 277 276 276 275 275
281 279 279 275 276 272 275 274 273 276 276 277 278 276 276 278 280 273 271 273 272 271 272 273 275 275 276 277 278 278 278 279 281 281 281 282 283 284 285 285 284 283 283 282 281 281 280 279 278 277 276 275 274 274
278 277 278 273 271 271 273 276 276 275 276 275 276 276 275 274 268 266 272 272 271 270 271 274 276 278 277 277 278 278 278 279 282 283 283 280 279 279 281 281 280 280 281 280 280 282 283 281 279 277 276 275 274 273
277 274 275 268 274 277 272 270 270 267 270 271 272 271 271 269 272 272 272 271 270 269 271 272 275 277 278 278 278 278 279 281 283 283 282 281 277 277 278 279 279 280 281 281 278 278 277 276 275 275 274 273 272 272
274 271 271 271 271 266 265 267 268 271 264 263 263 267 269 266 270 272 271 271 272 273 274 275 276 275 277 277 278 279 279 279 281 283 282 278 278 278 278 278 280 280 278 278 277 275 274 275 274 273 272 272 271 272
276 272 272 273 270 266 265 264 262 265 263 265 266 261 264 267 270 266 271 272 274 273 275 274 274 274 275 275 277 277 277 277 277 277 277 277 277 277 278 279 278 279 278 277 276 275 275 274 273 272 272 271 271 271
268 265 262 264 267 268 267 266 266 265 265 264 265 264 263 268 273 268 271 271 272 271 272 273 274 274 275 275 276 276 276 276 276 277 278 278 278 279 279 279 278 277 277 276 275 274 274 273 273 272 271 271 271 270

GFSWCAN_925_thetae_033.txt.gz
Theta_e
295 296 297 297 298 298 298 298 298 298 298 297 298 296 296 298 301 300 301 305 306 309 311 310 311 312 312 311 314 311 312 312 313 317 316 319 318 318 317 315 317 319 321 323 320 320 318 310 311 315 311 308 309 309
295 296 297 298 298 297 297 297 298 297 297 297 296 295 296 298 300 300 301 301 305 311 310 311 311 310 311 310 311 311 313 313 315 316 313 317 317 316 312 316 312 317 315 317 315 315 311 310 311 309 306 307 306 306
295 297 297 297 296 296 296 296 297 297 297 296 295 295 296 297 298 299 300 300 306 310 310 309 310 311 310 311 311 313 311 312 313 311 315 315 318 315 318 314 313 312 310 315 317 315 312 310 309 304 303 303 301 301
296 297 297 297 296 295 295 294 294 294 294 294 294 295 296 296 297 298 298 299 300 308 312 310 309 309 310 311 311 311 311 311 311 312 313 317 317 310 312 312 312 311 311 314 313 312 310 309 307 304 302 301 299 297
296 297 296 296 296 295 294 294 294 294 294 295 294 294 295 296 296 297 298 301 303 308 314 313 309 308 308 310 311 311 311 311 312 316 317 319 315 312 310 308 309 307 313 315 316 312 311 308 305 303 303 301 299 298
296 296 296 296 296 295 294 294 294 294 294 294 295 295 295 296 296 298 304 306 305 307 312 314 309 308 307 308 309 310 310 311 312 315 317 316 312 314 316 316 312 308 306 309 313 307 305 304 303 302 301 300 299 297
296 296 296 296 295 295 294 294 294 294 294 294 295 296 296 297 297 298 305 303 304 304 312 311 311 309 308 307 308 310 310 311 312 315 316 316 313 314 316 315 312 309 307 306 305 304 307 305 305 301 300 299 297 295
296 295 296 296 295 295 295 295 294 294 294 295 295 297 298 298 298 299 302 305 302 305 310 310 310 310 308 312 312 310 313 312 313 314 313 315 312 312 316 312 311 307 305 304 304 304 305 301 300 299 298 297 296 295
296 295 296 296 295 295 295 295 293 294 294 295 297 299 299 299 301 304 306 308 307 309 310 309 308 308 308 311 309 310 310 315 311 314 314 311 315 315 315 312 310 305 306 305 301 301 302 301 300 299 298 298 296 294
296 295 295 296 295 295 295 294 293 294 294 295 296 299 304 300 300 304 307 309 307 307 307 311 304 308 307 311 311 310 308 312 313 312 307 311 314 311 310 308 307 306 303 301 302 301 300 300 299 298 298 297 295 293
295 295 296 295 295 295 293 293 294 293 293 294 296 297 296 299 303 307 307 309 309 309 309 308 304 307 303 309 312 306 308 306 313 308 311 311 311 306 301 302 303 301 300 302 303 301 302 301 299 297 296 294 293 291
295 295 295 295 295 295 293 294 293 293 294 294 294 294 295 300 304 307 307 306 309 310 306 310 308 304 304 302 304 304 307 307 311 301 309 310 305 301 299 301 301 299 300 301 300 299 299 298 297 296 294 292 291 289
295 295 295 295 295 293 294 294 293 293 293 294 295 296 299 301 306 309 310 310 303 302 303 304 307 306 303 302 302 303 310 310 302 307 307 303 299 298 297 298 298 298 298 297 296 295 295 295 295 293 291 290 289 288
295 295 295 295 293 294 294 292 292 293 293 295 296 296 294 304 305 303 303 301 298 299 302 305 304 305 305 306 305 311 304 303 306 306 302 297 295 297 296 296 297 296 295 295 294 294 294 294 292 291 291 290 288 286
295 295 295 292 293 294 292 291 292 293 293 294 295 295 296 300 298 298 297 298 296 299 301 303 302 303 303 305 302 303 305 307 305 304 298 290 288 288 296 295 294 293 293 293 293 293 292 291 290 289 289 288 286 285
295 294 291 291 293 292 290 291 292 293 292 294 295 293 296 298 299 295 290 297 295 300 299 300 304 305 307 298 304 306 301 303 304 297 289 282 291 293 294 293 292 292 292 292 293 292 291 290 289 287 286 285 285 284
295 294 291 293 293 289 291 291 292 293 295 294 296 294 296 293 295 295 298 298 298 301 305 303 306 309 295 291 295 295 300 300 293 286 283 283 286 292 291 291 291 291 291 291 292 291 288 287 286 286 283 282 283 283
294 293 293 294 290 289 290 291 291 291 293 292 293 285 293 292 293 295 295 297 298 299 299 303 297 298 295 296 296 295 289 283 289 287 286 286 287 288 289 290 290 290 289 289 288 288 287 287 286 283 281 281 281 281
294 294 294 291 288 289 281 287 289 290 290 291 291 291 291 292 292 292 293 294 295 294 296 298 300 301 297 290 289 289 285 287 290 290 287 286 287 288 287 287 287 286 286 287 288 289 287 286 284 283 282 282 281 280
294 293 291 288 288 288 284 280 286 289 289 284 288 289 290 290 289 291 293 294 295 296 299 300 301 294 292 289 288 290 288 287 288 290 289 287 285 284 284 286 287 285 284 284 284 284 283 283 282 282 282 281 281 280
292 289 288 287 287 286 285 286 281 286 288 289 288 286 287 286 286 288 295 292 296 298 298 290 289 286 285 286 287 288 289 288 288 289 291 285 285 284 283 284 284 285 285 284 284 285 284 283 281 283 282 280 279 279
290 288 287 285 280 277 282 285 283 281 283 285 284 277 286 288 287 284 288 289 286 281 283 282 283 282 282 283 285 285 287 288 289 288 289 288 285 284 284 284 285 284 284 284 285 283 281 281 281 280 280 279 279 279
288 287 284 281 280 277 278 276 279 281 282 279 271 277 275 276 278 278 281 278 277 278 280 280 279 279 280 281 284 287 288 288 288 288 288 286 286 286 285 285 285 284 284 283 282 281 280 281 280 279 279 278 278 278
286 280 281 280 277 277 276 273 277 274 273 276 282 276 276 273 277 276 281 276 275 277 278 277 277 278 280 281 284 285 285 285 287 286 286 286 285 284 285 285 285 285 284 282 282 282 281 280 280 278 279 278 276 275
284 280 278 278 269 275 276 275 271 276 278 272 281 277 275 275 278 274 278 276 273 273 273 274 275 276 277 278 280 281 282 283 285 287 285 286 283 283 283 283 283 283 282 282 281 281 280 279 279 278 278 277 275 274
283 277 278 277 272 277 276 276 274 275 273 274 276 272 269 276 279 279 279 275 271 270 270 270 273 274 276 277 278 278 279 280 280 284 284 284 284 284 283 283 282 281 283 282 282 280 279 279 278 278 277 277 277 275
282 280 278 279 278 277 278 277 278 276 272 277 273 274 272 279 275 279 274 271 270 273 273 272 271 273 274 275 276 276 278 279 279 282 284 284 284 285 284 284 284 282 282 282 281 281 280 278 278 278 277 277 276 276
282 280 280 276 276 272 275 274 273 276 276 277 277 276 277 278 281 275 272 274 274 272 272 272 273 273 274 275 276 277 278 278 279 280 282 283 284 284 285 285 284 283 282 282 281 280 279 279 278 278 277 276 275 276
278 276 278 272 271 271 273 276 276 275 276 276 277 276 275 275 269 267 273 273 272 271 269 269 273 274 275 277 278 278 278 278 279 281 282 280 280 280 282 283 282 282 282 281 281 281 281 281 280 280 278 276 275 274
277 273 274 269 276 277 273 270 269 266 270 270 271 271 271 270 272 273 272 272 272 269 270 270 272 272 274 276 278 279 278 278 279 280 283 281 280 280 280 280 280 280 280 279 279 279 279 278 276 276 275 273 273 273
274 270 271 271 272 266 265 265 266 270 264 262 262 267 270 267 270 272 271 272 272 273 273 273 273 275 274 274 276 277 279 279 280 281 282 281 279 279 279 279 279 279 279 279 277 277 275 274 275 274 273 273 272 273
275 271 273 273 270 265 263 263 262 264 262 264 265 261 264 266 270 267 272 272 273 271 273 273 272 273 274 274 275 276 277 277 278 279 278 278 278 278 279 279 279 278 277 277 277 276 276 274 273 273 272 272 272 272
266 264 262 265 267 268 266 265 266 265 264 264 265 264 262 268 274 269 271 271 272 272 272 273 274 275 276 276 276 276 276 277 277 277 277 277 277 277 277 277 277 278 279 276 274 275 275 274 273 273 272 271 271 271

GFSWCAN_925_thetae_036.txt.gz
Theta_e
295 295 296 297 297 297 296 296 297 297 297 297 297 296 296 297 299 299 300 302 302 311 312 311 312 313 313 314 314 312 313 312 314 316 318 316 317 319 319 318 320 320 321 323 322 323 323 314 318 320 316 313 312 312
295 295 297 297 297 296 296 295 295 295 296 295 295 295 295 296 298 298 300 299 301 306 313 311 311 310 311 311 312 311 312 312 312 315 315 317 318 319 318 321 315 320 319 321 319 320 316 314 315 313 310 310 310 309
295 295 297 297 297 296 295 295 294 294 294 294 294 295 296 296 296 297 298 298 302 311 312 312 312 310 311 311 310 313 310 312 312 312 316 316 319 318 321 320 318 316 314 320 320 319 317 314 311 308 307 307 305 305
295 296 297 297 296 296 295 295 294 294 294 294 294 295 294 295 296 297 297 297 299 303 313 312 309 310 310 311 311 310 311 310 311 312 316 317 318 315 319 317 318 318 315 318 319 318 317 312 310 307 305 303 302 301
295 296 296 297 296 296 295 295 295 294 294 294 294 294 294 295 296 296 297 298 299 303 313 313 309 308 309 309 310 311 311 311 312 313 315 316 317 314 315 314 318 314 318 319 321 316 315 312 308 305 305 302 300 300
294 296 296 296 296 296 295 295 295 295 294 294 294 295 295 296 296 297 304 302 302 303 310 314 309 308 308 309 309 310 310 311 312 315 316 316 314 316 320 318 317 314 312 314 317 310 309 308 306 304 303 301 299 298
295 296 296 295 296 296 295 295 295 295 294 294 295 296 296 296 296 297 304 302 302 302 310 313 313 310 308 308 309 310 310 311 312 314 316 317 315 316 319 319 317 314 313 311 309 309 310 307 308 303 301 299 297 295
295 296 296 295 296 296 295 295 295 294 294 295 296 297 297 297 297 298 300 302 304 304 310 313 312 311 308 312 312 309 312 312 312 314 313 316 313 313 318 318 316 313 310 309 308 307 307 305 302 301 298 297 297 295
295 296 296 296 296 296 295 295 294 294 294 295 296 298 298 298 299 302 304 305 305 307 312 310 313 315 309 312 310 311 311 315 311 315 315 311 316 318 318 317 315 313 311 309 305 305 304 304 302 300 299 298 297 294
295 296 295 296 296 296 295 294 294 294 293 295 297 300 304 300 299 303 305 308 308 308 310 312 308 312 310 312 313 312 310 313 313 312 308 312 316 316 315 312 310 309 307 304 305 304 303 301 301 300 300 299 297 295
295 296 295 295 296 295 295 294 294 293 293 294 296 297 296 300 303 306 307 309 309 310 311 310 309 311 307 312 314 308 311 308 316 311 312 315 315 311 305 305 305 306 305 305 305 305 303 303 302 301 298 296 295 293
295 295 295 295 296 295 294 294 294 292 293 294 294 294 295 301 305 307 307 306 309 311 309 310 310 308 307 306 310 307 312 309 313 305 310 313 311 305 302 303 303 303 304 303 303 304 303 302 300 299 296 294 293 290
295 295 295 295 295 294 294 294 292 292 293 294 296 297 300 302 308 309 310 310 309 303 304 305 308 307 306 306 305 309 312 311 305 309 310 311 306 301 300 301 301 301 302 301 300 301 300 299 297 296 294 292 290 289
295 295 295 295 294 293 294 292 292 293 293 296 298 299 301 305 305 304 303 304 301 300 302 305 306 307 306 308 308 313 307 305 310 310 312 308 301 298 299 299 300 300 299 299 299 298 298 297 295 294 292 291 290 288
294 295 295 294 292 294 291 290 292 293 293 295 297 300 300 300 299 299 297 299 300 299 302 304 304 305 305 308 305 306 309 311 309 312 310 303 296 294 299 299 299 298 298 297 297 297 296 294 293 292 291 290 289 287
295 294 293 291 293 292 289 291 292 293 293 295 296 298 298 298 300 297 296 299 299 301 300 301 305 307 309 308 308 311 309 310 312 307 302 294 295 296 297 296 296 296 296 296 296 295 294 293 292 290 288 287 287 286
294 294 291 292 293 289 290 291 292 293 295 295 297 293 295 295 296 296 297 297 297 299 305 303 306 311 300 303 306 305 306 307 301 299 294 292 293 295 295 294 294 294 294 294 293 293 291 289 288 288 286 285 285 284
294 293 293 293 292 289 290 290 291 292 294 293 294 293 293 292 293 294 294 295 298 298 300 303 298 303 305 306 306 300 296 293 292 292 291 292 292 292 292 294 293 293 293 292 290 288 288 288 289 286 284 283 282 282
293 294 294 293 289 289 286 287 289 291 291 291 291 291 291 291 292 292 292 293 294 295 296 299 301 304 303 296 294 293 292 292 292 291 291 290 289 291 291 290 289 289 289 289 289 289 289 288 286 285 283 284 283 282
294 294 292 290 288 287 284 285 287 289 289 289 289 289 289 289 290 290 292 293 294 296 298 300 300 295 292 290 289 289 289 290 290 292 294 293 288 286 288 289 290 288 287 287 287 286 285 284 284 284 284 283 282 282
293 291 289 288 286 285 285 287 285 287 288 288 288 287 287 286 288 289 293 292 296 297 299 289 287 285 284 284 284 286 287 288 289 290 291 292 290 287 286 286 286 287 288 288 287 287 286 285 284 284 284 283 281 280
290 288 287 285 282 280 284 284 284 284 284 286 286 281 285 287 289 290 287 290 292 286 284 284 284 282 282 283 283 283 284 285 288 289 290 291 289 287 287 286 287 287 287 287 288 286 284 283 283 281 280 280 280 280
289 287 284 281 281 280 280 278 283 283 285 284 278 283 284 284 284 281 290 285 283 281 281 281 280 278 279 279 281 284 286 286 287 288 289 290 288 287 287 286 286 286 287 286 285 283 282 282 282 281 280 280 279 279
287 283 282 282 280 280 278 277 279 279 279 283 284 284 281 282 281 284 289 284 282 280 280 278 277 277 278 279 281 282 282 282 284 285 287 287 288 287 286 286 285 286 286 283 283 283 283 281 281 280 280 280 279 277
287 284 281 279 274 278 279 279 277 281 280 276 283 281 281 277 284 283 285 284 279 279 278 276 275 276 276 276 278 279 279 280 281 281 282 285 286 285 285 285 285 284 283 283 283 282 282 281 280 280 279 278 277 276
286 280 280 282 278 280 280 280 279 280 278 279 280 277 275 281 282 285 283 282 279 277 276 275 274 274 275 276 277 277 278 278 278 280 281 284 285 286 286 285 284 283 283 284 282 282 281 281 280 279 279 279 278 276
285 282 280 279 279 278 279 279 279 279 277 279 280 279 279 280 281 283 280 276 277 274 275 274 272 272 273 274 274 275 276 277 278 278 279 280 281 284 285 285 285 284 283 282 282 281 281 280 279 279 279 279 276 276
285 283 284 281 279 276 279 277 277 279 279 279 280 278 280 281 284 281 278 276 276 275 274 274 273 272 271 272 273 274 276 277 278 278 279 280 281 283 284 285 285 284 283 283 283 282 281 280 280 279 278 276 276 276
283 279 280 276 274 276 277 279 279 278 278 279 281 280 279 277 275 274 274 274 273 272 270 271 273 273 273 274 275 276 277 277 278 279 281 283 282 282 283 284 284 283 282 282 282 281 281 280 279 278 278 277 276 276
281 278 279 276 279 280 277 273 273 269 272 272 273 274 274 274 273 274 273 272 271 271 272 271 271 270 270 272 274 275 277 278 278 279 280 283 282 282 282 282 282 281 282 281 281 281 281 278 277 276 276 275 274 274
275 276 275 275 276 269 267 266 267 270 266 267 265 271 274 271 271 272 271 272 272 272 271 271 272 273 272 272 273 274 275 278 278 278 278 279 281 281 281 281 281 281 280 280 280 278 276 275 275 275 273 272 273 273
277 276 277 275 272 265 265 265 265 267 266 267 269 264 268 271 274 273 272 272 271 270 273 273 270 272 274 275 275 275 275 276 276 277 279 280 280 279 280 280 280 280 279 278 277 275 276 275 274 273 272 273 273 272
270 268 266 268 267 268 267 267 267 268 266 266 268 267 267 271 276 272 272 272 272 273 273 273 274 275 276 277 278 277 277 276 277 278 278 278 278 279 279 279 278 278 276 276 275 276 276 275 273 273 273 273 272 272

GFSWCAN_925_thetae_039.txt.gz
Theta_e
296 296 296 297 298 297 296 296 295 295 295 295 295 295 296 297 297 298 299 301 301 305 312 312 313 314 314 315 315 314 313 312 313 316 317 316 316 317 317 318 320 320 321 321 320 323 324 316 319 322 319 315 314 313
295 295 296 296 297 297 296 296 295 295 295 295 294 295 296 296 296 297 299 298 299 303 313 311 312 311 312 312 314 313 314 313 313 314 314 316 317 318 318 319 317 321 318 324 322 322 319 319 318 315 312 312 312 311
295 295 295 297 297 297 296 296 295 295 295 295 295 295 295 295 296 297 298 297 299 308 313 313 313 312 311 312 311 314 311 312 312 313 316 316 319 319 319 318 319 318 317 319 320 320 320 319 316 312 309 308 307 308
295 295 296 297 296 297 297 296 296 295 295 295 295 295 295 295 295 296 297 297 298 302 312 314 310 312 310 310 311 311 311 310 311 312 315 316 318 317 319 318 319 319 318 319 320 319 318 314 312 310 307 305 304 304
295 295 295 297 296 297 297 296 296 295 295 295 295 295 295 295 295 296 297 298 298 301 310 314 312 309 309 309 311 311 311 311 312 314 314 316 316 317 317 317 318 317 318 318 319 317 317 314 310 308 307 303 303 303
295 295 295 297 296 296 296 296 296 296 295 295 295 296 296 296 296 297 304 301 300 300 307 315 311 310 309 310 310 311 311 310 311 313 315 316 316 317 320 319 316 317 316 316 317 313 312 310 307 306 304 302 301 300
295 294 296 297 296 296 296 296 296 295 295 295 296 296 297 296 297 297 303 300 301 299 308 314 315 311 310 309 309 310 310 311 311 312 315 316 317 316 318 319 317 316 316 315 314 312 313 310 310 304 301 300 299 298
294 295 296 296 296 296 296 296 296 295 295 295 296 298 297 297 297 298 299 301 301 303 308 314 314 313 310 313 313 311 312 311 312 314 314 316 315 315 318 318 317 317 316 314 313 311 311 308 304 301 298 298 297 296
294 295 296 296 296 296 296 296 295 295 294 295 298 298 298 299 300 302 302 303 304 306 313 311 314 317 310 313 312 312 312 315 311 314 315 312 316 319 318 318 317 317 314 314 310 308 307 306 303 300 300 299 298 296
295 294 296 295 296 296 296 295 295 295 293 296 299 302 304 301 300 303 304 307 309 309 310 312 311 314 312 313 315 314 311 314 313 312 308 312 315 316 316 316 315 313 311 308 308 306 306 304 303 302 301 300 298 296
294 294 296 295 296 296 296 295 295 293 295 297 299 300 297 301 303 306 307 311 310 310 312 311 310 313 309 313 315 311 313 311 316 311 312 316 316 315 308 307 307 307 310 308 308 308 306 305 304 303 301 299 297 295
294 295 295 295 295 295 294 295 293 293 294 294 294 295 297 302 305 308 308 308 308 312 310 311 310 309 311 309 311 310 313 311 315 307 310 314 314 307 304 304 304 305 307 307 306 306 306 304 303 302 299 297 295 293
294 295 295 295 295 295 294 293 291 293 293 295 297 299 303 304 308 310 310 311 310 305 303 304 310 308 308 308 308 311 312 313 307 310 312 312 310 303 302 303 304 303 304 303 303 304 305 303 301 299 297 295 292 290
294 295 295 295 295 294 294 289 292 293 295 298 299 304 305 306 305 306 306 306 303 302 303 304 306 308 308 310 309 313 310 307 312 312 313 313 305 299 300 302 303 303 302 302 301 301 301 300 299 297 295 292 291 290
294 295 295 295 293 293 290 290 292 293 295 298 299 303 301 301 301 300 298 299 301 301 302 305 305 305 308 308 308 309 311 311 311 314 314 305 299 298 300 301 302 302 302 301 300 300 300 298 296 295 293 292 291 289
295 295 293 292 293 292 289 291 292 293 293 298 297 299 299 300 302 300 297 300 300 300 301 301 306 308 310 311 308 310 310 312 314 307 303 299 298 298 299 299 299 299 299 299 299 299 297 296 295 294 292 291 289 289
295 294 291 292 293 290 290 292 292 295 294 297 297 295 297 297 298 298 297 296 296 300 305 305 308 310 303 308 308 308 309 306 299 298 297 296 295 294 294 296 296 296 297 298 297 296 296 294 292 291 290 289 287 286
295 293 293 293 293 289 290 290 292 293 295 296 296 296 294 294 294 296 295 295 297 298 299 303 299 305 308 310 311 302 298 296 296 296 295 295 294 294 294 295 295 294 295 295 293 291 291 290 291 290 287 286 285 284
294 294 293 293 291 289 291 290 290 292 293 293 292 293 292 292 292 293 292 293 294 294 296 299 302 304 305 299 297 295 292 292 292 293 293 295 294 292 291 291 291 292 292 291 291 291 291 291 288 286 285 286 285 284
295 294 294 292 289 289 289 289 288 291 292 291 290 290 290 290 290 290 291 293 294 296 298 298 300 297 294 291 289 289 289 290 290 292 294 296 294 291 291 290 292 291 291 291 290 290 287 286 286 286 286 285 284 284
294 292 291 289 287 287 289 288 288 289 289 290 289 288 288 288 288 290 293 293 295 296 297 296 292 289 286 285 285 286 287 288 289 290 291 291 292 292 291 290 289 290 290 290 290 289 288 287 286 286 286 285 284 283
291 289 287 286 286 285 287 285 288 286 287 288 288 285 287 289 290 291 287 290 292 295 290 289 287 286 285 285 284 283 283 284 286 287 289 290 291 292 292 290 289 290 290 290 290 289 287 286 286 286 284 283 282 282
289 288 285 284 286 286 284 281 287 285 288 288 284 288 288 287 288 284 289 291 290 286 285 284 283 280 280 280 281 282 283 285 286 286 287 288 289 290 290 289 288 290 290 289 289 286 285 285 285 283 283 282 282 281
287 286 288 287 286 286 281 284 284 285 284 287 288 289 287 288 284 288 291 291 288 284 283 282 281 281 282 281 282 283 282 282 282 283 284 284 286 288 289 289 288 288 288 287 285 284 284 284 284 283 282 281 281 280
290 287 285 286 280 283 285 284 284 286 288 285 287 286 286 282 289 289 289 290 286 285 284 282 280 280 280 280 281 281 280 280 281 281 281 281 283 285 287 287 287 287 287 284 284 284 284 283 283 282 282 281 280 279
290 285 285 287 284 285 285 284 283 285 286 284 284 283 282 287 287 287 288 289 287 285 283 282 281 280 280 279 279 279 279 278 278 279 279 280 282 283 286 287 286 285 284 285 284 284 283 283 282 282 281 281 280 278
290 288 282 281 282 281 282 282 283 284 284 284 285 284 285 285 287 288 286 283 284 282 280 279 277 277 278 277 277 277 276 276 277 277 278 278 279 279 280 283 286 286 285 284 284 284 283 282 282 281 281 281 279 278
288 285 285 283 282 280 283 283 283 283 285 283 285 283 284 286 287 288 285 280 280 278 277 276 275 274 274 274 274 274 274 275 276 277 277 278 279 280 280 281 283 285 285 284 284 283 282 282 282 281 281 279 278 278
285 282 283 281 280 281 282 284 284 283 282 283 286 286 284 283 282 282 278 276 276 274 274 275 276 274 274 274 274 275 275 276 278 278 278 279 281 283 283 283 284 284 284 283 283 283 282 282 281 281 279 278 277 277
284 284 284 281 281 283 282 278 279 275 275 276 276 278 279 279 278 277 276 274 272 274 275 274 273 271 272 273 274 274 275 276 277 278 279 280 281 282 282 282 283 284 283 283 283 283 283 282 280 277 277 276 276 276
280 281 281 282 283 276 272 270 271 273 273 274 271 276 279 276 275 275 273 272 273 272 272 273 274 274 273 273 274 275 275 276 277 277 277 277 278 279 280 281 282 283 283 282 282 282 280 276 276 276 276 275 275 275
281 282 282 281 279 270 270 272 273 275 274 274 277 270 274 276 279 280 273 272 271 273 274 275 274 274 275 275 275 275 275 276 276 276 276 276 277 279 280 281 281 282 281 281 279 277 277 277 276 276 275 275 275 275
274 274 273 275 275 275 272 274 275 275 274 275 275 272 273 275 279 278 273 273 273 274 274 274 274 275 276 276 277 277 278 279 279 278 279 279 279 279 280 280 281 280 279 278 277 277 277 276 275 275 275 275 273 273

GFSWCAN_925_thetae_042.txt.gz
Theta_e
297 297 296 296 296 298 298 297 296 296 295 295 295 295 295 296 296 297 298 300 300 304 307 312 313 314 313 314 314 313 313 313 313 316 316 316 314 315 315 319 317 317 319 319 315 318 317 317 318 321 316 313 312 313
297 297 296 296 296 298 297 297 297 296 296 295 295 295 295 296 296 297 299 298 298 301 308 311 312 311 312 312 314 312 314 312 313 314 314 315 317 315 316 318 316 319 317 320 317 316 315 316 317 311 309 310 309 310
297 296 295 296 297 298 297 297 297 296 296 296 295 295 295 295 295 296 297 298 298 306 312 313 313 312 311 312 312 314 312 311 312 312 315 315 316 316 319 316 317 316 315 317 319 318 318 313 312 308 306 305 305 308
296 296 295 295 296 297 296 297 297 296 296 296 296 295 295 295 295 296 297 298 298 302 311 314 311 311 310 311 311 311 310 310 311 312 314 315 317 316 317 316 317 317 316 317 317 316 315 312 309 308 305 304 304 304
296 296 295 295 296 298 296 296 296 296 296 296 295 295 295 295 295 296 296 298 298 302 309 312 312 309 309 310 311 311 310 311 311 313 313 314 314 315 314 315 316 314 316 316 315 315 315 312 308 307 304 303 302 302
296 296 295 295 296 297 297 296 297 296 296 295 296 296 297 296 295 296 301 300 300 299 305 313 311 309 309 310 311 311 311 311 311 312 313 313 313 315 315 317 315 313 313 313 314 311 310 307 305 304 302 301 300 299
296 295 295 295 296 297 296 296 296 296 296 296 296 297 297 296 295 297 302 300 301 300 307 311 314 310 310 309 309 310 310 310 311 311 312 314 315 314 316 317 314 314 313 315 313 310 311 308 306 300 299 299 298 297
296 295 295 295 296 296 296 296 296 296 295 295 297 297 297 296 297 298 299 300 300 302 306 311 311 312 310 313 312 310 311 310 310 312 313 315 313 315 317 315 314 314 314 313 312 310 308 304 300 298 297 296 296 295
295 295 295 295 297 295 296 296 296 295 295 295 298 297 297 299 300 301 301 302 303 304 310 310 311 314 309 312 312 311 311 313 310 313 314 312 315 317 315 315 315 312 314 312 307 306 304 302 299 298 297 297 296 294
294 294 295 294 296 296 296 296 295 295 294 296 299 301 304 302 300 301 302 306 306 308 308 311 311 313 311 312 313 313 311 313 312 311 307 311 314 312 311 310 308 311 310 306 307 304 301 299 299 299 299 298 295 294
295 295 295 295 295 295 296 295 295 293 296 297 299 301 299 301 303 306 307 310 310 309 311 310 309 312 308 312 314 310 311 308 312 310 311 313 315 312 304 303 303 304 304 306 307 307 303 302 302 300 299 296 294 293
295 295 294 296 295 295 295 295 294 293 294 294 294 296 298 302 305 307 308 307 308 311 308 310 309 308 309 307 310 309 310 308 313 306 310 312 311 305 301 301 302 302 303 306 306 306 304 303 302 301 298 295 293 290
295 295 294 296 295 295 294 294 291 293 294 295 297 298 303 304 308 309 311 310 309 305 303 303 308 307 307 307 307 307 311 312 306 309 311 309 302 299 298 300 301 301 302 302 303 304 304 302 301 298 296 294 290 289
295 293 294 295 295 295 293 291 291 293 295 298 298 300 303 306 306 306 306 305 302 302 303 304 305 307 307 308 308 308 309 306 310 310 309 305 299 298 298 299 301 301 301 301 301 301 300 299 298 296 294 291 290 289
295 294 294 295 295 294 292 289 292 294 295 297 297 301 302 301 300 299 297 300 300 300 302 304 302 304 305 306 306 307 309 309 309 307 306 298 296 295 297 297 298 298 298 299 300 299 298 297 295 293 292 291 290 289
294 294 294 294 293 292 290 291 292 293 293 295 295 299 299 301 300 299 297 300 298 299 300 300 305 307 303 306 307 309 309 309 308 298 294 294 294 294 294 294 295 295 296 297 298 298 297 295 293 292 291 289 288 288
294 294 293 291 293 292 290 292 292 293 294 294 296 296 297 298 299 297 297 297 296 299 304 303 308 308 303 307 307 307 308 302 295 292 290 291 291 292 291 293 294 294 295 296 296 296 296 295 292 290 288 288 288 287
295 294 293 293 293 289 290 290 290 292 293 295 295 295 294 294 295 295 295 295 296 297 298 302 298 304 306 309 307 299 295 292 288 289 290 290 291 291 291 290 290 291 292 292 292 292 292 291 288 287 287 285 285 285
294 294 293 293 293 289 291 290 289 292 294 293 293 292 293 293 293 293 292 292 293 294 295 297 300 303 303 297 296 293 290 290 291 290 289 290 292 291 290 290 290 291 291 291 290 290 290 290 289 287 285 285 284 283
294 294 294 293 290 290 290 289 288 291 292 291 291 291 291 290 290 290 289 291 292 294 296 296 298 297 294 290 287 287 287 287 288 290 289 290 290 290 290 290 289 290 290 291 291 290 288 286 287 286 285 285 284 284
293 291 292 291 287 288 289 289 289 289 290 290 290 289 289 287 287 289 291 292 292 286 288 291 291 287 285 286 286 285 285 285 285 286 287 287 288 289 290 291 290 289 289 289 287 287 287 286 286 286 287 285 285 284
291 291 288 287 287 286 287 285 288 287 288 288 287 285 286 285 287 288 288 290 291 287 287 287 284 283 283 283 282 283 282 282 283 284 287 287 288 288 289 290 290 283 287 288 290 288 288 287 286 286 285 284 283 283
289 289 286 286 288 287 285 283 287 286 289 288 284 285 284 286 288 284 287 288 285 283 284 283 281 282 279 281 281 281 282 282 282 283 284 284 284 285 286 287 289 288 287 289 290 289 287 286 287 285 284 282 283 283
288 288 289 288 288 287 282 284 285 286 286 287 287 285 283 282 280 287 288 286 283 280 280 278 279 278 279 277 277 278 282 281 281 281 282 282 281 282 283 284 286 288 288 288 289 287 286 286 285 284 283 283 282 281
290 288 287 286 281 282 285 284 285 286 287 286 286 284 281 279 282 282 282 282 280 278 278 277 275 276 273 273 277 280 281 280 279 278 280 280 280 280 280 282 285 286 287 287 285 285 285 284 284 283 282 282 281 280
291 286 286 285 280 283 285 286 285 286 286 282 283 280 278 281 281 281 282 280 279 280 280 279 277 275 277 278 276 275 279 279 278 276 277 278 278 279 281 280 280 282 286 286 285 284 284 284 283 282 282 283 282 280
291 287 282 281 282 282 283 283 284 285 284 282 282 279 280 280 279 281 280 278 279 283 285 284 282 277 276 278 279 278 277 277 276 276 277 277 277 277 277 278 278 280 282 285 285 285 284 284 283 283 282 282 282 279
287 283 283 282 282 282 284 283 283 284 284 283 284 280 280 281 281 279 277 282 283 282 281 280 279 278 277 277 276 275 275 275 275 275 275 276 277 278 279 279 279 279 280 282 284 285 284 283 283 282 282 282 279 279
284 283 284 283 282 282 282 283 283 283 281 281 282 282 281 279 276 275 279 279 279 278 276 275 276 277 276 275 275 275 275 275 274 275 275 276 276 278 279 281 282 282 282 284 285 284 284 283 282 282 282 280 279 278
285 284 285 282 284 284 281 278 278 274 275 275 275 275 275 274 279 279 279 277 275 273 275 276 276 274 273 272 272 273 275 275 275 275 276 276 277 279 279 279 279 280 282 284 284 285 284 283 283 281 279 278 278 278
283 284 284 284 283 277 272 270 271 273 272 270 268 271 273 271 274 277 276 275 275 274 274 273 274 274 274 273 272 271 273 275 276 276 276 276 276 276 276 277 278 280 282 283 284 284 284 282 279 278 278 277 278 277
282 282 282 281 278 270 268 269 271 272 271 270 270 267 269 271 273 273 275 273 272 271 273 275 273 274 275 274 275 275 275 275 276 277 278 278 277 277 277 278 279 280 282 283 283 282 279 278 277 277 277 277 275 275
275 276 276 275 272 271 270 270 273 272 271 271 272 270 269 271 275 272 274 274 275 275 275 275 275 275 276 276 275 275 276 277 278 280 281 281 280 280 280 280 280 281 282 281 279 278 277 277 277 276 276 275 275 276

GFSWCAN_925_thetae_045.txt.gz
Theta_e
298 297 297 297 297 297 298 299 297 297 296 296 295 296 295 295 296 296 296 299 298 304 305 309 312 313 312 312 311 311 313 312 313 315 314 314 313 313 315 317 315 315 317 319 318 317 315 311 315 320 314 311 310 312
297 296 297 297 296 296 298 298 296 297 297 296 296 295 296 295 295 296 297 298 298 299 305 307 310 311 311 311 312 309 311 311 313 314 313 311 314 312 313 319 313 318 314 316 313 313 310 313 315 309 308 308 308 309
296 296 296 296 296 296 297 297 296 296 296 295 295 295 295 295 295 295 296 296 298 302 308 310 312 312 311 311 311 310 309 309 309 309 312 314 314 312 315 313 316 315 314 317 316 316 314 312 307 306 305 305 305 307
296 296 296 296 296 296 297 297 296 296 296 296 295 295 295 295 295 295 295 296 297 299 309 313 311 311 310 311 311 311 309 310 310 311 312 313 315 313 316 314 315 312 314 315 315 314 312 310 308 305 303 303 303 304
296 295 296 296 296 296 297 298 296 296 296 296 296 295 296 296 295 295 296 296 297 299 308 309 308 309 309 310 311 310 309 310 311 313 313 314 312 311 309 311 312 312 314 316 316 312 313 311 307 304 302 302 302 301
295 295 295 296 295 295 297 297 295 296 296 296 296 297 297 296 295 295 299 301 299 298 305 312 309 308 309 310 310 311 311 311 311 312 313 312 311 315 315 316 313 310 310 311 312 310 309 306 304 302 301 300 300 299
295 295 296 296 295 295 297 296 296 296 296 296 296 297 296 295 295 296 301 300 300 300 305 310 311 309 309 309 308 309 310 310 310 310 311 312 313 314 314 314 311 310 310 312 310 308 309 305 305 299 299 298 297 295
295 295 296 295 295 296 297 295 296 296 296 295 296 297 296 296 295 296 298 299 299 301 305 309 309 309 309 312 312 309 311 310 310 311 311 312 312 312 317 312 312 312 311 311 309 308 307 300 297 296 295 294 294 293
295 295 295 295 295 296 296 296 296 295 295 294 297 297 297 298 299 300 301 301 302 303 309 309 310 311 308 310 311 310 310 313 309 311 312 311 315 316 312 312 311 311 310 309 305 302 300 299 297 295 295 295 294 293
295 294 294 295 294 296 295 296 295 295 294 296 299 300 302 301 300 301 302 305 305 305 307 311 308 311 308 311 309 313 311 312 310 311 308 311 313 312 303 302 302 303 303 305 308 303 298 296 296 296 296 295 295 293
294 294 294 295 296 294 294 295 295 291 296 297 298 300 299 300 301 303 307 309 308 309 310 310 307 310 308 310 313 309 309 307 312 309 310 309 313 304 299 298 300 300 300 301 303 306 302 300 299 298 297 295 293 292
295 294 294 295 296 295 295 295 294 292 293 293 294 295 298 302 304 307 307 305 308 309 308 310 309 307 307 306 309 308 309 307 312 306 310 311 307 299 298 297 299 299 300 301 304 305 303 301 300 299 296 294 292 289
295 294 294 295 295 294 294 294 291 293 294 295 297 297 302 302 307 309 309 309 309 304 302 303 307 306 307 306 304 305 310 311 305 308 311 307 299 297 296 298 298 299 300 301 301 303 304 302 301 298 295 293 289 288
294 295 294 294 295 294 294 292 290 293 295 297 298 299 302 305 304 305 304 303 300 300 302 303 304 307 306 306 306 308 308 305 308 310 308 302 297 296 295 295 296 297 297 299 299 300 301 300 298 296 293 290 289 288
293 294 293 295 295 294 292 290 292 294 294 296 296 299 301 299 299 297 297 298 298 299 301 303 302 302 303 304 303 305 308 308 308 308 301 292 293 293 293 293 294 295 295 296 297 298 297 296 294 291 290 290 289 288
295 293 294 294 293 292 290 290 292 293 290 294 292 298 299 300 299 298 297 299 296 298 299 300 304 306 306 305 307 308 308 308 306 296 289 288 291 291 291 291 292 293 294 295 296 297 296 294 292 290 290 289 288 287
294 294 293 292 292 292 290 291 292 289 288 293 294 295 296 296 296 297 297 297 296 298 303 302 307 307 303 306 306 305 306 300 294 287 286 288 289 289 288 289 290 290 291 292 293 294 295 293 291 289 287 287 287 287
294 294 293 293 293 290 290 290 289 290 292 293 294 294 294 294 295 295 295 294 296 297 298 302 298 303 305 308 303 298 295 292 286 286 287 287 288 289 289 288 289 289 289 290 290 290 291 290 287 286 286 286 286 286
294 294 293 293 293 289 288 288 289 291 289 292 292 291 292 293 292 292 292 292 292 294 294 297 299 302 301 298 297 293 284 285 288 288 288 288 289 288 288 289 289 289 288 289 289 289 289 289 288 287 285 285 284 284
293 294 293 293 291 289 287 286 288 288 289 289 290 291 291 290 290 290 290 291 292 291 293 295 298 295 293 289 285 284 284 286 286 286 286 287 287 287 287 289 290 289 288 289 289 289 288 287 287 286 286 285 284 284
294 292 292 291 288 288 286 286 286 285 288 288 287 289 289 287 287 287 288 287 291 286 283 287 290 287 283 284 285 284 284 283 283 283 284 282 284 287 288 288 289 289 288 287 286 287 289 286 287 286 286 285 285 284
291 291 289 287 287 285 285 284 285 285 285 285 286 286 286 286 286 287 284 290 291 284 285 285 282 282 282 283 281 284 283 282 281 281 284 285 283 281 283 285 286 287 288 288 287 286 288 289 287 286 286 285 284 284
290 289 287 286 287 284 283 283 283 282 286 283 283 285 284 285 285 285 287 287 284 281 282 280 279 282 279 281 281 281 281 281 279 281 281 281 281 281 282 283 283 284 286 287 288 288 288 289 288 286 285 284 283 283
289 289 289 288 286 286 280 279 282 282 283 285 285 287 284 283 282 285 287 284 283 278 279 276 277 276 276 275 274 276 282 282 281 280 280 280 277 279 280 280 280 281 282 283 285 287 288 287 287 286 284 283 283 283
290 288 285 283 277 279 278 280 281 285 286 287 287 285 281 280 280 279 284 282 276 275 275 274 273 273 272 268 274 279 281 281 278 276 278 279 279 278 277 278 278 280 282 282 285 286 286 286 286 284 283 283 283 281
290 285 284 283 278 280 280 283 284 285 286 286 285 280 279 282 281 283 283 278 276 276 276 278 277 272 274 276 274 272 280 280 279 276 277 277 277 276 273 277 278 278 279 280 282 285 285 285 285 283 283 283 283 281
289 283 283 282 281 282 282 283 283 284 285 285 281 282 282 282 283 283 279 277 278 281 285 285 282 277 278 278 280 280 279 278 277 277 277 276 276 276 276 275 275 277 278 279 279 282 284 284 284 283 283 283 283 281
285 282 282 279 280 281 282 282 282 282 283 282 283 284 284 283 285 280 278 281 284 284 284 284 284 283 282 280 279 277 277 277 276 275 275 276 277 277 277 277 277 278 278 279 279 280 280 284 284 283 283 283 283 281
281 280 281 280 281 282 283 283 283 282 282 283 284 283 282 281 276 274 280 280 281 281 279 278 279 279 278 278 277 277 276 275 272 272 272 274 274 276 277 277 278 279 279 279 280 282 282 283 284 283 283 282 281 280
280 281 281 281 283 284 281 278 278 276 276 276 276 277 277 276 278 279 280 279 277 276 279 279 278 276 276 274 273 274 276 276 274 273 273 274 274 276 276 276 276 277 277 278 279 282 283 286 285 284 282 280 279 278
283 283 282 283 282 276 273 272 272 274 272 272 270 274 276 274 274 278 278 278 277 276 275 274 274 274 273 273 270 266 271 276 276 275 275 275 275 275 276 276 276 276 276 277 279 282 283 285 284 280 279 279 279 279
281 283 283 282 278 271 271 272 273 273 273 271 272 267 269 271 273 273 276 274 273 272 274 274 272 275 276 275 275 274 274 274 274 275 276 277 277 279 279 279 278 278 277 278 280 282 284 281 279 279 278 278 278 277
275 274 276 276 275 272 271 273 272 272 270 268 268 267 265 270 276 273 275 275 275 276 276 276 276 276 276 276 276 275 274 275 276 275 277 278 280 282 281 281 280 280 279 280 282 282 280 279 278 278 278 277 276 276

GFSWCAN_925_thetae_048.txt.gz
Theta_e
298 298 298 298 297 297 297 298 299 297 296 296 296 296 295 295 295 296 296 298 298 302 303 306 311 311 311 311 312 312 312 312 312 314 314 312 312 311 314 314 313 313 313 316 315 317 313 309 313 319 314 311 310 310
298 297 298 298 297 297 297 298 299 297 297 297 296 295 296 295 295 295 296 296 297 298 302 303 306 308 310 310 311 309 310 310 312 313 312 309 311 310 311 320 312 314 311 314 314 312 308 310 313 309 307 307 308 309
298 297 297 296 296 296 297 297 299 296 296 297 296 296 296 295 295 295 295 295 297 300 305 306 310 311 311 311 311 312 310 309 308 307 309 310 312 310 313 312 314 312 311 315 314 314 311 310 308 306 305 305 304 306
298 297 296 295 296 296 296 297 298 296 296 296 296 296 296 295 295 295 294 295 296 298 305 312 310 310 310 311 311 310 309 309 308 309 312 312 315 312 314 312 314 312 313 315 314 312 311 310 308 306 304 303 303 305
298 297 296 296 296 295 296 297 298 296 296 295 296 296 296 296 296 295 295 295 295 297 306 309 307 309 309 310 310 310 309 310 311 312 313 314 312 311 308 309 310 310 313 315 316 313 312 311 307 304 302 302 302 302
298 297 296 295 295 296 296 296 297 295 295 295 296 296 297 297 296 295 297 298 296 297 302 310 308 308 309 310 310 310 310 310 311 312 312 312 310 314 314 315 310 309 308 310 312 310 308 306 304 301 301 301 300 299
297 296 295 296 295 296 296 297 295 295 295 295 296 296 296 296 296 295 300 299 300 298 304 309 309 309 308 309 308 309 310 310 310 310 311 312 312 312 313 314 310 310 311 309 308 307 309 304 306 300 299 298 298 295
297 295 296 296 295 295 296 296 295 296 296 295 295 296 296 296 295 295 297 297 298 300 304 309 308 308 308 311 312 309 311 310 310 310 311 312 311 311 314 312 309 308 308 307 304 304 304 300 297 296 295 294 293 292
296 295 295 295 294 295 296 296 295 295 295 295 296 296 296 298 298 299 300 300 300 302 308 309 309 309 309 310 311 310 310 313 309 310 311 311 314 314 304 301 302 303 304 305 304 301 300 300 297 295 294 293 292 292
295 295 295 294 294 295 295 295 295 295 293 296 297 299 302 300 300 300 301 304 304 304 305 310 307 310 308 310 310 312 311 313 311 310 308 311 313 305 300 298 297 299 300 301 304 303 297 295 295 295 294 294 293 292
295 294 294 294 294 296 295 295 295 291 295 297 297 299 299 299 300 302 306 307 307 308 308 309 308 308 306 308 310 308 309 307 312 309 310 309 311 302 297 296 296 297 298 299 299 300 302 302 299 297 296 295 294 292
295 293 294 293 294 296 295 295 294 291 293 293 294 296 298 300 304 306 307 305 307 309 308 309 308 307 307 306 309 307 309 307 311 306 309 311 306 297 296 295 296 296 297 299 300 301 302 302 300 298 297 294 293 291
294 294 294 293 294 296 294 294 292 292 294 295 297 298 301 303 306 308 309 309 308 305 303 303 306 306 306 306 305 305 309 311 305 307 309 307 299 296 295 294 294 295 296 297 299 301 303 301 299 297 295 293 290 288
294 294 294 294 294 296 295 293 290 293 295 296 295 302 303 305 304 305 298 302 301 300 302 303 304 306 306 307 306 308 307 305 308 310 308 300 296 294 293 293 293 294 295 296 297 298 299 302 300 298 295 291 289 288
294 294 294 294 294 294 294 291 291 293 294 294 296 299 301 299 298 297 297 299 298 299 301 303 302 304 303 305 305 304 307 308 307 308 301 291 292 291 292 292 292 293 293 294 295 296 297 297 296 293 292 290 289 287
293 294 293 293 292 291 291 290 292 293 289 291 291 295 298 299 299 297 298 299 296 298 299 300 304 306 306 305 306 307 307 307 301 298 288 286 290 290 290 290 290 290 291 292 292 294 295 294 293 291 290 289 289 287
294 293 293 292 292 292 291 291 292 287 284 288 289 293 293 292 297 297 297 297 296 298 304 302 307 307 302 306 306 305 306 301 296 290 284 287 288 288 287 288 289 289 289 290 290 290 290 292 291 289 287 288 288 287
293 293 293 292 293 291 290 290 288 288 289 288 289 288 294 294 295 295 294 294 296 297 298 302 298 303 306 307 300 294 295 293 291 291 289 286 286 287 288 287 288 289 288 288 288 289 289 288 288 288 288 287 287 286
293 293 293 293 293 289 288 288 288 289 289 290 290 289 292 293 292 291 292 292 292 293 294 297 299 301 300 293 297 293 292 291 291 290 288 288 288 286 286 287 289 290 289 288 287 287 288 289 288 288 287 285 285 284
294 294 293 293 292 288 287 287 288 287 288 289 289 290 291 290 289 289 290 291 292 290 293 295 297 297 293 290 285 289 285 286 286 286 285 285 285 285 286 286 287 287 287 288 288 289 288 288 288 287 286 285 284 284
294 292 293 293 289 288 284 284 284 284 285 287 285 287 286 287 288 288 288 289 291 288 286 287 289 288 282 285 286 286 284 283 283 283 283 279 282 284 285 285 285 285 286 287 287 287 286 287 288 288 286 286 285 285
291 292 291 288 286 284 281 284 283 284 284 284 285 285 284 284 285 287 284 288 288 286 285 286 283 282 281 283 281 284 284 283 282 281 283 283 281 278 280 282 281 280 283 284 286 286 286 286 287 288 287 286 285 285
291 290 288 286 282 280 281 282 283 282 285 283 283 284 283 283 283 284 285 283 286 284 283 282 279 280 280 281 282 281 281 281 279 280 280 281 280 280 280 280 280 280 279 280 281 282 283 285 287 288 287 285 285 283
290 289 285 284 280 282 279 279 283 284 282 284 284 285 282 279 281 285 283 285 286 276 279 279 278 278 277 275 275 276 282 281 281 280 280 280 276 278 279 279 279 279 279 279 280 282 284 285 286 287 286 285 283 283
291 286 283 280 277 278 278 279 279 282 281 284 286 285 281 278 280 280 282 286 278 275 276 276 276 274 276 271 273 278 282 281 279 275 279 279 279 278 277 277 277 278 279 279 279 279 281 283 284 285 285 284 283 283
291 285 286 281 275 279 280 280 281 281 284 284 284 280 277 279 279 281 283 285 280 277 278 279 280 275 275 275 274 271 280 281 280 276 278 278 278 276 271 273 275 277 278 279 279 279 280 281 282 284 284 284 285 283
290 284 283 283 280 280 280 282 283 284 283 283 279 278 280 283 282 284 282 280 280 281 283 284 282 279 279 279 281 281 280 280 279 278 277 276 276 276 276 275 275 276 277 277 277 277 277 278 280 282 283 283 283 284
286 282 283 280 278 277 278 280 281 282 283 282 282 281 282 282 284 281 279 281 282 283 284 284 284 284 283 282 282 281 279 278 277 276 277 277 278 278 278 277 277 277 276 276 277 278 278 279 279 280 282 283 283 283
281 278 280 275 275 276 278 282 283 282 283 282 281 282 281 280 278 274 280 281 281 281 280 280 280 281 280 279 279 278 278 276 274 270 272 275 271 275 277 277 276 276 277 277 277 279 279 280 281 281 282 283 283 283
278 278 277 274 278 280 280 279 278 275 276 276 276 275 275 276 279 279 280 279 277 277 281 280 280 278 278 276 275 276 277 277 276 274 271 274 274 276 275 275 276 277 277 276 276 277 277 279 281 284 285 283 282 280
280 275 276 277 279 275 273 272 271 273 270 269 268 271 275 273 275 279 279 280 278 277 275 274 275 276 276 274 271 266 270 277 276 275 275 274 274 274 275 276 276 276 276 276 276 276 276 278 280 284 283 281 280 279
277 278 280 280 276 272 272 271 273 272 269 269 270 267 270 272 277 277 276 275 274 272 274 276 274 276 277 277 277 276 275 275 275 275 274 275 276 277 277 278 278 278 277 277 277 276 277 278 281 281 280 279 279 279
273 275 275 273 271 273 271 275 272 271 270 270 271 270 270 273 278 275 275 275 275 276 276 277 277 277 277 276 276 276 276 275 275 274 275 276 277 280 281 280 281 280 279 278 278 278 279 281 280 280 279 279 279 278

GFSWCAN_925_thetae_051.txt.gz
Theta_e
299 299 298 298 298 298 297 297 298 299 297 298 296 296 295 295 295 295 295 297 298 302 302 304 307 310 309 309 309 310 310 311 312 314 313 311 311 312 313 312 313 313 314 315 313 316 314 308 313 319 313 310 310 309
299 299 298 298 298 297 297 297 297 299 297 297 297 296 296 296 295 295 294 296 295 298 301 301 303 306 307 310 310 309 310 311 312 313 311 310 311 309 310 318 311 313 308 310 310 311 308 307 312 310 307 307 307 308
299 298 299 298 297 297 297 297 297 297 298 296 296 297 295 297 296 295 294 294 295 299 302 303 307 310 310 310 310 309 309 309 309 307 309 307 311 308 311 310 313 311 309 312 313 314 310 309 307 307 305 305 304 304
299 299 298 298 296 297 297 297 296 298 298 296 296 297 296 297 297 295 294 294 295 297 303 309 310 310 310 311 311 310 309 309 308 308 311 313 314 309 312 310 313 312 311 313 313 312 311 310 308 307 305 303 303 304
299 299 299 297 297 296 296 295 296 297 297 295 295 296 296 297 296 296 296 294 295 295 303 307 306 308 310 310 310 309 308 309 311 312 313 314 311 310 307 309 309 308 311 312 315 312 311 310 308 305 304 303 301 303
299 299 298 297 296 296 295 296 296 298 295 295 295 296 297 296 296 296 295 295 295 293 300 308 307 307 309 310 310 309 309 309 310 312 312 312 310 311 315 315 309 308 307 307 310 309 307 307 305 302 302 301 300 300
299 299 298 297 296 296 296 296 296 296 295 295 296 296 295 296 296 294 299 298 295 294 300 308 309 308 308 308 308 309 310 310 310 311 311 312 312 311 312 311 308 306 305 306 305 306 308 305 307 300 299 298 299 297
299 298 297 296 296 296 296 294 297 295 295 295 295 295 296 296 296 295 295 296 298 298 303 308 308 308 308 310 311 308 311 310 310 310 311 311 310 311 313 306 301 302 303 306 303 302 301 300 298 297 295 294 294 293
299 298 296 296 295 295 294 296 296 295 295 294 296 295 295 297 296 298 300 299 299 300 307 309 309 309 308 311 310 310 310 312 309 310 310 311 312 313 305 300 300 299 300 301 301 302 300 301 299 296 294 293 293 292
298 297 296 295 295 294 295 295 295 295 291 296 297 298 301 300 300 300 300 303 302 303 304 309 305 308 307 309 310 312 311 312 310 310 307 310 312 302 300 298 297 296 297 297 299 301 300 297 297 296 294 293 293 291
297 296 295 294 293 294 296 295 295 292 295 297 297 299 298 299 300 302 305 307 305 307 308 305 306 308 304 307 309 308 309 306 312 309 310 309 310 304 296 294 293 294 296 295 296 297 298 300 301 299 296 295 293 292
297 296 294 294 293 294 296 295 295 291 293 294 294 296 298 301 302 304 305 305 307 306 307 310 307 306 306 305 307 306 308 306 312 306 308 309 306 296 294 293 293 293 294 296 297 298 299 300 301 300 297 295 294 292
296 295 294 293 293 294 296 295 294 292 294 295 296 297 301 302 305 308 308 306 308 304 303 303 306 305 306 305 305 306 309 311 305 308 307 307 297 294 292 293 293 293 295 296 297 298 299 300 299 298 295 294 292 290
296 295 294 294 293 294 295 295 292 293 295 297 298 303 303 305 303 303 297 302 301 300 302 304 304 306 306 307 306 309 307 305 308 309 308 299 294 293 292 292 292 292 293 294 295 295 297 300 300 297 294 293 291 288
295 294 294 294 294 294 293 292 291 293 294 294 296 298 301 298 298 297 297 299 298 299 301 303 302 304 303 305 305 305 307 308 307 306 300 292 291 290 291 291 291 291 291 292 292 293 294 295 296 295 294 293 291 289
295 294 294 293 293 292 291 290 292 293 288 290 291 291 297 299 298 297 298 299 296 299 299 300 303 304 305 305 306 307 306 306 300 298 295 288 290 289 289 289 289 289 290 290 290 291 290 291 292 292 292 291 289 288
294 293 293 293 291 292 291 291 292 287 286 286 287 289 294 285 290 296 298 298 296 299 303 303 306 304 302 306 306 304 306 301 290 293 289 286 288 287 286 287 288 289 289 288 288 288 289 289 290 289 289 288 289 289
293 293 293 292 292 290 290 290 288 287 289 287 289 286 292 292 295 295 294 294 297 298 299 303 299 303 306 306 304 298 295 293 292 292 290 287 286 286 287 286 287 288 289 287 287 287 288 288 288 288 287 287 287 287
294 294 293 292 292 289 289 288 288 289 289 289 289 288 289 291 292 291 292 292 293 294 294 296 298 302 297 292 291 283 284 287 293 291 289 288 287 286 285 285 286 286 285 286 286 287 287 287 287 287 287 286 285 285
294 293 293 292 292 288 288 288 287 288 289 290 289 290 289 289 288 289 290 291 292 292 293 295 296 295 294 290 285 286 285 287 287 287 286 284 284 284 284 284 284 283 283 285 286 287 288 287 287 288 287 286 284 285
294 292 292 292 289 288 286 286 286 286 287 288 286 288 288 286 288 288 289 289 291 291 288 288 289 289 281 284 287 287 285 284 284 284 284 279 282 283 284 284 283 281 282 282 282 284 286 285 285 285 287 287 287 286
292 293 292 290 285 283 284 283 284 285 285 285 285 286 285 285 284 285 287 289 290 289 286 285 283 284 282 284 281 285 285 284 283 282 283 283 280 277 279 282 280 277 278 279 280 280 281 282 282 284 287 287 287 286
292 292 289 285 282 281 281 282 283 282 283 282 282 282 282 282 281 284 288 285 286 286 283 282 280 280 282 282 283 283 283 282 279 279 280 281 281 280 279 279 279 278 276 278 279 279 279 281 283 284 285 286 286 285
292 289 285 282 279 282 279 278 282 281 279 283 281 282 281 279 280 283 283 283 286 281 279 278 278 277 276 276 276 278 281 281 280 280 281 280 275 278 280 280 279 279 279 279 278 278 279 280 281 282 283 284 285 284
291 286 284 281 277 278 277 277 276 279 280 279 282 280 279 276 278 278 282 285 283 280 278 277 277 277 280 276 274 278 281 281 278 277 281 281 280 279 278 279 279 279 279 278 277 278 278 279 280 281 282 283 284 284
288 282 287 281 275 279 279 277 277 277 278 279 278 275 273 276 277 282 282 281 277 276 276 278 281 277 275 275 275 272 281 282 281 277 280 281 280 278 271 272 275 276 278 279 278 278 278 278 278 278 278 280 283 285
288 283 283 282 280 279 279 279 280 279 277 279 278 278 277 280 280 282 279 277 278 280 281 282 282 281 282 281 282 282 283 282 282 281 280 279 278 277 277 274 274 277 277 276 276 276 276 276 276 277 277 278 280 282
288 283 284 280 278 275 277 277 277 279 279 282 282 280 282 280 283 281 278 280 281 282 282 282 283 284 284 283 283 283 281 280 279 278 278 278 278 278 278 277 277 277 277 276 276 276 277 277 277 277 278 278 279 281
283 278 279 274 273 274 277 279 279 280 282 281 281 281 280 279 278 275 281 282 282 281 280 280 280 281 281 281 281 280 279 278 276 273 273 276 269 277 278 277 276 276 276 276 276 277 277 278 278 278 279 279 280 281
279 276 276 272 277 279 278 277 275 273 274 275 275 275 275 275 279 280 281 280 278 278 282 282 282 280 278 277 277 277 278 278 277 276 273 274 273 275 275 275 276 277 276 276 276 276 277 277 277 277 278 278 281 281
277 273 274 275 277 271 268 269 268 273 268 267 265 271 274 271 274 280 280 281 280 278 277 275 276 277 278 276 273 269 271 278 278 276 275 275 274 275 275 276 277 277 277 276 276 275 275 275 275 275 276 279 281 282
274 275 277 276 273 267 269 270 269 269 266 267 269 264 267 270 274 275 277 276 274 273 275 276 275 276 279 279 277 277 277 276 276 276 275 275 275 276 276 276 277 279 278 278 277 276 275 275 275 275 277 279 280 281
276 271 270 271 270 271 271 273 272 270 267 267 268 267 266 271 277 275 276 275 275 276 276 277 277 276 277 278 278 277 276 276 275 275 274 275 276 276 277 277 278 279 280 279 278 277 276 276 276 277 279 279 280 280

GFSWCAN_925_thetae_054.txt.gz
Theta_e
301 299 299 299 298 298 298 298 298 298 299 298 298 297 296 295 296 295 294 296 298 301 301 303 305 309 307 307 308 307 307 309 311 313 312 312 312 313 312 311 313 312 311 314 311 314 312 307 313 318 314 310 310 309
300 299 299 298 298 298 298 298 297 298 298 299 297 297 298 296 296 295 294 295 295 296 300 300 301 303 307 308 308 308 307 310 309 311 310 311 312 310 309 318 310 312 307 308 308 308 307 307 311 311 307 308 308 308
300 299 299 298 298 298 298 297 297 297 297 298 298 296 297 297 296 296 295 293 294 297 299 301 303 305 306 306 307 309 309 308 309 307 310 308 310 306 310 308 311 310 307 310 312 313 311 310 308 306 306 306 305 304
300 299 299 299 299 298 297 297 297 297 297 299 297 296 297 296 296 296 295 294 294 296 300 304 305 309 310 310 310 309 307 308 308 308 310 311 313 306 309 308 312 309 309 309 310 311 311 310 308 307 306 303 303 304
300 299 299 299 299 298 298 297 297 297 297 298 296 296 296 296 296 296 296 296 294 295 299 302 302 308 309 310 310 309 308 309 310 311 312 313 311 310 305 306 307 306 312 314 315 310 310 309 307 306 305 304 302 302
300 300 299 299 299 298 297 297 297 296 297 296 296 295 296 296 296 296 294 295 295 294 296 303 307 307 308 309 309 308 308 309 310 312 312 311 310 311 313 313 308 307 306 306 308 304 305 305 303 303 303 302 300 300
301 299 299 299 298 298 297 296 296 296 297 295 295 295 295 295 296 293 295 297 294 294 296 302 310 308 309 309 309 310 310 310 310 311 312 311 311 312 313 310 307 302 303 303 303 302 307 305 305 301 300 299 300 298
301 299 299 299 298 297 297 296 295 296 296 295 295 295 296 296 296 296 295 295 295 294 298 306 309 309 308 310 311 308 311 309 310 311 310 311 310 310 312 308 301 300 299 302 301 301 300 299 297 298 296 295 296 295
300 299 299 299 297 297 296 295 295 296 295 295 295 295 295 295 295 296 297 298 295 297 303 308 307 308 307 310 309 310 309 311 309 310 310 311 312 313 308 301 299 299 298 298 299 298 300 301 299 297 295 294 295 294
300 300 299 297 296 295 295 295 296 295 294 294 297 297 299 299 299 299 299 300 299 301 302 308 306 309 308 310 311 312 310 312 309 310 308 309 311 304 300 297 296 295 295 295 297 299 299 297 300 298 295 294 293 293
299 299 298 296 295 294 294 296 295 294 293 296 297 299 298 299 299 301 305 305 305 305 306 306 305 307 303 308 310 306 308 307 312 309 310 309 311 305 296 293 292 292 293 295 296 296 295 296 298 300 300 296 294 293
298 298 297 296 294 293 295 295 294 292 293 294 295 296 297 300 302 303 306 304 305 305 305 309 307 305 306 305 306 304 308 306 312 306 308 308 306 295 292 293 292 291 294 296 296 297 297 297 298 299 300 297 295 293
297 297 296 295 294 294 296 296 294 291 293 295 296 297 300 302 304 305 307 306 307 305 302 303 306 306 305 305 304 306 309 310 305 309 307 304 297 293 292 291 291 292 293 293 295 295 296 297 300 296 296 295 294 292
297 296 295 294 294 293 294 296 294 292 295 296 299 302 302 304 303 304 297 294 300 301 302 304 305 306 306 306 306 309 307 304 308 309 308 300 295 292 291 291 291 292 291 292 293 293 294 295 297 298 294 292 291 290
296 296 295 294 294 294 294 293 291 293 294 295 296 297 301 299 298 298 297 298 298 299 302 303 302 304 304 305 305 305 307 308 307 306 299 295 290 290 290 290 289 290 290 290 290 291 291 291 292 294 294 294 293 291
296 295 295 295 294 293 292 291 292 293 288 291 293 293 295 299 298 297 298 299 297 299 299 299 304 301 306 302 306 307 306 306 299 296 294 291 289 289 289 288 288 289 289 289 289 289 289 289 289 289 290 292 292 291
295 294 294 293 292 291 291 291 292 287 286 285 286 288 294 292 296 296 298 298 296 299 303 302 305 304 302 306 306 304 305 297 289 294 291 290 288 288 286 287 287 288 288 287 287 287 287 288 289 289 288 288 288 289
294 293 294 292 291 290 289 290 288 287 289 285 289 286 292 293 295 296 294 294 297 297 298 303 300 303 306 306 299 295 289 286 289 292 291 288 286 285 286 285 286 286 285 285 285 286 287 286 287 286 286 287 287 286
293 293 292 292 291 289 289 288 288 289 288 289 288 286 288 290 290 290 292 293 293 293 295 297 300 302 297 292 289 283 280 285 290 289 290 288 287 286 285 285 285 284 283 283 284 285 286 287 286 286 286 286 285 286
293 293 293 291 291 288 288 288 287 289 290 290 289 289 288 287 287 287 291 291 292 292 294 295 296 296 293 291 286 286 285 287 287 287 286 283 284 284 284 283 283 282 281 282 282 283 284 285 285 284 284 287 287 286
293 293 292 291 289 288 287 287 287 287 288 289 287 289 288 286 286 284 289 290 291 292 288 288 289 289 282 283 287 288 286 285 286 287 285 279 282 282 283 283 282 281 281 279 279 279 280 281 281 281 283 284 286 287
292 292 292 290 285 284 284 283 285 286 287 286 287 286 287 286 286 286 285 287 289 289 289 286 282 283 282 284 282 286 287 285 284 284 283 283 280 277 278 281 280 277 279 279 279 278 279 279 280 282 283 284 285 286
292 292 287 284 282 281 280 281 283 282 285 285 283 285 285 284 282 283 286 286 287 287 285 281 280 281 282 283 284 284 284 284 281 280 281 281 281 281 281 281 279 278 274 278 279 279 278 279 280 281 282 282 283 284
291 287 283 280 279 282 279 277 281 280 280 283 282 283 282 281 281 284 284 283 284 281 280 279 277 276 276 277 277 278 282 282 281 280 281 280 276 279 280 279 279 279 279 279 278 278 278 279 279 280 281 281 282 283
288 284 283 279 277 278 278 277 275 280 281 279 280 280 279 277 278 278 282 284 280 277 278 276 277 277 279 276 276 279 281 282 278 277 281 281 280 278 279 280 279 280 280 279 278 278 278 278 278 278 278 278 278 279
290 282 287 286 277 280 278 276 276 278 278 278 278 275 272 275 276 281 281 278 275 273 272 277 278 276 277 277 277 274 281 282 281 278 281 282 281 279 273 274 275 277 280 279 279 278 278 277 276 276 276 277 278 279
285 283 284 282 280 279 278 278 279 277 276 279 277 276 276 279 279 281 278 275 276 280 281 280 282 281 280 281 282 282 283 283 282 282 282 281 281 280 279 277 275 278 277 277 276 276 276 275 275 275 275 277 277 278
287 283 284 280 277 274 277 276 276 278 278 279 280 278 279 281 284 281 278 281 282 282 282 282 281 282 283 285 285 284 283 282 281 281 280 280 280 279 278 278 279 278 277 277 276 276 276 276 276 276 275 276 277 278
284 278 280 274 273 273 277 279 278 279 281 280 281 279 279 278 276 276 282 282 282 281 279 280 281 281 281 282 282 282 282 282 278 276 277 279 270 279 279 278 278 277 276 276 276 275 276 276 277 277 277 277 278 279
280 276 276 272 279 280 279 276 273 269 273 275 275 274 275 274 279 281 281 280 278 278 282 283 283 280 278 277 278 279 281 280 279 278 276 277 276 277 276 276 275 276 276 276 275 276 277 276 276 276 276 276 276 277
276 272 273 274 276 271 268 267 266 272 266 266 264 271 274 271 274 281 281 282 281 279 278 276 276 278 278 276 275 270 273 280 279 278 278 277 277 276 276 276 276 276 276 276 276 275 275 275 275 274 274 274 275 276
272 277 277 275 274 266 264 267 266 268 264 267 269 262 267 269 274 276 279 277 274 273 275 277 274 276 279 280 279 279 278 278 279 278 277 276 276 276 276 276 276 276 276 277 277 276 275 275 274 274 274 274 275 277
267 266 266 269 270 270 268 269 269 269 267 267 268 267 266 271 277 275 276 275 275 276 276 276 276 277 277 278 278 277 277 277 277 276 274 275 276 277 277 277 277 277 277 277 277 278 276 276 275 275 275 276 277 278

GFSWCAN_925_thetae_057.txt.gz
Theta_e
306 303 301 300 299 299 298 299 298 298 298 298 299 298 298 297 296 296 294 295 296 300 299 302 304 308 307 304 307 306 306 307 309 312 312 312 311 312 311 310 310 309 310 310 308 311 308 306 312 319 315 310 310 309
306 303 301 300 299 298 298 298 298 298 298 298 298 299 297 297 297 296 294 294 294 294 298 299 299 301 303 307 306 304 304 306 306 309 310 310 310 312 309 317 309 312 307 307 306 306 305 307 310 310 309 309 308 307
306 303 301 300 299 298 298 297 298 298 298 298 298 299 298 296 298 296 296 294 293 293 294 296 297 299 301 302 303 306 305 306 309 306 307 309 308 305 309 307 309 309 306 309 311 311 307 308 308 306 306 306 306 304
306 303 301 300 299 298 298 298 298 298 298 297 297 299 297 297 296 297 297 296 293 293 296 297 302 302 304 306 304 305 306 307 305 306 310 311 311 305 307 306 307 307 307 310 308 308 309 310 309 307 307 304 303 303
307 302 301 300 299 299 298 298 298 298 297 297 298 297 296 296 296 296 296 296 294 293 297 296 297 301 307 308 308 308 306 308 310 311 311 312 310 309 304 304 305 305 309 312 315 308 308 309 308 306 306 305 302 301
306 302 301 300 299 299 298 298 298 297 297 297 297 296 295 296 296 296 295 295 295 294 294 298 301 306 307 308 308 307 307 308 308 312 312 311 309 310 312 311 306 303 304 305 308 304 303 304 303 301 302 302 301 300
306 302 301 300 299 299 299 298 297 297 296 297 296 295 295 295 296 294 293 296 295 294 296 298 303 308 308 309 309 309 308 309 310 311 311 311 311 311 313 313 306 302 301 301 303 302 305 304 304 298 298 298 299 298
305 302 301 300 299 299 299 297 297 295 295 297 295 295 295 296 296 295 295 295 294 294 294 301 305 310 308 310 311 309 311 310 310 311 310 311 310 311 312 310 301 300 298 299 298 298 300 300 298 297 296 295 297 296
304 301 301 300 299 299 298 297 296 295 296 296 293 295 296 295 295 295 295 295 295 295 300 304 306 310 307 309 309 310 309 311 309 311 310 311 311 312 310 305 302 298 298 297 296 296 299 299 300 299 296 296 295 295
304 301 301 300 299 298 296 296 295 296 295 292 295 296 298 297 297 299 297 297 297 298 299 305 305 310 307 309 309 311 310 312 309 311 308 310 310 304 299 296 296 295 295 294 297 299 297 298 298 298 299 297 295 294
302 301 301 300 299 296 296 294 295 295 292 296 296 298 298 299 299 300 303 302 302 304 305 305 305 309 304 309 310 307 308 307 311 309 310 309 310 304 295 294 293 292 292 293 294 295 296 297 296 296 297 300 297 295
300 301 300 299 297 296 294 295 295 293 293 295 295 296 297 299 301 303 305 304 305 304 304 308 306 305 306 304 304 304 308 306 310 306 309 310 305 295 293 292 291 290 293 295 296 296 296 297 297 296 297 299 299 297
301 299 299 297 296 294 294 295 294 292 292 294 296 295 300 301 303 305 306 306 306 305 303 304 306 306 304 304 304 305 309 311 305 309 308 303 297 293 291 291 291 291 292 293 294 294 294 295 297 297 293 294 295 293
299 299 297 296 295 294 294 296 294 292 294 296 298 300 302 304 303 303 299 301 297 301 302 304 305 306 306 304 306 310 307 306 308 309 307 300 296 292 291 290 291 291 291 291 292 292 292 292 293 295 295 292 291 291
296 296 296 295 294 294 294 294 292 293 294 295 296 298 301 298 297 298 297 299 298 299 302 303 303 304 304 305 305 305 307 308 308 305 298 295 291 290 290 289 289 290 290 290 290 290 290 290 290 290 291 293 293 292
296 296 295 294 294 294 293 293 291 293 289 292 293 294 293 297 298 297 298 299 297 300 299 300 304 299 305 300 306 304 305 301 299 292 290 292 289 289 288 288 287 288 289 288 288 288 288 288 288 288 289 288 290 291
295 295 294 295 293 292 292 291 292 287 289 286 286 289 293 291 288 293 298 298 296 300 303 303 305 304 301 303 304 303 298 295 290 288 289 292 291 287 286 287 287 287 286 285 286 286 287 287 288 287 287 286 287 287
294 295 294 293 292 290 290 290 288 287 287 283 289 288 290 292 292 294 294 295 298 298 298 302 300 304 305 306 299 294 287 281 283 288 288 289 287 285 286 285 286 285 283 284 284 285 286 286 286 285 286 286 286 286
294 294 293 292 291 290 289 289 287 287 287 288 289 288 288 289 289 288 290 292 294 294 295 296 301 301 299 292 290 282 282 284 290 289 288 288 288 287 286 285 285 283 282 282 282 282 283 285 285 284 283 285 286 286
293 293 292 291 291 289 288 287 288 289 289 289 289 289 289 288 286 285 287 289 292 293 293 293 293 295 294 291 286 286 285 286 287 288 287 284 284 284 283 283 283 282 281 281 281 282 282 281 282 281 281 283 285 285
293 291 291 291 289 288 287 287 288 288 288 290 288 289 289 286 285 283 283 286 291 292 288 289 289 290 283 283 287 288 286 285 287 288 288 280 282 283 282 283 282 280 280 279 278 279 279 279 279 280 280 282 283 284
291 292 291 289 284 283 284 283 286 286 287 287 287 287 288 287 287 286 285 286 288 289 289 287 282 283 283 284 282 286 288 287 285 285 284 284 280 277 277 281 279 277 278 279 279 278 279 279 279 280 281 281 282 283
292 291 286 284 281 280 279 281 282 282 285 285 284 287 286 285 283 283 284 283 286 287 286 281 279 280 281 283 285 284 285 285 281 282 283 281 281 281 281 281 280 279 275 280 280 280 279 279 279 279 280 280 281 282
291 285 284 281 278 280 278 276 281 280 281 284 282 284 283 282 282 283 284 285 285 281 280 280 278 278 278 278 279 278 283 284 282 280 281 280 275 279 281 281 280 280 280 280 279 278 278 278 278 278 279 279 279 279
289 285 286 283 278 277 277 276 274 279 280 279 280 282 280 278 282 282 284 285 281 278 278 276 278 277 279 277 276 280 283 283 279 278 281 281 281 279 279 280 280 280 280 278 278 278 278 278 278 277 277 277 276 277
287 283 286 287 283 279 278 277 275 277 277 278 277 275 273 277 281 284 284 281 278 276 275 275 276 275 277 278 279 276 282 283 282 279 282 282 282 280 273 273 273 279 280 280 279 279 278 278 277 276 275 276 276 277
285 283 284 281 279 278 278 278 278 276 275 279 277 276 276 280 280 283 280 277 277 280 282 281 280 280 281 281 283 284 283 284 283 283 283 283 283 282 281 279 276 280 279 278 278 277 276 276 275 275 275 275 275 276
288 282 285 280 277 273 276 276 275 277 277 278 279 279 280 282 286 282 279 282 284 283 282 283 283 282 281 283 284 284 283 281 280 280 280 281 281 282 282 281 280 278 277 277 277 276 276 276 276 275 275 275 276 277
287 281 279 274 273 273 275 278 278 278 280 279 280 279 279 278 275 274 282 282 283 281 279 280 282 282 281 282 283 283 281 281 278 277 277 279 273 281 281 280 280 279 278 277 276 276 275 276 276 276 277 277 277 277
283 279 276 271 277 279 278 275 273 269 272 274 274 274 274 274 279 281 281 281 279 278 283 283 283 281 279 277 278 279 281 281 281 281 279 280 278 280 279 278 278 277 276 276 276 276 276 276 276 276 276 276 276 275
276 274 274 274 277 273 268 265 265 271 265 265 263 270 274 270 275 282 283 284 283 280 279 277 278 279 278 276 275 272 276 283 283 283 282 280 278 276 276 276 276 276 276 275 275 275 275 275 275 274 274 274 275 274
272 276 276 276 275 265 262 266 265 268 264 266 268 261 266 269 273 276 281 279 275 273 275 277 275 276 279 279 280 280 281 280 280 280 279 278 277 277 276 276 276 276 276 276 276 275 275 275 275 274 273 274 274 274
268 266 264 268 270 271 268 269 268 269 266 266 269 268 267 272 279 276 276 275 275 275 276 276 276 276 277 278 278 278 278 278 278 277 276 276 276 277 277 277 277 276 276 277 277 276 276 276 275 275 275 274 275 275

GFSWCAN_925_thetae_060.txt.gz
Theta_e
311 310 306 304 302 300 300 299 299 299 299 298 298 299 298 298 297 296 296 294 296 299 299 301 303 306 309 308 312 310 312 311 312 314 313 312 312 312 313 311 312 311 312 312 310 312 312 308 313 319 317 313 312 312
310 309 307 304 302 300 300 298 298 298 298 298 298 298 299 297 297 297 296 295 295 295 295 297 298 300 302 303 306 309 309 310 312 314 313 313 313 314 313 316 311 313 311 312 311 311 308 309 311 311 310 311 311 311
309 310 309 305 302 300 299 299 299 299 297 298 298 298 299 298 297 298 296 296 293 294 295 295 295 294 294 297 301 309 310 309 311 310 312 312 313 313 315 314 314 312 309 311 311 312 310 309 309 309 309 310 309 308
308 309 308 306 302 301 300 299 298 297 297 298 298 298 298 297 297 297 296 296 294 294 295 295 296 299 299 301 299 301 306 308 309 311 313 313 312 309 312 311 312 313 310 312 312 311 311 312 312 310 308 307 306 305
307 307 308 306 303 301 300 299 298 297 298 298 298 297 298 297 296 296 296 296 296 295 295 295 294 295 295 304 301 302 304 309 312 314 314 313 312 311 310 310 313 311 313 314 313 312 313 313 309 306 308 308 307 306
305 306 307 307 303 300 300 299 299 298 298 297 296 297 297 296 295 295 295 294 295 294 296 294 298 300 303 305 304 305 307 309 312 314 314 312 311 311 312 311 310 308 307 308 312 307 308 308 306 303 304 304 303 303
303 305 306 306 302 300 300 299 298 298 297 296 296 297 296 296 296 295 295 296 295 294 296 298 300 301 305 307 308 309 308 310 312 313 313 312 312 312 312 312 310 309 307 304 304 305 309 306 307 303 302 301 300 300
298 302 305 305 302 300 300 299 298 297 297 295 296 295 295 296 295 296 295 295 295 294 295 299 302 308 307 304 311 310 311 311 312 313 310 312 312 311 312 311 308 304 302 302 302 300 302 301 301 302 300 299 300 301
297 299 304 305 302 300 300 298 297 297 295 296 296 294 296 295 296 296 296 295 294 295 299 301 306 310 307 310 310 311 310 312 309 312 311 310 312 312 311 310 307 304 302 302 299 299 300 301 301 301 301 299 299 301
297 300 302 304 302 300 300 298 297 295 296 295 293 295 297 296 295 296 296 296 296 296 296 301 305 308 307 310 310 311 311 311 311 310 308 311 310 307 301 298 299 297 297 296 299 301 299 299 299 300 301 301 300 298
298 300 301 304 302 300 299 297 296 296 295 294 297 298 298 298 299 299 301 300 300 302 302 304 306 309 306 310 311 309 306 307 312 311 311 310 312 306 298 296 294 294 294 295 296 297 297 298 299 299 300 301 300 300
298 300 302 303 301 300 298 296 296 295 292 295 296 296 296 298 299 302 304 304 305 306 304 308 307 306 306 305 308 307 309 308 313 306 310 311 308 297 295 294 294 294 295 296 296 296 296 296 297 298 299 298 299 301
300 301 302 302 299 297 296 296 295 294 292 294 295 295 299 300 304 305 306 307 306 305 305 305 308 306 306 306 306 308 309 310 307 310 310 308 299 295 294 294 293 293 294 294 295 293 293 294 295 296 296 293 293 295
301 302 301 299 297 296 296 296 294 291 294 296 298 301 302 304 304 305 304 304 302 303 304 305 306 307 307 307 308 309 307 308 310 310 310 305 298 295 293 293 294 293 292 292 292 292 293 292 292 292 293 294 292 292
302 300 298 296 295 296 295 296 293 293 295 297 298 300 302 301 299 299 298 300 300 300 303 305 303 305 305 307 305 306 308 309 309 308 306 300 295 293 292 291 292 292 291 291 291 291 291 291 291 291 290 291 293 292
298 296 295 295 295 294 294 293 292 293 290 294 294 296 295 298 300 299 299 300 299 301 301 302 304 305 305 304 306 305 306 306 307 303 299 295 294 292 291 290 289 290 290 289 288 289 289 289 289 289 289 288 287 289
295 295 294 294 295 293 292 292 292 291 292 290 291 291 293 295 297 298 299 300 298 301 304 302 304 305 303 304 304 304 307 306 302 298 295 294 293 292 291 289 289 289 287 287 287 287 287 287 288 288 288 287 286 286
295 295 295 293 293 292 290 291 289 289 290 289 291 292 291 293 295 296 296 296 298 300 300 303 300 305 306 307 307 305 301 294 291 294 294 293 291 289 289 288 287 286 285 285 284 284 285 286 287 286 285 284 287 287
295 294 293 293 292 291 290 289 289 289 289 290 291 290 291 291 290 290 291 294 294 295 297 299 303 303 304 301 302 298 294 295 296 294 292 290 289 289 287 286 285 284 282 283 283 283 283 283 284 283 282 283 285 286
293 292 292 292 292 289 289 288 287 289 290 290 290 291 291 291 288 288 290 292 293 295 297 297 298 299 299 297 294 295 293 292 292 293 291 288 287 285 285 285 285 283 281 281 281 282 282 282 281 280 281 283 284 285
292 291 291 291 289 288 288 288 288 289 289 290 289 290 290 288 289 289 290 289 292 294 293 293 294 294 289 288 289 290 290 290 292 294 294 291 286 285 284 282 282 280 281 281 282 281 281 281 280 279 281 282 282 283
291 291 291 289 286 284 285 283 287 287 289 288 289 288 289 289 289 288 286 290 292 292 291 291 290 289 288 289 288 287 289 288 287 287 287 286 285 283 283 282 281 282 281 281 280 281 280 279 279 280 280 281 281 281
292 291 286 283 282 282 281 281 285 284 289 288 286 288 288 287 286 285 288 287 288 288 287 286 284 282 284 285 285 285 286 286 286 285 285 283 283 283 282 282 281 280 280 280 280 280 280 280 279 279 279 279 280 280
291 285 284 283 280 280 279 278 282 283 284 286 286 287 285 285 283 286 287 287 288 286 285 285 281 283 282 281 284 285 284 285 284 282 283 282 281 280 281 282 281 281 281 281 280 280 279 279 279 278 278 278 278 278
289 285 286 285 279 279 278 278 277 282 282 280 283 285 283 280 285 286 288 289 286 285 284 281 282 283 286 285 283 282 283 284 283 284 282 281 281 279 279 280 281 281 281 280 279 278 278 278 277 277 277 276 276 277
287 284 287 287 284 282 280 280 278 280 279 278 280 278 277 282 284 288 288 287 285 284 284 283 283 282 282 282 284 283 283 284 283 282 283 282 281 282 282 281 281 281 282 281 279 278 278 277 276 276 275 276 277 277
289 286 285 281 280 279 280 279 279 280 277 280 280 279 280 283 285 286 283 282 283 282 283 283 281 282 284 283 283 284 283 283 284 284 284 283 283 283 283 281 280 282 281 280 279 278 278 277 276 276 276 276 276 276
288 283 284 281 279 276 279 277 277 279 280 280 281 280 283 285 289 285 282 282 283 283 283 283 283 282 282 284 284 283 282 281 281 281 281 281 282 282 282 282 281 280 279 278 278 277 277 277 276 276 275 275 275 276
287 283 281 277 274 275 277 281 280 280 281 280 283 283 282 280 279 278 282 282 282 281 280 281 283 283 283 282 282 282 282 281 278 278 279 282 281 282 282 282 281 279 278 277 277 277 276 276 276 276 277 277 277 277
285 278 277 272 277 281 282 277 277 272 274 276 276 277 277 277 280 281 281 280 278 279 283 284 283 280 280 278 279 280 281 281 281 282 283 283 282 282 281 280 280 279 278 277 277 277 276 276 276 276 276 276 275 275
276 275 276 274 277 275 269 267 267 272 269 269 267 275 278 275 275 284 285 286 285 282 279 278 277 278 278 277 276 277 279 282 283 282 281 281 280 280 279 277 277 277 276 276 276 275 275 274 274 274 274 274 275 274
274 276 278 277 277 268 265 267 267 269 268 269 273 265 269 272 276 278 286 284 278 274 277 278 275 277 279 279 278 279 279 281 281 280 280 279 278 278 277 277 277 276 276 276 276 275 275 274 273 273 273 274 274 274
270 268 265 269 272 273 269 271 270 271 268 270 273 270 270 274 280 279 279 278 277 277 277 278 278 277 277 277 278 277 278 278 278 278 278 277 277 277 278 277 277 276 276 276 276 276 275 275 274 275 275 275 275 275

GFSWCAN_925_thetae_063.txt.gz
Theta_e
310 311 311 310 307 305 302 301 301 300 300 299 299 299 299 298 297 297 297 297 297 298 298 299 301 304 307 310 313 313 313 313 314 314 313 312 312 312 313 312 312 313 313 313 312 313 314 309 312 315 318 315 314 314
309 310 309 309 309 306 303 301 300 299 300 298 298 299 298 299 298 298 297 297 297 296 297 296 296 296 297 300 303 310 312 312 313 314 313 313 313 314 312 313 312 313 312 313 311 312 310 311 313 312 312 314 314 313
308 308 308 308 309 307 304 302 301 299 299 298 297 298 298 299 298 297 297 297 296 296 296 297 297 296 295 295 299 306 311 311 311 312 314 313 313 313 314 313 314 312 311 311 312 313 311 310 311 311 311 311 311 310
306 306 307 307 308 308 305 302 301 300 300 297 299 299 298 298 299 297 298 297 296 296 296 296 295 296 298 299 295 297 302 306 310 312 314 313 312 312 313 313 314 313 313 313 313 312 313 314 313 313 311 310 310 309
300 305 305 306 306 308 306 303 301 300 299 298 299 298 297 297 297 297 297 297 296 296 297 297 295 295 295 296 298 297 299 302 308 314 314 313 312 311 312 312 313 312 313 314 314 312 313 314 313 309 310 310 309 309
293 296 302 304 305 305 306 304 301 300 299 298 298 297 296 297 296 296 296 296 296 296 297 297 297 298 301 300 296 301 301 304 309 313 313 313 312 312 312 311 310 310 311 311 312 311 311 310 308 306 307 306 306 305
290 293 294 299 303 304 305 304 301 300 299 298 297 297 297 296 296 296 296 296 295 295 297 297 299 301 300 302 304 305 304 308 311 313 313 313 313 312 312 312 310 310 310 309 308 308 310 310 311 306 305 305 303 303
289 291 292 295 297 302 304 304 301 300 299 297 297 297 297 296 296 296 295 295 295 295 296 298 300 303 304 305 306 307 308 308 312 312 312 313 313 312 313 311 310 310 309 306 306 304 305 304 304 304 304 303 303 303
289 290 294 294 295 300 302 304 301 300 298 297 296 296 296 296 297 297 296 296 295 296 298 300 303 309 305 304 308 309 310 308 310 313 312 311 312 313 311 310 311 309 307 306 303 301 301 302 304 303 303 304 303 303
290 291 293 294 295 298 301 303 301 299 297 296 295 297 297 296 296 295 296 296 295 295 296 298 301 306 306 306 309 310 311 312 311 311 310 311 311 310 308 304 303 304 301 300 302 303 302 301 301 302 302 303 303 303
294 295 295 297 297 299 300 302 300 297 296 294 295 298 298 297 296 298 300 298 298 300 299 300 304 306 306 311 311 309 309 310 313 311 312 311 310 309 300 297 296 295 295 296 297 298 299 299 300 300 301 301 302 302
297 297 297 298 298 299 299 301 297 296 294 294 296 297 296 298 300 301 303 302 303 306 305 307 308 306 307 307 308 308 310 308 314 308 310 311 309 301 298 296 295 296 297 297 297 298 297 296 296 297 298 299 297 297
299 300 300 299 299 300 301 298 296 294 293 295 296 296 298 300 302 305 306 307 307 306 307 307 308 307 306 307 308 309 311 312 307 310 310 309 302 298 296 296 296 295 295 295 295 294 293 293 294 294 295 296 294 294
299 299 300 300 300 301 299 297 295 293 292 296 298 301 301 304 303 305 306 308 305 306 306 307 307 308 307 308 308 310 308 308 310 311 310 308 301 298 296 296 296 295 294 294 294 294 294 293 292 292 291 293 294 292
299 300 300 301 301 298 296 294 293 292 295 298 298 301 302 302 301 300 299 301 302 303 304 305 304 306 307 307 306 307 307 309 309 309 309 304 298 296 295 295 295 294 293 292 292 293 292 292 292 292 291 290 290 292
301 301 299 298 296 295 294 293 292 293 293 296 296 298 298 299 302 301 300 301 301 303 301 303 304 307 307 305 307 308 307 308 310 310 304 298 296 295 294 293 293 292 292 290 290 290 290 290 291 291 291 290 289 288
298 295 295 295 295 294 292 292 291 293 295 293 294 294 296 297 299 301 300 300 299 303 305 302 306 305 304 305 305 305 308 311 309 303 300 298 296 295 293 291 291 291 289 289 289 288 288 288 289 289 289 287 288 288
295 295 295 293 293 292 291 291 292 292 292 292 293 295 293 295 297 298 297 296 298 300 300 303 302 305 304 305 307 309 307 301 298 299 298 296 295 293 292 291 290 288 287 287 286 285 286 287 287 287 285 284 286 288
295 295 293 293 293 292 292 290 291 293 291 292 292 293 294 294 293 292 294 295 294 295 298 300 303 303 305 306 307 305 302 301 300 297 296 295 294 292 291 288 288 286 285 285 285 285 284 284 284 284 283 284 285 286
293 293 292 292 292 291 291 290 289 292 292 293 292 293 293 293 291 291 293 294 295 297 299 299 300 302 302 300 298 299 297 297 297 296 295 292 291 289 289 288 288 287 284 284 283 283 284 284 283 282 282 284 284 285
291 291 292 292 289 289 290 289 290 290 291 292 290 292 292 291 292 293 294 291 295 296 297 297 297 298 293 293 292 293 294 294 296 298 298 295 290 289 289 287 285 284 284 284 284 284 283 283 283 281 282 283 283 283
291 291 291 289 288 287 287 285 289 289 291 290 290 290 291 292 292 291 288 292 294 295 295 294 294 293 292 292 292 290 292 291 291 290 290 291 289 288 288 287 285 285 284 285 284 284 284 282 281 281 282 282 282 282
291 290 287 285 286 287 285 284 288 287 291 290 289 291 291 290 288 286 290 291 291 291 291 290 288 286 287 287 286 287 287 288 291 290 289 289 288 288 287 286 285 285 285 284 282 282 282 281 281 281 281 281 281 281
291 286 287 286 287 285 283 284 285 286 287 289 289 290 289 288 285 288 290 291 291 289 288 288 286 286 286 283 285 288 288 287 289 288 287 286 286 284 284 284 283 283 283 283 281 281 281 280 280 280 280 280 280 279
292 287 289 287 283 285 286 286 284 286 287 285 287 288 286 283 288 289 291 293 291 290 289 287 285 285 286 288 287 286 285 285 287 288 287 285 285 282 282 281 282 282 282 281 281 280 280 280 279 279 279 279 278 278
289 286 288 288 287 288 287 288 285 286 285 285 285 282 282 286 288 291 292 292 291 290 289 288 288 287 286 285 286 287 286 285 285 286 287 285 284 284 286 285 284 284 283 282 281 281 280 279 279 278 278 278 278 279
291 289 286 283 284 283 284 283 283 285 284 284 285 283 285 286 289 291 289 287 288 286 284 284 284 286 288 287 285 285 285 283 284 285 285 285 284 284 283 285 284 283 283 282 281 280 280 279 278 278 277 277 277 276
289 286 288 285 283 281 284 284 284 284 287 285 285 284 286 289 293 291 288 284 283 283 283 283 283 283 283 284 284 284 284 284 282 282 283 283 282 282 283 282 282 282 282 281 280 279 279 278 277 277 277 276 276 276
289 285 284 278 279 282 283 286 287 286 284 285 288 289 288 285 286 285 283 283 282 282 282 283 285 284 283 283 283 282 282 281 280 281 282 285 285 283 283 282 282 281 281 280 279 278 278 277 277 277 277 277 277 276
287 284 284 279 280 286 288 283 284 278 278 281 280 281 282 282 283 284 283 282 280 282 285 285 285 283 282 282 283 282 282 282 281 283 285 285 285 284 283 282 281 280 280 279 278 277 277 276 276 276 276 276 275 275
281 283 283 283 284 286 279 272 273 275 276 277 275 279 283 282 279 284 285 285 285 284 283 282 282 280 280 280 280 281 282 282 282 282 282 282 282 281 281 280 279 278 277 276 276 276 275 275 274 274 274 274 274 275
281 282 283 281 285 277 272 276 278 278 279 277 280 276 276 278 281 284 287 285 281 280 281 282 281 282 282 281 280 279 280 280 280 281 281 279 279 280 279 278 277 277 276 276 276 275 275 274 274 273 273 274 274 274
277 277 275 278 280 282 277 277 279 279 277 278 280 279 279 280 283 284 281 281 280 279 279 278 278 278 278 278 278 277 277 278 278 278 278 278 278 278 278 277 277 277 276 276 276 275 275 275 274 274 274 274 274 275

GFSWCAN_925_thetae_066.txt.gz
Theta_e
312 311 310 310 309 309 307 306 304 302 300 300 300 299 299 299 299 298 298 298 297 297 297 297 298 299 300 305 311 311 313 312 313 315 316 313 312 312 311 311 311 311 312 312 312 314 310 311 310 314 315 313 313 313
309 310 310 309 309 308 307 306 305 302 301 300 300 298 298 299 299 299 298 298 297 297 297 296 296 296 297 298 300 304 309 312 312 312 312 311 311 311 310 313 311 311 310 310 309 310 310 309 311 311 311 313 312 311
305 307 308 308 308 308 308 307 306 303 301 300 299 298 298 299 299 299 298 298 297 297 296 296 297 297 296 295 296 300 306 311 311 310 312 313 312 311 312 311 312 311 309 310 310 310 309 308 309 311 312 311 310 309
301 302 304 306 307 307 307 307 307 305 302 301 300 299 299 299 298 298 298 298 297 297 296 295 295 296 295 297 296 297 299 302 302 307 312 312 311 310 311 312 312 311 310 310 310 309 311 313 310 309 309 309 309 307
294 295 298 304 305 305 305 306 306 306 304 301 301 300 298 297 296 297 298 297 297 296 296 296 295 295 296 295 296 298 297 298 299 308 312 312 311 310 309 310 310 309 311 311 312 311 310 311 309 308 310 309 308 308
290 290 291 293 297 301 303 304 305 305 305 301 300 299 297 296 297 296 296 296 297 296 297 296 296 295 296 299 295 298 296 298 300 309 312 311 311 310 309 311 309 307 308 308 309 309 309 308 306 305 306 305 305 304
289 289 289 290 291 293 295 301 303 305 305 302 300 299 297 295 297 296 296 296 295 295 296 295 297 300 301 300 295 297 299 300 301 305 312 311 312 312 311 311 308 307 309 309 307 307 309 308 308 304 304 304 303 302
289 289 289 289 290 292 295 295 299 303 304 301 300 297 297 296 296 296 295 295 295 294 296 295 296 301 302 303 302 301 302 303 303 309 311 312 312 311 313 310 308 307 307 306 305 304 303 303 303 304 303 302 302 301
289 289 290 293 296 297 297 297 297 301 302 301 298 296 295 296 296 297 296 296 295 295 298 298 299 304 304 305 305 303 305 306 306 310 311 311 312 313 311 310 309 308 306 305 303 301 301 302 302 303 302 301 302 301
289 290 293 294 295 296 297 296 298 301 301 297 295 296 297 297 297 295 296 296 295 296 296 296 298 302 305 306 304 305 306 307 309 308 309 310 311 309 308 303 300 300 300 300 302 302 301 301 300 301 301 300 300 300
294 295 295 296 296 297 297 297 299 300 296 294 295 296 297 296 295 297 299 298 297 298 297 297 298 303 305 306 305 308 306 307 311 310 310 310 309 308 298 296 295 296 296 296 297 298 299 299 298 298 298 298 299 300
295 296 296 297 297 298 298 298 299 297 294 295 296 296 297 296 298 300 301 299 300 301 302 303 306 304 307 306 307 308 307 306 312 307 310 309 307 300 297 295 295 296 297 298 297 297 296 296 295 296 297 298 297 295
295 296 297 297 299 299 299 298 298 295 293 294 295 296 298 298 300 301 302 305 305 305 305 306 307 307 306 306 307 308 309 310 307 308 309 308 301 298 296 296 295 295 295 296 295 294 294 294 294 294 293 294 295 294
297 297 298 298 299 299 299 299 294 294 293 295 296 299 299 302 302 303 303 305 304 304 304 306 305 306 307 307 308 307 308 307 309 310 307 305 299 296 295 295 296 295 295 294 295 294 294 294 293 293 291 291 292 293
298 298 298 299 300 300 298 295 294 293 294 296 298 299 300 299 300 299 298 300 301 302 304 305 302 306 305 305 305 304 307 308 308 307 303 298 296 294 294 295 296 294 293 292 292 292 292 292 292 292 291 290 289 289
299 299 299 299 300 300 295 293 292 292 292 296 297 298 298 298 299 299 298 300 300 302 301 302 303 306 306 305 306 307 307 305 303 300 296 294 294 293 293 293 293 292 290 290 290 289 289 289 289 290 291 289 289 288
301 299 300 300 300 293 292 293 291 292 294 294 294 294 296 296 297 299 299 300 297 301 303 301 306 306 302 305 305 304 302 302 298 295 292 294 295 292 290 290 290 290 288 288 289 288 288 287 288 288 285 285 285 288
297 299 296 293 292 293 291 291 292 292 291 291 292 295 294 295 296 298 297 295 296 297 299 303 301 303 304 304 302 299 297 293 291 292 292 293 292 290 290 289 290 288 287 287 286 285 286 286 285 285 284 284 285 286
296 293 293 293 294 292 292 290 291 291 290 292 292 292 292 293 293 292 294 295 293 293 296 299 303 303 302 299 298 297 292 292 295 294 293 293 292 291 290 289 288 286 285 285 285 284 284 284 283 283 283 283 284 285
293 293 292 293 294 291 291 290 289 291 290 291 292 292 292 292 290 290 291 293 295 296 298 299 300 300 300 295 291 291 290 292 293 293 292 290 291 290 288 287 287 287 285 284 283 284 283 283 283 282 282 283 284 283
292 291 292 293 290 289 289 290 290 290 291 291 290 291 291 290 291 292 293 290 292 291 292 292 296 296 291 292 292 291 291 291 292 293 293 288 289 289 289 288 287 286 283 283 282 282 284 283 283 282 282 282 283 283
291 292 292 290 288 287 286 285 289 288 290 290 289 289 291 290 291 290 287 290 291 292 292 292 289 288 287 289 287 290 290 290 291 290 290 291 286 283 283 287 285 281 283 283 284 283 284 283 282 282 282 282 282 282
292 291 288 287 285 285 283 284 286 285 290 289 284 288 285 284 282 283 285 288 289 289 290 287 286 286 284 287 287 287 287 288 285 288 289 289 289 289 288 288 287 284 281 284 284 283 283 282 282 282 281 281 281 281
291 287 287 285 285 283 282 281 284 284 283 285 285 287 286 286 283 286 287 288 289 288 287 286 284 281 281 280 279 280 287 288 287 289 289 287 279 284 286 287 286 285 285 284 284 282 281 281 281 281 280 280 280 279
289 287 287 285 282 281 281 282 281 283 283 282 283 283 282 280 286 289 291 292 291 289 288 286 284 284 283 280 281 286 287 287 285 281 288 287 286 284 283 283 283 283 283 283 282 281 281 281 280 280 280 279 279 279
287 287 287 286 284 283 283 280 279 279 280 279 280 278 278 282 284 286 288 288 287 287 287 286 286 285 284 284 283 283 286 285 284 284 287 287 286 284 280 278 277 282 283 283 282 282 281 281 280 279 279 279 280 280
289 288 286 283 283 282 282 282 282 281 278 278 278 278 279 282 282 286 284 282 283 287 285 285 286 285 285 286 286 286 285 285 284 285 285 285 285 285 285 283 280 284 284 284 283 282 281 281 280 280 279 279 278 278
287 285 282 282 281 279 280 280 279 279 280 282 282 278 279 283 286 284 281 285 285 284 284 284 284 285 285 286 285 285 285 284 284 283 284 285 286 286 285 284 283 283 283 283 282 281 281 280 280 279 278 278 277 277
284 283 282 276 276 278 278 280 280 282 282 280 280 282 281 281 279 279 284 284 283 283 283 283 286 286 286 286 284 283 283 282 281 279 279 281 278 287 287 286 283 282 281 281 280 280 280 279 278 278 278 278 278 277
282 281 280 276 279 282 280 278 278 274 276 277 277 277 277 276 284 286 285 283 281 280 285 286 286 285 283 281 281 283 283 282 282 282 282 283 283 286 285 284 282 281 280 280 280 279 278 279 279 278 277 277 276 276
280 280 279 279 279 278 272 270 271 273 272 271 271 273 277 275 279 285 286 287 286 285 284 283 283 283 283 281 279 275 279 283 283 282 282 282 282 283 283 282 281 280 280 279 278 277 277 276 276 275 275 274 275 274
279 276 277 279 278 272 269 271 271 272 272 271 272 270 270 272 275 277 287 287 283 281 283 284 282 282 283 283 282 281 281 281 281 281 281 280 280 279 279 279 279 278 277 277 276 276 275 275 274 274 273 274 274 274
273 272 271 272 274 275 272 272 273 273 271 270 273 273 272 275 279 279 282 282 283 283 282 281 280 280 279 279 278 278 278 278 278 278 278 278 278 278 277 277 277 277 277 277 276 276 275 274 274 274 274 274 274 274

GFSWCAN_925_thetae_069.txt.gz
Theta_e
313 312 311 310 309 308 308 307 306 305 303 302 300 300 298 298 298 299 297 297 297 293 294 295 295 296 296 298 302 305 308 311 311 313 313 313 310 311 310 308 309 310 312 311 309 314 310 309 310 315 314 312 312 312
312 311 311 310 309 309 308 307 306 305 304 303 301 300 298 298 299 299 298 298 298 296 295 296 296 296 296 296 297 299 305 304 312 311 309 309 309 307 307 311 306 309 308 308 307 308 306 307 310 311 310 313 311 311
309 310 309 309 309 308 307 306 306 306 306 303 302 300 299 298 299 299 299 298 297 297 296 294 295 296 296 296 295 297 299 302 305 301 309 311 311 307 309 309 311 309 306 308 308 308 307 307 308 310 311 310 309 309
307 307 307 307 307 307 307 306 306 305 305 305 303 301 300 298 299 298 298 298 297 297 298 294 295 294 295 295 296 295 296 296 298 296 301 311 312 307 308 308 308 307 307 307 307 308 308 308 306 308 308 307 307 306
300 300 300 302 303 304 305 305 305 305 304 304 304 302 301 299 298 297 297 297 298 297 295 295 295 295 295 294 294 295 295 297 298 298 304 312 309 308 306 307 308 307 309 308 309 307 308 310 308 306 307 308 307 307
291 291 291 291 291 292 293 295 300 302 303 303 304 303 301 299 297 297 295 296 297 297 296 296 294 294 295 295 295 295 296 297 298 298 301 307 309 309 308 309 307 305 305 306 307 308 308 307 305 305 305 304 304 304
290 290 289 289 289 290 291 292 293 295 301 303 303 303 300 298 297 295 295 296 294 295 295 294 291 294 299 298 295 297 297 298 299 299 300 301 306 311 310 310 307 305 306 306 305 306 308 307 307 303 303 303 303 302
290 289 289 289 289 290 290 291 292 293 296 301 304 302 299 297 297 296 296 296 295 294 293 296 292 294 300 301 296 296 299 299 300 302 304 308 310 310 313 309 307 305 305 304 303 303 303 302 302 303 302 302 302 301
290 290 289 289 290 291 292 294 296 295 295 300 302 298 296 296 295 295 296 295 295 294 296 296 291 293 301 303 301 298 300 301 301 304 305 308 310 311 309 309 308 306 305 304 301 300 300 302 302 302 301 301 301 300
290 290 290 290 291 294 295 296 296 297 299 299 296 294 296 296 297 296 295 296 295 295 296 296 294 295 300 304 304 303 302 306 305 305 308 310 310 308 307 305 300 302 302 300 301 302 300 300 299 300 299 298 298 298
290 290 290 292 293 295 297 297 297 298 297 296 294 296 297 296 295 296 299 298 297 296 296 296 295 295 301 305 305 302 305 305 311 309 309 309 309 307 297 295 294 295 296 296 298 298 298 298 298 297 297 297 298 299
290 290 291 293 295 296 297 298 297 297 295 295 295 296 296 296 297 298 299 298 298 297 299 299 300 299 302 304 306 306 306 306 311 308 310 310 307 298 295 294 294 295 296 297 297 297 296 296 295 296 296 297 296 296
290 293 295 296 296 297 298 299 298 296 295 293 293 295 297 298 298 300 293 302 303 302 302 304 305 306 305 306 306 307 308 308 307 308 308 306 301 296 295 295 295 295 296 296 296 295 295 294 294 294 293 293 294 294
294 295 296 296 297 298 298 299 298 296 295 293 296 297 298 298 299 298 300 303 302 302 303 305 303 303 305 307 307 306 308 307 308 309 306 303 299 295 295 295 296 296 295 295 294 293 293 293 293 292 291 290 290 290
296 297 298 298 298 298 299 298 296 295 292 294 295 295 295 295 298 299 297 298 299 300 302 304 302 304 303 304 304 304 305 306 307 307 302 297 295 294 294 295 295 295 294 293 292 292 291 291 291 291 290 290 289 288
298 299 299 298 299 299 299 295 294 293 292 295 295 297 295 294 295 298 298 298 299 301 301 301 303 305 306 305 303 304 304 305 301 300 296 292 293 293 293 294 293 291 290 289 289 289 289 289 289 289 288 285 287 288
300 300 299 299 299 298 295 294 292 292 293 294 290 293 293 293 295 296 299 299 296 300 303 301 305 304 302 303 303 303 304 298 300 295 289 292 293 292 291 290 290 289 288 288 288 287 287 286 288 286 283 283 285 287
299 300 300 299 294 293 292 291 291 290 290 288 291 290 293 293 294 296 296 296 296 297 298 302 299 300 304 304 303 299 296 294 287 288 289 291 290 288 289 288 289 288 287 286 286 285 285 285 284 283 283 283 284 284
299 299 300 295 294 294 291 290 290 289 286 288 290 289 290 291 292 291 292 294 294 293 295 298 302 295 299 300 300 298 294 290 293 292 291 291 291 289 289 289 288 286 286 285 284 284 284 283 283 283 282 283 283 283
294 294 293 294 294 291 289 287 288 285 285 288 287 288 288 290 290 287 287 291 293 295 297 298 297 297 297 296 293 293 290 290 291 292 291 289 290 289 288 287 287 286 284 284 284 284 283 283 283 283 282 283 283 283
292 292 292 293 289 289 287 289 290 290 290 290 288 290 290 289 290 290 291 289 289 289 290 292 294 294 288 291 292 291 290 290 291 291 291 287 288 289 288 288 288 286 284 282 281 282 284 282 283 283 282 282 282 283
291 292 292 290 287 286 284 284 288 288 290 289 289 289 290 289 289 289 285 288 291 287 289 292 289 287 286 288 286 289 290 289 289 289 290 290 286 282 282 286 285 282 283 283 283 282 283 284 283 282 282 282 282 282
293 292 288 287 286 285 284 283 284 286 289 288 281 287 280 278 277 276 283 280 285 283 286 286 285 286 284 287 286 286 286 286 284 286 287 288 288 289 288 288 287 284 280 284 284 284 283 283 283 283 282 282 281 281
291 287 287 286 286 284 282 279 282 280 278 283 278 282 279 277 275 277 281 282 285 284 284 284 283 283 281 279 278 279 285 286 285 285 288 287 278 284 287 288 287 287 287 287 286 284 283 282 282 282 281 281 281 280
291 288 287 284 281 283 281 280 277 279 279 275 278 278 277 274 279 280 284 287 287 287 286 285 284 284 284 282 281 284 287 286 284 279 286 287 286 284 284 284 285 285 285 285 284 283 282 282 281 281 281 280 280 280
288 286 286 284 283 284 282 281 277 278 276 276 275 272 271 276 279 283 283 283 283 284 283 283 284 284 284 284 284 283 287 286 285 283 286 287 287 284 280 278 277 283 284 283 283 282 282 281 281 281 280 280 280 281
288 287 286 283 283 282 281 280 280 278 275 277 273 275 273 280 279 283 281 278 280 285 286 286 286 284 283 286 287 287 286 286 285 286 286 286 286 286 286 283 281 287 286 284 283 283 282 282 281 281 280 280 279 279
286 283 283 279 279 276 279 277 276 277 277 279 279 277 278 281 284 281 279 285 286 285 285 285 286 286 286 287 285 284 285 285 284 284 284 285 286 286 286 286 286 286 285 284 283 283 282 282 281 281 280 279 279 278
282 281 280 277 275 276 276 279 278 279 280 278 278 278 278 279 276 276 286 286 286 284 282 283 287 287 286 286 285 284 283 282 281 280 280 282 278 286 287 287 287 285 283 282 282 282 281 280 280 279 278 278 278 278
281 278 278 273 279 282 277 275 275 270 273 276 276 275 275 275 284 287 286 285 282 280 284 285 286 284 282 282 282 283 284 283 282 281 281 282 282 284 285 285 285 284 281 280 280 280 280 281 280 280 279 278 277 276
276 273 274 274 277 272 270 267 268 272 269 268 266 273 276 273 278 285 286 286 285 284 282 281 281 283 282 280 278 273 278 284 284 283 282 281 281 281 282 283 283 282 280 279 278 278 278 277 277 277 276 276 276 274
276 273 275 280 277 269 266 267 266 268 265 267 270 264 268 270 273 276 283 284 281 280 281 282 280 282 284 284 283 283 282 282 282 281 281 281 280 280 279 279 280 279 279 278 277 277 276 276 275 275 274 274 274 274
267 266 267 269 273 273 270 270 270 271 268 267 269 267 267 272 278 277 282 282 280 280 279 280 280 280 280 279 279 279 279 278 278 278 278 279 279 278 278 277 277 277 277 277 277 276 275 275 275 274 274 274 274 274

GFSWCAN_925_thetae_072.txt.gz
Theta_e
315 314 312 311 311 309 309 307 306 305 304 303 302 301 299 298 298 298 297 297 297 293 293 295 295 294 294 295 297 297 298 310 312 313 313 313 310 308 307 307 308 311 313 313 312 313 311 308 309 313 312 311 311 309
313 313 312 311 310 308 307 307 306 305 304 303 303 302 300 298 298 299 297 298 297 296 297 296 296 296 296 296 295 296 299 300 304 310 310 308 308 306 306 309 305 309 306 309 308 308 305 306 308 307 309 311 311 311
313 312 311 310 309 309 308 307 306 306 305 304 304 302 301 299 298 299 298 298 297 297 298 296 295 296 295 295 295 295 296 298 300 296 300 309 308 305 307 307 307 306 304 307 306 307 305 306 307 309 310 311 309 309
312 311 310 309 309 308 307 306 305 305 305 304 303 304 303 301 299 299 299 298 298 297 298 295 295 294 295 294 295 295 295 296 297 297 298 300 312 306 306 306 306 305 305 306 306 306 306 306 305 308 308 307 307 306
310 309 309 308 308 307 306 306 305 305 304 305 304 304 303 302 300 299 298 297 297 298 297 297 296 295 295 295 294 294 294 295 296 297 298 300 305 308 305 306 307 306 307 307 308 306 306 306 307 305 306 306 306 306
307 305 304 304 303 302 300 301 300 300 302 302 302 303 303 303 300 298 293 295 296 298 297 293 293 293 294 295 294 293 294 295 297 298 299 300 300 305 309 308 307 305 304 304 306 307 307 307 305 305 306 304 304 304
294 292 291 290 290 290 290 290 290 292 293 295 301 303 303 301 298 296 295 295 295 296 294 292 290 291 297 298 295 296 295 297 297 297 298 302 302 303 308 308 307 304 303 304 304 305 307 306 308 303 303 303 303 302
290 290 290 290 290 289 290 290 291 293 293 292 297 301 302 299 297 297 296 295 295 294 293 292 292 291 298 300 295 294 297 298 298 298 299 302 305 304 310 308 307 305 303 305 304 303 304 301 300 301 301 301 302 300
290 290 290 289 290 290 290 291 294 296 296 298 300 300 297 296 296 294 296 295 296 294 294 294 291 291 299 302 299 296 296 298 296 298 301 303 305 309 308 307 308 306 304 303 300 300 300 301 301 300 300 300 301 299
290 290 290 290 291 291 294 295 295 297 297 298 298 297 297 295 296 296 295 297 295 295 295 295 294 294 297 300 303 299 300 302 301 300 303 304 306 305 306 304 303 303 301 299 300 300 300 300 299 300 300 297 297 297
292 291 290 293 293 295 296 297 296 296 296 297 295 297 296 296 295 295 296 296 296 294 295 295 294 294 297 299 304 302 304 303 307 304 308 309 309 306 297 296 295 295 296 297 298 298 299 299 298 298 297 297 297 298
291 292 293 293 294 296 297 298 297 296 295 295 295 296 295 296 297 297 298 297 296 295 297 297 298 296 297 300 303 304 305 305 311 304 307 309 307 297 295 294 295 296 297 298 298 297 297 296 296 296 297 297 296 296
293 292 293 294 295 295 297 298 297 296 295 295 294 294 296 297 298 297 290 294 295 299 300 299 302 303 302 304 306 306 308 308 307 309 308 305 299 295 293 294 295 296 296 296 296 295 295 294 294 294 294 293 293 294
291 292 295 295 296 296 297 298 297 296 295 290 295 295 296 296 294 293 292 298 301 301 301 301 304 303 302 304 306 307 308 307 308 308 303 302 298 295 293 295 296 296 296 296 295 294 294 293 292 291 291 290 290 289
292 295 295 296 297 297 297 298 297 295 294 290 294 293 294 292 291 298 297 298 298 300 301 303 302 303 302 304 304 304 305 304 305 305 299 296 296 293 294 295 296 296 296 294 293 292 292 292 292 290 289 289 289 289
296 297 297 297 297 298 298 297 295 294 292 293 292 294 293 296 285 296 298 298 298 299 300 300 302 304 306 304 303 304 305 304 304 301 298 290 293 293 294 295 294 294 293 290 290 289 289 289 289 289 286 284 286 288
299 300 299 299 298 298 298 295 294 293 293 293 290 291 288 289 288 292 296 298 296 299 302 301 304 303 301 299 300 300 303 303 300 297 290 291 294 293 291 293 291 290 289 288 288 287 287 286 288 285 283 283 285 285
300 301 301 300 298 295 292 292 291 291 290 283 286 285 291 292 291 294 294 295 296 297 298 302 298 299 300 299 298 300 299 297 292 290 290 289 290 289 291 290 290 288 287 287 287 286 285 285 284 283 283 283 284 284
300 300 300 299 296 294 291 290 291 291 284 281 284 285 287 290 290 290 291 293 294 294 294 297 300 301 299 299 300 299 296 293 294 292 291 290 290 288 289 289 289 287 286 285 284 284 284 283 283 283 282 282 282 283
299 299 297 296 296 291 290 288 288 286 285 285 282 283 286 288 288 288 289 291 292 293 297 298 297 297 297 296 292 292 290 291 291 293 292 290 289 288 287 287 287 287 285 284 284 284 283 282 283 283 282 282 283 283
293 291 292 294 290 289 288 287 289 284 285 283 281 285 286 285 290 289 290 290 292 291 292 290 293 293 289 292 292 291 290 290 291 292 292 288 288 288 287 287 287 286 284 283 282 282 285 282 283 283 283 282 282 282
291 292 292 290 288 286 285 284 283 287 286 287 289 289 289 289 289 289 286 288 290 287 285 288 285 285 286 288 287 289 289 289 288 288 289 289 287 282 282 286 284 282 283 284 284 282 284 284 284 283 283 282 282 282
292 292 288 287 287 286 284 283 283 287 287 287 285 288 285 281 280 279 285 282 284 282 284 284 283 286 284 287 285 285 285 285 284 285 286 286 287 288 287 287 287 284 281 284 286 285 284 284 283 283 283 282 281 281
292 287 287 286 283 282 281 281 284 284 283 283 281 285 280 277 274 276 281 279 282 279 281 281 281 280 280 280 280 281 284 285 284 284 286 285 278 284 287 287 287 287 287 287 287 286 285 283 283 283 282 282 281 280
291 287 287 283 280 282 284 284 283 283 283 278 280 279 277 273 277 276 280 283 280 280 281 282 283 283 284 283 282 284 286 286 283 280 286 286 286 285 285 285 285 286 286 286 284 285 284 284 283 282 282 281 281 280
288 283 284 283 284 287 285 285 282 281 280 278 277 272 270 273 277 281 280 278 278 279 279 281 282 282 283 284 283 282 287 287 285 282 286 286 286 284 278 277 277 285 288 286 285 284 284 283 282 281 281 281 281 282
285 285 285 283 284 283 282 281 281 280 277 279 275 275 273 279 277 281 278 275 277 285 287 287 286 283 282 286 287 287 286 286 286 286 286 285 285 286 285 282 280 287 288 287 285 283 283 283 282 281 281 281 281 280
286 285 285 281 280 278 280 278 278 280 279 279 279 279 279 280 283 281 279 286 286 286 286 286 286 287 287 287 286 285 285 284 284 284 284 285 286 286 286 286 286 286 285 285 285 284 283 282 282 281 281 281 280 279
283 281 282 278 276 276 278 280 280 279 281 279 280 279 278 277 276 276 287 288 288 287 284 284 286 286 285 285 285 285 284 282 281 278 279 281 279 285 286 286 286 286 285 284 283 283 283 282 281 280 280 279 278 278
281 278 278 273 279 283 279 276 276 271 273 275 275 275 275 274 283 286 285 285 282 280 283 283 284 283 282 281 281 282 283 283 283 281 279 280 281 284 284 284 284 284 284 283 281 281 281 280 280 279 279 279 278 277
278 276 277 276 280 275 271 268 267 271 267 266 264 272 275 271 277 285 285 284 282 282 282 281 281 281 280 279 276 272 277 284 284 283 282 282 282 281 281 281 280 281 282 281 279 279 279 279 279 278 278 277 276 275
276 273 276 281 278 269 265 265 264 267 264 266 268 261 267 269 273 276 282 282 283 280 280 280 279 279 280 280 281 281 281 281 282 282 281 281 281 281 280 280 279 279 279 279 278 278 277 276 276 275 275 275 275 274
267 266 266 268 273 274 269 269 269 270 266 266 268 266 265 271 278 276 279 278 277 276 276 277 276 276 277 277 277 278 278 278 278 278 278 278 278 278 278 278 278 278 278 277 276 276 276 275 275 275 274 274 274 274

GFSWCAN_925_thetae_075.txt.gz
Theta_e
317 315 314 312 310 310 309 307 306 305 304 303 303 302 300 298 298 297 297 297 297 296 295 295 294 294 293 294 295 295 296 302 307 312 313 314 310 307 306 307 308 310 313 313 311 313 311 305 309 311 309 310 310 308
317 315 314 312 310 310 309 308 306 305 304 304 303 302 302 300 298 298 297 297 297 296 297 297 297 296 295 295 296 296 295 297 300 302 301 302 311 305 304 307 304 309 307 308 308 308 305 304 308 308 308 310 311 311
317 315 313 312 310 310 309 308 306 306 304 304 303 303 302 301 300 299 298 298 298 298 296 297 296 297 296 296 296 296 294 295 298 296 299 301 306 305 307 305 306 305 303 306 306 306 305 304 304 306 308 310 309 309
315 314 314 312 311 309 307 307 307 306 305 304 303 304 303 303 302 300 300 299 298 297 298 296 295 294 295 294 295 295 295 295 296 297 296 296 300 302 308 304 305 304 303 304 304 304 305 305 303 306 308 308 307 306
314 313 312 311 310 308 308 307 306 305 305 305 304 303 303 302 302 300 300 300 298 296 298 296 295 295 294 294 294 294 294 294 293 297 296 297 299 303 306 304 305 303 304 306 306 304 305 305 306 303 306 307 305 306
312 311 310 310 309 308 307 307 306 305 305 305 304 305 304 303 303 300 297 295 295 297 297 294 291 292 293 294 293 293 293 293 295 297 297 297 300 298 301 310 306 304 303 303 305 303 305 307 306 304 305 305 304 304
312 311 310 309 308 307 305 303 299 297 294 293 295 299 301 303 301 298 298 295 296 296 294 293 290 291 292 297 295 293 293 293 294 297 297 297 298 300 303 309 307 304 303 304 304 305 308 306 307 304 304 303 303 301
308 308 306 302 296 292 291 290 291 292 290 291 291 294 301 302 298 297 295 296 295 294 293 293 292 290 294 300 297 293 296 296 297 297 297 298 299 299 300 301 302 306 302 304 303 303 304 302 300 300 300 300 301 300
296 292 290 290 290 290 290 290 291 292 294 296 298 300 298 297 296 296 295 296 295 294 292 293 291 287 294 300 298 296 296 298 296 298 296 298 299 304 303 303 306 306 304 304 301 301 300 302 300 299 299 300 301 299
290 290 290 290 290 290 291 293 294 296 297 298 298 297 297 295 295 296 296 297 295 295 295 294 294 295 295 298 297 297 298 299 299 298 296 298 299 300 301 304 300 300 302 299 301 301 300 300 299 298 299 297 297 297
291 291 290 290 290 293 296 295 297 296 297 297 295 295 296 296 295 295 295 296 295 294 293 295 294 295 295 296 297 300 302 302 305 302 302 304 306 304 297 296 295 296 297 297 298 298 299 300 298 297 297 297 297 297
291 291 290 291 294 296 297 296 296 295 295 295 295 296 296 295 296 296 294 296 295 293 294 296 297 296 296 297 300 303 303 303 309 301 304 309 306 297 295 294 295 296 296 297 297 297 296 296 297 297 297 297 296 296
292 291 293 294 295 296 297 298 295 295 295 295 294 295 295 295 296 295 294 291 295 291 296 299 300 301 299 298 301 304 307 308 304 308 308 305 300 295 293 294 296 296 296 296 296 295 295 295 294 295 294 292 292 292
295 295 294 295 295 296 297 298 297 295 296 293 294 295 295 294 295 291 289 288 297 301 301 300 301 302 302 303 303 308 307 306 305 307 305 303 297 295 293 296 297 297 296 296 296 295 295 294 292 292 291 290 290 289
295 293 294 295 296 296 297 298 296 296 292 290 293 292 291 291 284 292 288 296 297 297 298 299 301 303 303 303 303 304 304 302 304 304 300 298 294 294 294 296 295 295 296 295 293 293 293 292 291 290 289 289 289 289
294 295 296 295 296 297 298 297 295 295 292 292 292 293 291 290 285 293 295 296 296 298 298 299 301 303 303 303 302 304 305 302 304 301 298 294 293 293 295 295 295 295 294 292 291 290 290 290 289 289 286 284 286 287
297 298 297 296 296 297 298 296 295 294 294 293 294 292 290 290 285 292 297 297 295 296 299 299 301 303 301 296 296 294 295 300 300 298 293 291 293 294 292 293 294 292 289 288 288 287 287 287 287 286 283 283 284 284
299 299 298 298 297 296 294 295 293 292 292 285 285 284 292 291 290 295 295 294 294 296 298 300 297 300 298 298 297 296 299 296 294 291 291 290 290 290 291 292 291 289 288 288 287 286 285 285 285 283 283 283 283 284
299 300 300 299 296 295 291 290 291 291 284 280 282 283 286 288 289 288 292 292 294 294 293 295 297 299 299 297 301 299 297 293 295 293 291 290 290 289 290 290 289 287 287 286 285 284 284 284 283 283 283 282 282 283
298 299 299 298 297 292 290 288 288 284 283 284 280 282 284 285 286 285 286 290 292 293 295 296 295 295 295 295 292 292 289 290 292 294 294 292 289 288 287 287 288 288 286 285 284 284 283 282 283 282 282 282 282 282
296 293 294 295 291 289 286 285 288 285 285 282 277 281 282 279 282 289 290 290 291 292 294 292 291 291 288 292 294 293 290 290 290 291 293 291 289 288 288 288 287 286 284 283 282 283 285 283 284 283 283 283 282 282
291 292 292 292 288 286 284 284 282 285 285 285 287 282 286 288 288 288 286 285 289 289 288 287 284 284 285 288 287 289 289 288 288 288 289 289 288 285 284 287 284 283 284 284 284 283 285 286 284 283 283 283 282 282
293 293 289 288 288 287 285 283 284 285 287 287 286 288 287 283 280 278 284 282 285 284 284 283 283 285 283 286 286 286 285 285 283 284 285 285 286 286 287 287 287 284 281 286 287 286 286 287 285 283 283 282 282 281
292 288 288 287 288 286 282 280 285 285 285 285 284 286 280 278 276 279 283 280 281 278 280 279 280 279 278 278 278 279 285 285 284 284 285 283 281 284 286 286 286 287 287 287 287 287 286 286 285 283 283 283 282 282
293 288 289 285 280 282 281 282 284 285 287 284 284 282 279 275 280 279 282 283 277 277 277 276 277 278 279 278 281 285 286 286 284 282 286 285 284 284 285 286 287 287 286 286 285 285 286 286 284 283 283 282 281 281
290 284 283 279 279 285 285 286 285 286 284 283 282 277 273 277 280 283 281 279 276 276 277 279 280 278 280 282 282 281 287 287 286 283 286 286 286 284 282 280 280 286 289 288 286 285 285 285 284 282 282 282 281 282
284 281 283 283 284 283 284 283 283 283 282 282 279 277 276 281 280 282 279 274 276 284 287 288 286 282 282 286 287 287 287 286 286 286 286 285 285 285 284 283 283 287 288 287 286 285 284 283 283 282 282 281 281 280
284 284 285 283 282 281 284 281 281 282 281 279 280 279 281 283 285 281 279 287 286 287 286 286 286 287 287 287 286 286 285 284 284 284 284 285 286 286 285 285 285 285 284 284 285 285 285 284 282 281 281 281 281 280
283 282 284 282 280 280 281 282 282 280 281 279 279 279 279 278 277 276 286 287 286 285 285 286 287 286 286 285 284 285 284 283 280 278 278 280 278 285 285 285 285 284 284 284 283 283 283 283 282 281 280 280 279 279
281 279 280 276 282 284 280 276 276 272 274 276 276 277 277 276 282 284 285 285 282 281 283 283 282 282 281 280 279 281 282 282 282 281 280 280 281 284 283 284 283 283 283 283 283 282 282 281 280 279 278 278 279 278
278 276 277 277 279 275 271 268 269 272 270 268 266 273 275 271 276 283 281 281 281 280 279 280 280 280 280 279 276 271 275 283 282 281 281 281 282 282 282 282 281 281 281 281 281 280 280 280 280 280 279 278 277 276
277 275 279 282 280 272 267 267 265 268 265 266 268 260 266 269 274 276 278 279 280 279 277 276 276 277 276 276 277 277 277 279 280 280 280 280 280 280 280 281 280 280 280 279 279 278 278 277 277 276 276 276 275 275
270 269 268 272 275 276 271 270 271 271 267 266 267 264 264 270 277 275 277 277 277 277 277 276 275 275 275 274 274 275 275 276 277 277 277 278 278 278 278 278 278 278 278 278 277 277 276 276 276 275 275 275 275 274

GFSWCAN_925_thetae_078.txt.gz
Theta_e
320 319 315 313 310 309 307 307 306 305 304 302 302 301 301 299 298 298 297 297 296 293 293 294 293 294 294 293 297 296 295 299 302 307 311 311 311 309 307 306 307 310 310 312 311 313 311 303 307 309 307 308 310 309
319 319 315 313 310 310 308 307 306 305 304 303 303 302 301 300 299 298 297 297 297 296 295 297 297 296 296 295 296 296 294 295 297 299 300 301 308 307 306 309 303 309 307 308 307 307 304 303 307 306 305 308 310 310
319 317 314 312 310 310 309 308 307 306 304 303 303 303 302 301 300 299 298 297 297 298 297 294 294 296 296 296 296 297 295 294 296 295 295 300 301 302 309 307 305 304 302 305 307 305 304 302 302 303 307 308 309 309
317 316 314 313 311 310 310 308 307 305 305 304 303 303 303 303 302 301 299 299 298 297 299 295 296 294 295 295 295 295 293 294 295 296 297 298 299 300 303 303 305 303 302 303 303 303 303 304 302 303 304 307 307 306
316 317 315 312 311 310 309 309 307 306 306 305 304 304 304 303 302 302 301 300 299 298 299 295 295 294 293 294 294 295 294 293 293 296 295 295 297 298 301 303 304 302 303 304 305 303 304 304 305 302 305 306 305 305
316 317 315 312 311 310 309 307 306 307 306 305 305 305 303 304 304 302 299 297 298 297 298 294 292 291 292 293 293 292 293 293 295 294 295 294 296 299 299 302 306 304 303 302 303 302 302 306 306 304 304 304 303 303
317 316 313 311 310 308 307 307 306 306 305 305 305 303 303 303 302 299 299 295 295 296 293 293 290 290 291 294 293 292 292 294 293 295 296 294 296 300 300 302 303 305 301 302 304 305 308 306 307 304 304 303 302 300
315 313 312 310 309 308 307 306 306 305 299 292 291 295 302 301 300 298 296 297 295 294 293 293 290 289 291 299 297 295 294 294 296 296 296 296 295 296 297 297 298 299 300 303 302 303 303 302 300 300 299 299 300 299
312 311 310 309 308 307 304 296 292 291 291 290 298 300 299 299 297 296 296 295 294 294 291 293 288 288 292 296 298 297 297 297 296 298 297 297 297 299 297 297 297 299 304 304 301 301 302 303 301 299 300 300 299 298
310 309 308 304 295 291 290 291 292 296 296 299 298 296 297 296 296 295 296 297 295 295 295 293 293 294 294 295 294 298 297 296 295 297 296 297 295 295 296 299 301 300 298 300 302 303 301 301 299 300 299 296 296 296
302 295 291 290 290 290 292 294 296 297 298 297 295 295 295 296 295 294 293 295 296 293 293 294 293 294 294 295 296 299 296 298 301 300 298 300 302 301 295 295 296 296 297 298 298 298 299 300 298 297 296 295 296 297
290 290 290 290 291 293 293 295 296 297 295 295 295 295 295 296 296 296 295 295 293 293 291 292 293 296 295 296 298 299 302 302 304 298 301 306 305 297 296 294 294 295 296 296 296 296 296 296 296 296 297 296 296 295
290 290 291 294 295 295 296 297 296 295 295 294 294 295 294 295 295 295 294 294 295 290 290 298 300 300 299 297 299 302 305 307 302 303 308 306 301 296 294 295 296 296 296 295 295 295 295 295 295 295 293 292 292 291
292 294 293 294 296 297 297 296 295 295 295 292 293 294 295 295 295 291 288 287 291 296 298 298 299 300 301 302 303 305 307 306 303 302 304 301 298 293 293 296 297 297 297 296 296 295 295 294 293 292 291 290 290 289
292 294 295 295 297 298 298 296 295 295 293 292 292 292 292 290 284 290 284 290 294 296 297 298 299 301 302 302 303 304 302 300 303 305 300 299 296 293 294 296 294 295 295 295 294 294 293 292 291 290 288 288 289 288
295 295 295 295 295 296 298 297 295 295 292 291 292 292 291 292 283 288 291 295 295 297 298 298 300 302 303 303 302 301 302 302 303 301 299 295 293 293 294 294 294 295 294 292 291 290 290 290 290 289 285 284 286 286
294 296 295 295 296 298 298 296 295 294 294 294 295 293 290 291 285 285 292 293 294 297 298 298 300 301 301 298 298 298 301 300 299 298 294 291 292 293 293 294 294 294 291 289 288 288 287 287 287 286 283 283 284 284
297 296 294 295 297 296 294 296 294 294 294 291 291 287 292 292 289 293 295 294 295 295 296 299 296 299 300 296 297 297 298 296 294 292 290 290 290 290 291 293 294 292 289 288 287 287 286 285 285 284 283 283 283 283
298 297 297 296 296 295 292 292 292 292 287 283 284 283 286 287 288 288 293 293 293 294 294 294 296 297 297 293 299 299 297 295 294 295 292 291 290 289 290 290 290 288 287 287 286 285 284 284 284 283 283 282 282 283
298 299 298 297 297 293 290 289 289 286 286 286 282 285 283 284 285 286 288 289 292 293 294 294 295 293 293 292 290 291 292 291 291 292 294 293 290 288 287 287 288 289 287 285 285 284 283 283 284 283 283 282 281 282
298 298 297 295 292 290 285 285 287 285 285 283 281 280 281 278 279 280 283 288 291 292 291 291 292 290 288 289 294 294 293 290 290 290 291 289 290 289 289 289 288 286 285 284 283 283 286 284 285 284 283 283 283 283
292 294 293 292 288 286 284 284 284 285 282 282 286 279 277 279 278 279 280 286 289 285 287 287 285 284 284 287 288 291 291 289 288 288 288 289 288 284 284 287 284 283 284 285 285 284 286 288 286 285 284 283 282 282
293 293 290 289 288 287 285 284 285 282 284 285 283 286 287 286 279 276 277 278 280 281 283 283 284 286 283 287 286 287 287 285 283 283 284 284 285 285 285 285 286 284 284 286 287 287 286 288 286 284 284 282 282 282
292 288 289 288 288 286 284 281 283 281 279 281 279 280 278 276 275 276 280 280 280 277 279 278 281 279 278 277 277 279 285 285 284 284 285 283 280 283 285 285 286 286 286 286 286 286 287 286 285 284 283 282 282 282
293 289 289 285 282 283 280 280 278 281 281 281 281 281 277 273 277 275 281 282 276 276 278 276 277 277 277 273 277 283 286 286 284 280 286 285 285 284 285 286 286 287 287 286 285 285 286 285 285 284 282 282 282 282
285 283 285 281 280 281 281 279 278 279 280 280 281 274 272 277 280 284 282 279 277 278 278 280 281 277 278 280 278 277 287 287 286 284 286 286 286 285 280 281 281 285 288 288 286 285 285 285 284 283 282 282 282 282
283 284 282 282 282 281 281 281 282 280 281 283 279 279 278 282 282 283 280 277 279 283 287 288 286 282 283 285 287 287 286 286 286 286 285 285 285 284 284 283 282 285 286 286 286 285 284 284 283 282 282 282 281 281
282 282 283 279 279 278 282 281 281 283 283 280 281 280 282 283 284 282 281 285 285 286 286 285 285 285 285 285 285 285 285 284 284 283 283 284 286 286 286 285 285 284 283 283 283 283 283 283 283 283 282 281 281 280
280 280 281 279 281 281 281 281 282 281 281 280 282 281 280 279 277 277 285 286 285 284 284 284 285 283 284 283 283 283 283 283 280 276 278 281 276 284 285 285 284 284 284 284 284 284 283 283 283 282 281 280 279 279
279 277 281 281 283 284 282 278 278 274 275 276 276 276 277 277 281 282 282 281 281 280 280 280 280 280 280 279 279 282 283 282 281 279 278 278 278 282 282 283 283 282 282 282 282 282 282 282 280 280 279 278 278 278
279 278 279 278 282 277 274 270 269 272 270 269 267 273 277 273 276 277 278 278 279 280 280 279 280 279 278 278 275 270 274 280 279 277 276 277 278 279 279 280 280 280 280 280 280 281 281 280 280 279 279 278 277 277
277 275 279 280 279 271 268 269 270 272 271 272 272 265 269 271 275 273 277 278 278 277 277 276 275 276 276 275 274 274 272 273 275 275 276 276 277 278 279 279 280 280 279 280 280 279 279 279 279 278 278 277 276 275
273 273 273 277 277 277 272 271 273 273 270 269 268 264 263 269 276 273 276 276 276 277 277 277 276 275 274 273 273 273 273 273 274 274 274 275 277 279 280 279 278 277 278 278 278 277 277 277 276 276 276 275 275 274

GFSWCAN_925_thetae_081.txt.gz
Theta_e
322 320 320 318 314 309 308 305 305 305 304 303 301 300 299 299 298 298 297 297 296 293 293 292 293 293 293 292 295 295 294 296 297 302 299 304 307 306 308 307 308 311 311 311 311 312 312 303 304 308 306 307 309 309
321 318 319 317 313 309 307 306 306 305 303 302 302 301 300 299 299 298 297 297 296 295 294 296 296 296 296 295 296 296 295 294 294 293 294 293 301 303 306 311 304 310 306 307 307 308 304 302 306 304 304 306 309 309
319 316 314 315 312 309 307 308 307 305 304 302 302 301 301 300 300 299 297 297 297 298 296 294 295 295 296 296 296 297 294 294 294 294 293 295 297 298 305 307 306 305 301 305 307 305 304 303 302 302 303 306 308 309
318 317 314 316 311 309 308 308 306 305 304 302 303 302 302 302 301 300 299 299 299 298 299 295 295 295 294 294 295 295 293 294 295 296 296 295 298 298 299 299 300 303 302 303 303 303 302 303 301 301 301 303 307 306
318 315 313 313 310 309 308 307 306 305 304 303 303 302 302 303 302 301 300 299 299 299 300 296 294 293 293 293 294 294 294 293 295 296 296 296 293 294 294 298 299 300 302 304 305 303 303 304 304 302 302 305 305 304
315 313 312 312 309 308 308 307 307 305 305 304 303 303 304 303 303 302 299 297 298 298 296 295 292 291 291 292 292 293 294 294 295 295 295 293 293 293 295 300 299 300 301 301 303 301 300 302 304 303 303 303 303 303
313 311 313 312 309 309 308 307 306 305 305 305 305 305 304 303 302 299 296 296 296 296 292 293 291 290 290 292 292 292 293 295 295 296 295 293 295 296 294 296 297 300 301 300 301 302 304 305 306 303 303 302 302 299
312 312 313 310 310 309 309 308 306 306 306 305 304 303 302 302 299 298 296 296 296 293 293 291 289 289 291 296 298 293 294 295 296 294 295 295 294 295 295 295 295 296 295 297 302 301 302 301 300 299 298 298 298 298
311 313 312 310 309 309 307 306 306 305 303 294 293 299 299 298 297 296 296 295 295 293 288 291 289 286 291 293 297 297 297 295 293 295 295 296 297 296 295 294 294 295 297 303 302 301 301 303 301 299 299 299 298 297
311 312 310 310 307 307 307 306 304 292 292 296 298 296 297 296 296 296 295 296 295 295 294 293 291 291 292 293 293 297 296 295 291 295 296 297 297 296 295 293 294 295 299 298 301 302 301 301 300 299 299 296 296 295
309 309 308 306 307 306 304 294 291 296 298 297 294 295 295 296 295 294 295 294 295 292 294 293 293 292 293 296 295 295 294 294 293 294 297 296 298 302 297 293 293 295 297 298 298 297 298 300 298 296 295 295 295 295
309 308 306 306 302 293 294 297 297 297 297 295 295 295 295 295 295 295 293 293 291 293 291 290 289 294 296 295 297 297 301 300 299 297 297 297 304 297 296 295 295 295 295 296 296 296 296 296 296 296 296 295 295 295
302 299 294 291 291 296 297 298 295 295 295 295 294 294 294 294 293 293 292 293 291 290 289 291 299 300 299 297 298 299 303 304 299 300 300 306 300 297 295 295 297 296 296 296 295 295 295 294 295 294 293 292 292 290
292 291 293 293 296 297 296 295 295 295 295 293 292 295 293 293 294 293 289 289 290 295 297 298 298 299 300 301 301 302 304 305 305 301 302 299 298 295 293 295 296 297 296 296 296 295 295 294 292 291 291 290 290 289
295 296 296 297 296 295 295 295 295 295 293 291 292 294 294 291 285 288 284 289 294 296 297 297 297 299 301 302 302 303 302 300 304 304 298 299 296 292 293 296 294 295 295 295 294 294 293 292 291 289 287 287 288 288
297 297 298 297 296 295 295 295 295 295 292 291 291 290 290 289 287 286 293 292 293 296 296 297 299 300 302 301 301 299 303 302 302 301 299 295 293 293 294 294 294 293 293 291 290 290 290 290 289 288 285 284 285 285
294 296 296 297 297 296 295 295 295 294 293 294 295 292 289 288 286 287 289 292 292 296 295 297 295 300 298 297 295 294 299 299 299 297 294 290 290 292 292 292 292 294 292 290 288 287 286 287 287 286 284 283 284 284
294 295 296 297 297 296 296 296 294 295 295 293 292 290 292 292 290 291 292 293 295 295 295 293 296 297 299 298 293 293 295 294 294 294 292 290 289 289 290 292 293 293 291 289 288 287 286 285 285 284 283 283 283 283
295 295 296 297 297 296 293 293 293 292 287 287 287 285 289 289 289 288 292 293 293 293 294 295 295 296 297 292 289 287 293 296 292 294 294 293 291 290 289 290 291 291 289 288 287 286 286 285 284 284 283 282 282 282
295 294 297 297 297 293 290 289 289 287 288 288 285 287 286 286 287 289 291 292 293 293 294 294 295 294 292 291 287 291 290 292 291 291 291 292 292 290 289 288 288 289 288 287 286 285 284 284 284 284 283 282 282 282
298 296 297 296 294 289 286 284 288 284 283 285 283 284 284 285 286 288 289 290 292 291 290 290 291 290 287 289 292 294 294 292 291 289 290 290 290 290 289 289 288 286 285 285 284 285 286 285 286 285 284 284 283 283
292 294 293 292 288 286 284 284 285 286 284 283 284 279 279 280 278 278 281 289 290 285 285 286 283 284 284 285 287 291 294 292 289 288 288 288 286 285 284 287 286 285 285 286 286 285 286 288 288 287 286 286 284 282
294 294 291 289 288 286 285 284 286 282 285 286 281 285 287 287 281 278 278 278 280 280 282 282 282 285 283 286 287 287 287 286 284 284 284 284 284 284 284 284 284 284 285 286 287 287 287 288 287 285 286 284 283 282
293 289 290 289 288 286 285 283 284 282 280 282 281 281 278 277 274 275 280 278 279 276 277 277 280 279 278 278 278 281 287 287 284 284 285 284 279 283 285 285 285 286 286 286 286 286 286 286 286 286 284 284 283 282
294 288 289 283 282 283 282 281 278 280 280 277 278 279 276 273 277 274 280 281 275 274 276 275 277 278 278 274 277 281 285 285 283 278 286 286 285 285 285 285 285 286 286 285 285 285 285 285 285 284 284 283 282 282
286 283 286 285 283 284 282 279 280 280 278 278 278 271 268 273 276 281 280 278 277 277 277 279 281 278 278 280 279 277 287 287 285 283 286 286 286 284 277 277 280 284 286 287 287 286 285 285 284 283 283 283 282 282
283 282 282 282 281 280 280 280 281 278 276 279 276 275 276 280 279 282 280 277 278 283 285 286 286 282 281 284 285 285 286 286 286 286 286 285 285 285 284 282 280 284 285 285 285 285 284 284 283 283 282 282 282 281
282 281 283 278 278 276 279 278 277 280 280 279 279 279 282 283 284 281 280 283 283 283 284 284 284 283 283 283 283 284 284 284 284 284 284 284 285 285 284 284 283 283 282 282 283 282 282 282 282 282 282 282 282 280
279 279 281 276 276 277 278 280 280 280 280 279 282 281 281 279 277 276 281 281 282 283 283 281 283 282 282 283 283 283 282 282 279 275 275 278 273 282 281 281 283 282 281 282 282 282 282 283 283 282 282 281 280 279
278 275 277 275 279 280 277 275 276 272 275 276 276 276 277 276 279 278 279 280 280 279 279 279 280 281 280 279 279 282 281 280 280 277 272 274 275 278 279 279 280 280 280 280 281 282 281 283 281 280 280 279 278 278
275 274 276 276 279 274 271 270 270 273 271 271 269 274 276 273 275 277 277 277 278 279 280 278 279 278 278 277 275 271 273 277 276 275 274 274 275 276 277 278 278 279 279 280 280 280 280 280 281 280 279 278 278 277
275 276 278 279 279 272 269 270 270 272 270 271 272 268 272 274 278 274 277 278 279 278 277 276 275 275 274 274 273 272 271 272 274 274 274 274 274 275 276 277 278 278 278 279 279 279 279 278 279 279 279 278 277 276
269 269 270 273 276 277 273 274 276 276 274 273 272 267 266 270 277 272 277 278 278 276 276 276 276 276 276 275 275 274 272 272 272 272 272 273 275 277 279 279 279 278 278 277 277 277 277 277 277 277 277 276 275 275

GFSWCAN_925_thetae_084.txt.gz
Theta_e
304 304 304 317 315 316 314 308 302 304 303 301 300 300 299 298 298 298 296 297 298 299 296 294 296 297 296 297 298 298 298 298 299 302 302 303 306 309 310 310 311 313 314 313 313 314 313 306 307 310 310 310 311 313
303 303 304 316 314 316 313 308 303 304 302 301 300 300 300 298 298 298 297 297 297 298 298 295 295 296 297 297 297 297 297 297 297 298 299 298 301 303 305 309 307 313 311 312 312 311 308 306 309 308 309 310 311 313
303 304 311 314 312 312 310 307 304 304 303 301 301 300 299 299 299 299 298 297 298 298 298 297 297 295 296 295 296 297 297 296 297 296 297 296 299 301 303 307 306 308 304 309 309 309 309 307 306 307 308 309 310 311
302 304 311 313 310 311 307 306 304 304 303 302 301 300 299 300 300 299 299 298 299 298 300 298 295 295 294 294 295 296 295 295 296 297 297 296 298 299 300 302 302 303 303 307 308 307 307 307 307 307 306 305 307 309
303 304 309 312 309 309 307 305 305 304 302 301 301 301 301 300 300 300 300 299 299 300 300 299 295 292 292 293 294 294 295 295 297 297 297 297 296 297 297 297 297 298 301 307 309 305 305 307 306 305 306 306 306 309
302 304 312 311 309 309 306 305 305 303 302 302 302 302 302 302 301 301 299 299 299 298 298 299 294 293 291 292 294 294 295 296 297 297 296 296 296 296 297 297 298 299 299 301 304 303 303 305 304 306 305 305 307 306
303 304 311 309 309 307 307 306 305 303 302 302 302 303 303 303 302 299 299 297 298 297 297 297 297 293 290 292 294 294 294 296 296 296 296 296 296 296 297 297 297 299 302 298 297 301 305 306 307 306 306 305 304 302
304 308 311 309 308 307 307 305 304 303 303 303 303 304 303 302 298 297 296 296 296 294 294 296 296 294 291 297 298 294 296 295 296 296 296 296 296 297 297 297 296 296 296 296 297 298 303 303 303 303 302 303 303 302
304 311 310 309 309 308 307 305 304 304 304 304 304 302 299 298 297 297 296 295 294 294 296 294 297 299 293 296 297 297 297 296 295 296 296 296 297 298 297 297 297 296 296 297 300 302 303 303 304 302 302 302 303 302
310 310 309 309 308 307 306 306 305 305 304 300 297 297 298 296 296 296 296 296 295 293 294 295 294 296 295 296 297 297 297 298 298 298 297 298 298 297 297 298 297 297 296 298 299 300 303 303 302 302 303 301 302 301
310 309 309 309 308 306 305 305 304 300 296 295 296 296 296 296 295 295 295 294 294 294 294 295 294 295 294 298 298 296 299 298 299 299 299 299 300 302 298 297 297 297 296 297 299 300 299 300 302 300 298 298 298 297
309 309 308 307 306 305 304 303 296 294 295 295 296 296 295 295 296 295 294 294 294 296 294 295 295 295 296 295 297 297 300 300 301 298 300 301 303 299 297 296 297 297 297 297 297 297 297 298 299 299 298 298 297 296
307 307 306 306 305 303 300 295 294 294 295 295 294 295 295 295 295 294 295 296 296 294 294 294 299 298 298 297 297 298 301 303 300 302 302 304 302 298 296 296 296 297 297 297 297 296 296 295 295 295 294 294 292 291
304 304 305 304 300 296 295 294 294 295 295 295 296 296 296 294 295 295 295 295 294 295 295 299 299 299 300 300 299 303 301 305 307 306 306 303 299 296 295 296 296 296 296 297 296 296 295 293 292 291 291 291 291 290
301 301 301 297 296 295 295 295 295 295 294 295 294 297 294 293 291 292 290 294 296 298 298 298 298 298 301 301 301 303 304 304 305 306 304 300 297 295 295 296 294 295 295 295 293 293 292 292 291 289 287 288 288 288
296 297 298 297 296 295 295 295 295 294 291 292 291 292 292 293 291 292 292 294 294 297 297 297 298 300 301 302 303 303 304 304 305 303 300 297 294 294 295 294 294 293 292 291 290 291 291 291 291 288 285 285 285 286
297 297 297 296 296 295 295 295 295 293 294 294 294 293 292 292 293 292 294 296 295 297 297 298 298 299 298 301 300 300 303 303 302 300 297 294 293 292 292 293 292 292 291 291 290 288 287 287 287 286 285 283 284 284
297 296 295 295 294 294 295 295 294 295 295 293 294 293 293 292 292 292 292 293 296 297 297 296 296 298 299 300 300 300 300 298 297 297 296 294 292 291 290 292 292 292 292 292 290 287 286 285 285 285 284 283 283 283
296 296 294 294 295 296 295 293 292 293 290 290 288 289 291 291 291 290 294 295 294 295 296 296 296 297 298 298 299 297 296 299 298 296 296 295 293 292 291 290 290 291 291 290 289 287 287 286 285 285 284 283 282 282
297 295 295 297 297 292 291 290 289 291 292 289 287 289 289 289 289 291 293 293 294 294 295 295 295 296 296 296 294 295 296 296 296 296 294 292 293 290 290 290 290 290 289 290 288 286 286 285 285 285 284 284 282 282
297 297 296 296 292 289 288 288 290 287 286 288 285 288 288 288 289 291 291 291 293 293 293 293 293 293 290 291 292 293 294 293 295 294 294 292 290 289 289 289 288 287 286 287 287 287 288 286 287 287 285 284 284 284
292 296 294 294 288 286 286 284 288 286 287 286 287 285 286 287 286 286 284 290 292 292 291 290 290 290 290 289 290 290 292 293 292 290 290 289 289 288 286 286 285 286 287 287 287 287 287 288 288 287 286 286 285 284
295 295 291 289 287 287 285 285 287 285 289 288 285 287 287 286 282 280 284 284 285 284 285 285 285 285 286 286 286 287 287 287 289 288 287 285 284 285 284 285 284 284 285 286 286 286 286 287 287 286 286 285 284 283
294 289 290 289 287 286 285 285 285 284 285 286 288 287 284 282 278 281 285 284 284 281 282 282 282 285 283 281 284 286 287 287 286 285 284 283 284 285 285 285 285 285 285 286 285 285 286 286 285 285 285 284 283 282
294 288 288 284 283 285 285 285 283 284 285 282 281 281 280 277 282 282 284 285 282 282 282 280 282 284 287 286 283 282 284 286 284 285 286 285 285 284 285 285 285 286 285 285 285 286 286 286 285 285 284 283 283 283
289 285 288 286 285 285 284 285 283 283 282 280 280 275 274 280 280 286 284 284 283 282 281 281 284 283 283 283 284 283 284 284 285 284 286 286 286 284 284 284 284 285 285 285 286 286 286 285 284 284 283 283 283 284
286 284 284 283 282 281 282 282 282 282 281 283 279 278 280 283 283 284 282 280 282 282 283 284 284 284 285 284 285 285 286 286 286 286 286 285 284 284 283 283 283 283 283 283 284 284 284 283 283 283 283 282 282 282
283 283 285 281 280 279 281 280 280 282 283 280 281 279 283 284 286 283 280 280 281 282 282 282 282 282 283 283 283 283 283 283 284 284 284 284 284 283 282 281 281 281 281 280 280 281 281 281 281 281 281 281 282 282
281 281 282 280 276 277 279 282 282 281 281 280 282 282 282 281 280 278 279 280 280 280 280 280 281 282 282 283 282 282 282 281 280 278 277 281 280 281 279 280 280 279 279 280 280 280 281 281 282 281 281 281 281 280
279 277 279 274 280 282 278 276 276 272 275 276 277 278 278 279 278 277 278 278 278 278 279 279 280 281 279 279 278 280 279 279 278 277 277 277 277 277 277 277 278 278 278 279 280 281 281 280 281 281 280 279 278 277
275 275 276 276 277 273 270 269 270 273 271 272 270 275 278 274 275 276 277 277 278 279 279 278 278 277 276 275 274 273 274 275 276 274 273 273 273 274 275 275 276 276 276 277 278 278 278 278 278 279 279 278 277 277
275 274 277 278 276 269 266 270 270 271 270 272 273 269 272 275 277 275 277 278 278 279 277 275 274 275 275 274 274 273 272 273 273 273 273 273 273 274 275 276 277 278 277 277 277 277 277 277 276 277 277 277 277 277
268 267 268 273 275 275 271 272 272 273 272 273 274 272 272 272 277 274 277 278 279 278 278 277 276 276 276 276 275 275 274 273 273 273 272 272 273 276 277 278 278 278 277 277 276 276 275 275 275 276 276 277 276 275

GFSWCAN_925_thetae_087.txt.gz
Theta_e
300 301 300 304 304 312 313 313 310 301 301 301 299 299 298 298 298 298 297 298 302 303 299 298 299 299 299 299 301 300 300 301 302 303 303 305 306 307 308 309 312 313 314 316 315 315 313 309 309 310 311 312 311 313
299 299 299 303 304 308 313 309 308 301 301 300 299 299 298 298 298 298 298 297 300 303 300 297 297 297 298 298 299 298 300 298 300 302 302 302 304 304 306 308 309 311 311 314 312 311 309 308 310 309 309 310 311 314
299 299 300 303 304 305 309 308 304 302 301 299 299 299 298 298 298 298 298 298 301 303 300 300 300 297 296 297 297 299 299 298 298 298 299 299 300 301 303 305 307 308 306 310 310 309 309 309 308 308 309 310 311 311
299 298 300 302 305 309 307 305 303 302 300 299 299 299 299 299 299 299 299 300 301 302 304 300 296 297 294 295 296 297 297 297 298 298 298 298 299 300 302 302 303 302 304 308 309 309 309 309 308 308 308 308 307 308
298 299 302 303 305 309 307 305 303 301 300 300 299 299 299 299 299 299 299 299 300 304 303 300 296 294 293 294 295 296 297 296 297 298 298 298 297 298 299 299 300 300 301 302 305 307 308 308 307 307 307 307 307 308
299 299 303 304 307 307 305 304 303 301 300 300 299 300 300 300 300 300 301 299 299 299 302 302 296 294 293 295 296 296 296 296 297 298 298 297 296 297 298 300 300 299 299 299 299 301 302 304 306 307 308 308 307 309
299 300 302 304 309 307 305 304 302 301 301 300 300 300 300 301 300 300 300 299 299 298 300 300 299 294 293 295 296 296 296 296 297 298 297 297 296 297 298 299 299 298 298 298 299 299 300 306 307 305 306 307 306 306
299 300 303 305 308 306 305 304 303 302 301 301 301 302 301 298 297 298 297 298 297 296 298 300 300 297 294 299 299 296 297 296 296 297 297 297 297 297 298 299 299 299 298 297 297 299 302 300 304 305 304 305 305 304
300 301 304 308 307 306 305 304 303 301 302 303 303 302 299 298 298 297 296 296 295 297 299 299 303 303 295 299 298 297 297 297 297 297 297 297 298 299 299 299 299 299 299 297 298 301 303 303 305 305 304 304 306 305
300 302 304 308 306 305 305 304 302 303 303 303 300 298 299 297 296 295 296 297 296 295 297 299 297 300 298 299 298 298 298 299 300 298 298 298 299 299 299 300 298 298 297 299 298 300 299 299 304 304 304 304 305 304
301 303 307 307 306 305 304 304 303 303 301 298 297 297 296 295 295 296 297 296 295 296 296 298 297 299 296 299 300 298 300 299 299 301 299 300 302 301 299 298 297 297 298 298 297 298 300 300 301 303 301 300 300 300
302 305 308 306 305 304 304 303 302 301 298 296 297 296 295 296 296 297 297 295 296 298 296 298 298 298 297 297 298 298 300 301 301 299 300 302 304 299 297 296 297 297 298 299 298 298 297 298 299 300 300 299 298 297
305 308 306 306 305 304 303 301 299 296 296 296 296 296 297 296 297 297 297 297 299 297 296 297 298 298 298 297 297 299 301 303 301 302 303 305 302 299 297 296 296 296 297 298 297 297 296 295 295 296 295 295 294 292
308 307 306 305 303 301 300 298 295 296 296 299 300 297 300 297 296 297 299 300 298 299 298 300 300 300 300 299 299 302 302 304 306 307 306 305 300 298 297 296 296 296 296 297 296 295 294 294 292 292 292 292 292 291
306 305 303 301 300 298 297 294 296 295 296 297 299 303 297 295 294 295 295 297 298 300 300 299 299 298 300 300 301 303 304 305 306 307 306 302 299 297 296 296 294 295 294 294 293 293 292 292 291 289 288 289 289 289
302 301 299 298 297 295 295 295 295 295 293 295 293 295 294 296 293 294 297 298 299 299 298 299 299 299 300 300 301 302 304 305 307 304 302 299 298 296 295 294 294 293 292 291 290 290 291 292 292 289 286 286 286 287
300 298 297 295 295 295 297 297 295 294 295 295 296 294 295 297 296 295 297 298 297 298 298 298 298 300 299 301 302 303 305 306 304 301 299 297 297 295 293 293 293 292 292 291 291 291 288 287 288 287 287 285 284 284
296 296 295 295 296 297 295 294 293 295 296 295 296 294 294 294 296 295 296 297 298 298 299 299 298 298 300 301 303 304 303 299 300 300 299 298 296 294 292 293 293 292 292 292 292 291 288 287 287 287 286 284 283 283
295 295 295 296 297 294 293 293 293 295 293 293 292 293 294 294 293 294 295 296 296 297 296 296 297 298 299 301 302 302 301 301 301 299 298 297 297 295 293 291 291 291 292 292 292 290 290 289 287 286 285 284 284 284
294 295 295 296 297 293 294 293 290 294 295 292 292 292 292 292 292 295 295 295 296 297 297 297 297 297 298 298 298 298 299 298 298 299 298 295 295 293 292 291 291 290 290 290 290 290 288 287 287 287 285 285 284 284
293 294 295 295 291 289 291 292 290 290 290 290 290 291 289 291 292 294 294 293 295 295 296 296 296 296 295 294 295 296 296 297 297 298 297 296 293 291 291 290 289 288 288 288 289 290 290 289 288 288 286 285 285 285
294 296 295 292 290 289 289 287 290 288 289 289 289 289 290 290 290 290 287 293 294 295 295 294 294 294 294 292 292 291 293 294 295 294 293 292 292 291 289 287 287 288 288 288 288 288 288 288 288 288 287 287 286 285
296 295 292 290 291 290 288 287 290 288 292 290 289 290 290 289 285 283 289 290 291 290 290 289 288 287 289 288 287 288 288 289 291 292 292 291 289 286 286 286 286 286 287 287 287 286 286 287 287 286 287 286 285 285
295 290 291 290 290 288 287 287 287 288 289 290 291 290 287 286 282 285 288 289 289 286 285 285 285 287 286 284 287 289 289 288 289 288 288 286 287 287 286 286 286 285 285 285 285 285 285 286 286 286 286 285 285 284
295 290 290 287 286 288 288 288 287 289 290 287 288 286 284 281 287 287 288 291 288 288 287 285 286 288 290 291 289 286 284 287 288 289 287 286 286 285 286 286 286 286 286 285 285 285 286 286 285 285 285 284 284 284
292 286 290 289 287 290 289 289 288 288 287 286 286 279 279 285 286 290 290 290 289 289 288 287 289 289 288 287 288 288 285 285 286 286 286 286 285 286 287 286 285 285 284 283 283 284 285 285 284 284 283 284 284 285
290 288 285 284 285 284 285 285 285 287 287 288 284 281 284 287 289 289 287 285 287 284 282 283 286 288 288 287 285 284 284 284 284 284 283 284 284 284 284 283 284 283 282 281 280 281 282 283 283 282 282 282 282 282
286 286 288 285 284 284 286 286 286 287 288 284 284 284 286 289 291 287 285 280 280 280 280 280 281 281 281 282 282 282 282 283 283 284 284 284 283 283 282 280 280 279 280 280 280 279 280 280 280 280 281 281 281 282
286 284 286 283 283 284 285 287 287 286 284 284 288 287 286 284 283 282 280 279 279 279 282 282 280 281 282 282 282 281 281 281 281 280 282 283 284 280 279 278 278 278 278 278 279 279 279 280 280 281 281 280 280 280
284 283 284 281 284 287 284 280 282 278 278 280 279 281 281 282 279 277 277 278 279 280 278 279 279 280 278 278 279 279 279 278 277 277 279 279 279 277 276 275 275 276 276 276 277 277 278 279 279 280 280 280 279 278
280 282 283 284 284 279 276 273 274 276 276 277 275 281 282 278 277 276 276 277 277 279 279 278 278 278 278 277 276 276 277 276 275 275 274 274 274 274 274 275 275 276 276 275 275 276 276 276 276 277 277 277 278 277
281 281 283 282 280 274 272 277 278 280 277 280 279 276 279 280 282 280 277 277 278 279 278 278 277 277 277 276 276 276 275 275 274 274 273 273 273 273 273 275 276 277 277 277 276 275 275 275 275 275 275 276 277 277
276 276 276 278 279 279 277 278 279 278 279 280 279 275 275 276 280 278 277 278 279 280 279 279 278 277 276 276 275 275 274 274 273 272 272 272 273 274 275 275 276 276 276 276 275 274 273 273 273 274 274 275 275 276

GFSWCAN_925_thetae_090.txt.gz
Theta_e
301 301 300 301 300 302 305 306 310 311 306 300 300 301 301 299 299 298 298 301 303 302 299 299 300 299 299 299 301 299 300 300 301 303 303 304 305 305 305 307 310 310 310 312 311 312 314 308 308 309 310 310 311 312
300 300 299 301 299 302 305 307 309 308 304 300 301 300 299 299 298 298 298 301 302 301 298 298 298 298 298 298 299 298 299 298 299 301 301 299 302 301 303 304 308 309 310 311 314 313 308 307 308 307 307 307 310 312
300 300 299 300 299 302 302 309 307 307 302 301 300 299 298 298 298 298 298 301 302 301 299 299 299 297 297 297 298 299 298 298 298 297 297 297 298 299 299 301 303 307 305 308 308 309 308 307 306 305 305 307 308 309
300 299 298 300 298 300 303 307 306 305 302 300 298 298 298 298 298 298 300 302 302 303 302 298 297 296 295 296 297 298 297 297 297 297 298 299 299 299 299 299 299 300 300 304 305 304 307 307 304 304 305 305 306 307
299 299 299 299 299 301 303 307 305 305 302 299 299 298 298 298 299 299 300 300 302 304 302 298 296 294 294 295 296 297 297 296 297 299 297 297 298 297 297 298 297 298 299 299 300 300 303 304 300 304 306 307 305 306
298 299 299 299 300 303 303 306 304 302 301 299 298 298 298 299 298 300 301 299 299 301 300 299 295 294 294 296 296 296 296 296 297 298 298 298 296 296 298 298 299 298 297 298 298 298 298 298 301 303 304 305 305 306
297 298 298 300 302 304 307 305 303 302 301 299 299 299 300 300 300 299 301 299 298 300 299 298 297 293 294 296 296 295 295 296 297 298 298 297 297 295 298 297 298 298 297 298 296 296 299 299 300 299 304 304 304 303
297 298 299 300 302 306 305 304 302 302 300 299 300 300 299 298 298 298 298 297 297 297 299 299 297 294 294 298 297 296 297 296 296 297 298 297 296 296 297 296 297 299 299 298 297 295 296 299 301 303 304 303 304 302
297 298 299 301 304 306 304 303 302 301 300 300 299 298 299 298 298 297 296 296 296 298 298 299 297 297 294 298 298 296 297 297 297 297 297 297 298 299 297 298 300 300 299 299 297 297 298 301 302 303 303 302 303 303
297 298 300 301 305 304 304 303 301 301 300 300 300 299 299 297 295 296 296 297 296 295 296 299 297 297 296 297 298 299 298 299 300 298 297 297 298 297 298 300 298 298 297 297 297 297 297 296 299 301 302 301 301 301
298 298 300 303 305 304 303 302 302 301 300 298 298 298 296 295 295 296 297 297 295 296 296 297 297 295 295 299 299 298 299 299 299 300 299 300 299 298 299 297 295 297 297 297 297 297 298 298 299 300 301 299 299 299
298 299 302 305 304 304 303 303 301 301 299 297 297 296 295 296 296 298 298 296 296 298 296 296 295 297 296 296 298 298 299 300 300 298 300 300 299 299 297 296 295 296 297 298 298 297 297 297 298 299 299 298 297 297
299 301 305 305 304 303 303 301 301 297 297 296 296 296 298 296 299 299 297 297 298 297 295 294 297 298 296 296 297 298 300 302 299 301 301 300 301 299 297 296 295 296 296 297 297 296 296 294 294 294 294 293 292 292
300 302 306 304 304 303 302 300 297 298 299 299 299 298 301 299 300 298 300 299 298 296 296 297 298 298 299 298 299 301 300 302 303 304 304 303 299 297 297 296 296 296 296 296 296 293 292 292 292 292 292 292 292 291
302 305 305 304 303 301 298 297 298 299 297 298 301 302 299 296 295 295 296 296 297 297 299 296 298 298 299 301 300 302 303 302 302 302 303 300 297 295 295 295 294 294 294 293 292 293 292 292 291 289 287 288 288 289
305 305 304 302 299 297 297 297 298 296 294 295 296 296 295 296 293 295 297 297 298 298 296 296 296 298 298 299 300 301 301 298 299 302 300 296 296 294 293 294 294 292 291 290 290 289 289 290 290 289 287 286 286 286
304 303 300 298 297 298 297 298 297 294 295 297 295 294 295 297 294 296 297 298 298 296 296 296 298 294 298 299 301 299 302 298 301 294 293 296 296 294 291 291 293 293 291 290 291 291 291 288 287 287 286 286 284 285
299 298 297 297 296 296 297 294 294 296 296 295 296 294 294 295 295 297 297 296 296 296 294 295 294 297 299 299 296 296 296 298 293 292 292 294 293 293 292 291 292 292 293 292 292 292 291 291 288 287 287 286 285 284
297 297 297 297 297 296 294 292 293 293 292 292 293 293 294 293 293 292 295 296 295 294 291 294 294 296 295 294 294 294 292 292 295 295 295 296 296 294 293 292 291 290 291 291 292 292 292 292 291 291 289 286 285 285
295 295 296 297 299 293 294 293 292 294 294 292 292 292 292 292 293 294 295 293 292 291 292 293 294 294 294 294 291 291 291 294 295 295 294 293 294 294 293 291 291 290 290 289 290 290 290 290 290 290 290 287 285 285
295 296 297 296 291 290 291 292 290 291 291 291 291 291 291 292 293 294 294 292 290 292 294 293 293 293 292 293 294 295 295 295 294 294 293 289 291 292 291 291 289 288 286 286 286 287 289 289 289 289 288 287 287 286
293 296 293 292 290 289 288 287 290 289 290 290 289 289 290 291 292 290 288 294 292 292 290 292 288 288 288 290 290 291 293 294 295 294 293 292 289 285 287 288 287 286 287 287 287 287 287 287 287 287 287 287 287 286
294 294 291 291 291 290 288 287 289 288 289 289 285 285 288 288 283 282 286 287 289 286 287 285 285 287 286 288 288 288 289 289 288 290 291 292 291 290 287 286 286 286 285 286 287 286 286 286 286 286 286 286 286 286
294 289 290 290 290 289 288 287 288 288 287 288 287 285 286 282 280 283 285 287 285 282 282 280 284 282 281 282 280 284 288 288 288 290 290 290 285 286 287 286 286 286 285 285 285 285 285 285 286 286 286 285 285 285
293 289 290 288 287 288 289 288 288 288 286 286 284 282 281 279 283 283 285 285 284 282 281 281 281 282 283 282 282 286 286 288 287 282 289 289 287 286 285 285 286 286 286 285 284 284 284 284 285 285 285 284 284 284
291 287 290 289 288 290 289 289 288 287 286 284 282 278 278 282 283 285 286 283 282 281 280 279 280 281 282 284 281 281 284 285 287 286 286 285 285 285 282 280 277 284 284 283 282 281 281 281 282 283 283 283 283 284
291 288 286 284 285 285 286 285 285 286 284 284 282 281 281 283 285 286 282 280 281 282 282 284 286 285 283 286 284 283 283 284 284 285 284 284 284 284 283 282 282 282 281 280 280 280 279 280 280 281 281 281 281 281
287 286 288 285 284 283 285 284 284 284 285 283 284 282 285 286 287 282 279 280 280 280 280 280 281 282 282 282 281 281 282 282 283 283 283 283 283 281 280 279 279 278 278 278 278 278 278 279 279 279 280 280 281 281
286 285 286 283 283 283 284 285 285 284 282 282 284 284 282 281 278 278 280 279 279 280 281 281 280 281 281 281 281 280 281 281 282 277 278 277 276 279 278 278 278 278 277 277 277 276 277 277 279 280 280 281 281 281
284 284 283 280 283 285 280 277 279 276 277 278 278 278 279 278 279 278 278 279 279 280 280 280 279 281 279 279 279 279 279 278 277 277 271 272 273 276 275 275 275 275 275 276 276 277 277 277 277 277 278 278 279 279
282 282 281 281 280 276 273 272 273 275 274 274 272 276 278 274 278 277 277 278 278 278 278 278 278 278 278 278 277 275 272 275 275 275 274 274 274 274 274 274 274 275 275 275 275 275 275 275 275 275 275 275 275 276
280 279 280 280 277 272 271 274 274 275 274 275 275 272 274 276 277 274 277 278 278 278 279 278 278 278 278 277 276 275 274 274 274 273 273 273 274 274 274 274 275 275 275 275 276 275 274 273 273 273 273 273 275 275
274 274 274 276 275 276 274 274 274 274 273 274 273 270 270 273 276 273 277 278 279 280 280 280 279 278 278 277 276 275 274 274 273 273 272 273 274 275 275 275 275 276 276 275 275 274 273 272 271 271 272 272 273 274

GFSWCAN_925_thetae_093.txt.gz
Theta_e
299 299 300 301 301 299 301 302 305 305 308 308 306 302 300 302 301 300 299 299 301 296 296 297 298 297 296 296 298 297 298 298 299 298 295 296 300 302 303 304 308 308 308 309 309 309 310 306 307 308 308 308 310 311
299 299 300 301 300 301 301 302 305 308 309 306 304 304 301 302 301 299 298 301 301 296 296 297 297 297 298 297 296 296 297 297 297 298 293 292 297 293 298 299 302 305 308 310 313 311 309 307 306 304 303 305 308 312
299 299 300 301 300 300 300 302 305 307 307 304 301 302 301 301 300 300 299 300 299 297 296 295 296 296 297 297 298 295 295 296 296 293 291 293 295 294 295 295 300 303 303 305 305 307 307 305 302 301 303 304 303 307
299 299 299 301 300 300 299 303 308 307 305 304 302 302 301 300 299 299 300 301 301 298 298 295 296 294 295 297 297 297 296 296 295 294 290 291 296 295 296 297 297 297 298 299 300 299 302 303 300 300 303 304 305 304
299 299 299 300 299 300 299 303 306 305 303 302 302 300 299 299 298 298 301 301 302 300 297 295 293 294 294 296 297 296 295 294 294 292 291 294 295 295 294 295 295 295 297 297 297 297 298 299 298 301 301 303 304 304
299 299 299 300 299 299 301 303 304 303 302 302 301 299 300 298 298 300 297 300 300 298 295 295 293 293 295 295 296 295 295 294 295 293 295 296 296 292 294 294 296 295 295 295 296 294 296 296 297 300 302 302 304 303
299 299 298 299 299 300 302 304 304 303 301 300 298 298 299 299 300 299 299 298 301 299 295 293 292 292 295 295 295 295 296 296 296 295 294 297 297 291 289 295 296 296 298 298 298 297 297 296 298 300 302 302 303 302
299 298 298 299 299 300 304 305 303 302 300 300 299 299 299 299 298 297 296 297 298 298 296 293 293 291 294 296 297 296 296 296 296 295 297 297 296 295 296 295 294 297 298 298 297 296 295 293 297 300 302 303 303 302
299 298 298 298 299 302 305 303 302 301 300 299 299 298 299 298 297 296 296 296 297 296 295 292 292 291 292 298 297 296 296 296 296 294 297 297 296 297 295 295 298 300 299 298 297 295 295 295 296 297 302 302 303 302
298 298 297 298 300 304 303 302 301 300 299 299 298 298 298 296 296 296 296 294 292 293 293 296 293 294 295 298 298 298 296 298 292 297 297 296 296 295 296 297 297 297 297 297 298 295 296 294 297 298 300 300 301 301
298 297 297 298 302 304 302 301 300 299 298 298 296 297 295 296 295 296 294 294 293 294 294 294 293 295 295 298 298 298 298 298 298 298 296 300 298 293 297 297 295 295 297 297 297 296 296 296 298 299 300 299 297 297
297 297 298 299 303 303 301 300 299 299 297 297 296 295 295 296 296 298 298 295 294 297 294 293 293 291 294 296 298 297 298 298 298 297 297 299 296 295 297 296 295 295 297 297 298 297 296 296 296 298 297 296 295 294
298 298 300 300 303 302 300 299 300 298 297 298 296 295 296 295 299 301 298 296 295 295 293 292 296 295 295 296 297 298 299 298 298 300 300 296 296 298 297 296 296 296 295 296 297 296 295 294 293 294 294 292 292 292
298 298 299 304 302 301 300 299 297 299 300 298 298 297 300 298 299 299 299 297 296 295 295 295 294 295 296 296 298 293 299 301 301 301 297 295 296 295 294 295 296 295 295 295 295 294 293 292 292 292 292 292 292 290
298 299 304 303 301 301 299 298 299 300 297 298 300 301 299 295 295 296 295 296 295 296 295 294 294 298 296 299 298 299 302 299 299 298 294 292 294 293 293 295 294 293 293 293 293 293 292 292 291 289 287 287 288 288
299 304 304 302 301 298 298 299 300 297 293 295 296 296 295 294 294 295 295 296 297 296 293 292 297 296 297 297 300 300 299 295 295 291 294 295 293 292 291 294 294 292 291 291 290 289 288 288 288 288 287 286 285 285
303 304 302 300 298 298 299 299 296 294 296 295 294 295 295 295 294 295 296 298 295 294 291 291 290 293 295 298 299 299 298 293 300 290 290 296 296 292 289 289 293 293 292 290 290 290 291 291 289 287 286 286 285 285
303 300 299 297 297 298 296 294 293 294 294 292 294 294 295 295 296 296 296 296 294 290 290 290 291 297 298 298 296 293 289 299 291 289 290 292 291 291 290 289 292 293 292 292 291 291 290 290 290 290 288 287 285 285
299 298 297 297 299 297 293 292 292 291 292 292 293 293 293 293 293 294 295 295 292 290 289 287 287 287 293 291 291 296 289 294 293 293 292 294 294 292 292 292 291 290 290 291 291 291 291 292 291 291 291 290 287 286
297 297 298 299 300 293 293 292 292 292 293 292 292 291 291 292 292 293 294 291 289 287 288 291 291 291 291 291 288 288 288 291 292 293 293 292 293 293 292 292 290 290 289 288 288 288 288 288 289 289 289 289 287 286
295 295 297 296 291 290 290 291 289 291 291 291 290 290 291 291 293 293 293 291 287 284 286 289 291 290 289 290 293 293 292 292 292 292 292 286 290 292 292 291 290 287 286 285 284 285 287 286 287 288 288 288 288 287
293 295 293 292 290 289 288 287 289 289 290 289 290 290 291 291 292 290 288 293 291 286 286 289 285 285 285 288 289 291 292 292 292 292 292 292 288 284 286 289 287 284 285 286 286 286 286 286 286 287 287 287 287 287
297 295 292 291 291 290 288 287 289 289 291 288 286 288 288 288 285 283 285 280 283 280 283 283 283 286 284 287 288 288 288 289 286 287 289 290 291 291 290 289 286 285 283 285 285 285 284 285 285 285 286 286 286 286
294 289 290 290 289 288 288 287 288 289 288 289 286 287 287 282 281 277 280 279 280 278 280 278 281 279 279 280 278 281 287 287 287 288 289 289 284 287 287 286 286 286 285 285 285 284 284 283 284 285 285 285 284 284
293 289 290 288 287 288 288 288 288 287 287 286 284 280 280 276 276 277 279 280 278 277 277 277 277 277 277 276 279 284 284 287 285 280 288 288 288 286 285 285 285 285 285 285 284 283 283 282 281 281 283 283 283 283
290 286 286 285 285 288 288 287 286 286 285 281 279 276 272 276 279 283 282 279 277 276 275 275 276 277 279 280 279 278 283 284 286 285 286 285 286 284 277 277 275 283 283 282 282 281 281 281 280 280 280 281 281 282
290 285 285 284 285 285 286 286 286 286 282 282 279 277 278 282 283 283 280 276 278 281 282 283 285 282 281 283 283 283 282 283 284 284 283 283 283 283 283 282 280 281 280 280 279 278 278 279 279 279 279 280 280 280
287 286 288 284 285 283 286 285 284 284 283 282 283 281 285 286 287 281 278 279 279 279 279 280 281 282 282 281 281 281 282 282 282 282 281 281 281 280 279 278 277 277 277 277 277 277 277 276 276 276 276 278 279 280
286 285 286 285 284 283 283 283 283 282 282 283 284 283 282 281 276 276 279 279 279 280 280 279 279 280 280 280 281 280 280 281 281 276 276 273 272 278 278 277 277 277 276 276 276 276 276 276 277 278 278 278 278 279
285 284 284 281 283 284 279 276 276 274 276 277 278 278 278 277 278 278 278 279 279 280 280 279 280 281 279 280 279 279 279 279 278 278 270 270 272 275 275 275 275 275 275 275 275 276 276 275 275 276 276 276 276 276
282 282 281 280 278 274 272 271 271 275 273 272 270 276 277 273 277 277 277 278 279 278 278 278 278 279 279 278 278 275 272 276 276 275 275 275 275 274 274 274 275 275 275 275 274 274 274 274 274 274 274 273 273 274
280 278 281 281 277 272 270 272 272 273 272 274 274 271 273 274 277 273 276 276 277 278 279 280 280 279 279 278 277 276 275 275 275 274 274 274 274 274 274 275 275 275 275 275 274 274 274 273 272 271 271 271 271 272
276 275 275 275 275 275 274 275 274 274 273 271 272 269 269 273 279 273 276 277 279 281 281 280 279 279 278 277 276 276 275 274 274 273 273 273 275 275 275 275 276 276 276 275 274 273 273 272 271 270 269 269 270 270

GFSWCAN_925_thetae_096.txt.gz
Theta_e
299 299 301 300 299 300 301 302 302 302 304 306 310 309 304 304 306 302 299 301 300 296 296 296 296 296 295 295 297 296 297 297 298 297 295 295 299 300 302 302 305 306 304 304 307 306 308 306 306 307 304 302 306 310
299 299 300 300 299 300 301 302 301 301 304 306 309 307 304 305 304 301 300 299 299 296 296 296 295 296 296 296 295 295 295 295 296 296 291 291 297 289 296 298 299 308 306 309 307 305 307 305 305 302 303 304 304 304
299 299 300 300 299 300 302 301 301 300 305 308 308 306 304 306 303 300 300 299 298 296 295 295 295 295 297 297 297 295 294 295 295 292 290 292 295 293 295 294 298 299 301 303 305 303 302 303 304 303 302 302 303 304
298 299 299 301 299 300 301 301 300 301 305 308 307 305 303 304 302 299 301 301 298 297 297 295 295 293 296 297 298 296 295 295 294 292 289 290 297 294 296 296 296 296 297 297 299 297 300 300 299 301 302 301 302 303
298 298 299 300 299 299 301 300 299 303 308 307 306 305 304 302 300 300 300 301 301 300 297 294 293 294 295 296 296 296 295 293 292 292 291 293 294 294 293 293 294 294 296 296 297 296 296 296 296 297 300 302 302 302
299 298 299 300 299 300 300 298 302 308 306 305 305 303 301 299 299 300 298 301 301 297 294 294 292 293 295 295 295 294 294 292 292 292 293 293 294 292 292 293 294 294 294 295 295 295 295 294 295 295 300 301 302 302
299 299 299 299 299 300 299 299 307 305 304 304 302 301 300 299 299 298 298 298 298 298 293 292 292 291 294 294 295 295 295 293 292 292 292 294 294 289 288 295 295 295 297 297 297 298 297 296 295 294 295 300 302 302
299 299 299 300 300 299 298 298 304 304 302 301 300 300 299 299 298 297 297 298 299 298 294 291 292 291 293 295 296 296 296 295 294 293 295 295 294 293 295 294 294 295 298 298 297 296 296 294 294 297 297 301 303 303
299 299 299 300 299 298 297 301 303 302 301 300 299 299 298 298 297 296 296 297 297 296 294 290 291 289 291 298 295 297 296 292 294 292 296 294 295 295 295 293 297 298 299 299 297 297 293 294 294 296 296 301 303 303
299 299 300 299 297 299 301 303 302 300 299 298 298 297 297 296 296 296 296 294 292 291 293 294 292 295 294 297 297 293 294 295 288 295 295 295 295 295 294 295 295 295 297 297 298 297 295 294 296 298 299 300 300 302
299 300 299 297 297 300 303 301 299 298 298 298 297 296 295 296 296 294 292 294 292 294 294 293 292 294 294 294 293 294 290 293 297 295 295 299 295 292 294 295 295 295 295 297 297 297 297 296 298 298 300 298 297 297
300 299 298 298 300 303 301 300 298 298 298 298 297 296 296 295 293 295 292 292 293 296 293 293 292 291 293 295 293 297 294 295 299 296 297 299 295 289 294 297 296 295 296 297 297 297 297 296 295 296 297 296 295 295
299 299 298 298 299 302 300 298 299 298 297 298 297 296 298 294 294 296 298 292 291 293 292 293 294 295 292 294 297 297 298 294 296 299 299 295 293 295 291 295 295 296 295 296 297 296 296 295 294 293 294 292 292 292
299 298 298 302 302 301 299 300 298 300 301 299 297 298 298 295 296 297 298 295 293 293 294 294 295 295 295 294 297 295 297 299 300 300 295 293 294 294 292 295 296 295 294 295 295 294 293 293 292 292 292 291 291 291
298 297 298 302 300 300 299 298 300 302 298 299 297 297 297 294 294 293 294 294 292 295 294 294 292 293 290 293 294 298 301 296 297 296 293 291 293 291 291 295 294 293 293 292 293 294 293 292 292 291 288 286 287 288
297 299 302 301 300 299 299 300 301 297 293 295 293 294 295 294 295 295 296 296 294 294 290 292 291 290 293 293 294 295 294 292 293 290 290 291 291 291 290 293 295 293 292 291 291 289 288 287 287 287 287 286 285 285
298 302 301 299 299 299 301 300 296 294 295 293 292 294 294 295 296 296 296 296 294 293 291 289 290 291 290 290 294 294 293 291 289 290 288 293 293 291 288 288 293 294 292 291 290 290 289 290 290 289 287 287 286 285
299 301 299 299 299 299 295 294 293 294 294 292 294 294 295 295 297 296 296 295 294 291 290 290 291 295 291 292 294 292 292 293 290 288 289 291 290 290 289 288 292 292 293 292 291 291 291 291 290 291 292 292 290 289
300 299 299 298 300 297 293 292 291 289 290 293 293 293 294 294 293 294 295 293 291 290 288 284 286 287 293 291 288 290 293 298 297 292 291 292 292 291 290 290 291 290 290 291 291 291 290 290 290 290 290 290 289 290
299 299 298 299 301 293 293 292 291 292 293 292 291 292 292 293 293 293 293 292 290 286 287 288 290 291 291 290 287 289 290 291 290 292 292 291 292 291 290 290 290 290 288 288 287 286 286 285 286 287 287 287 287 288
297 296 298 297 291 289 290 290 290 290 291 291 290 291 292 292 294 294 294 291 288 283 287 288 290 290 287 288 291 292 290 290 291 292 292 287 289 290 290 291 290 288 285 284 283 284 286 285 286 286 286 287 287 287
294 295 293 292 290 289 288 288 289 289 290 290 290 291 292 292 292 290 288 293 289 286 286 289 285 285 285 289 289 291 291 292 291 291 291 291 287 283 285 289 287 283 284 285 285 285 285 284 285 285 285 286 286 286
297 297 292 291 291 291 289 288 290 290 292 289 288 289 289 289 286 284 292 289 285 281 282 282 281 282 283 286 287 288 288 289 286 287 289 289 290 290 290 290 288 285 282 285 285 284 284 284 284 284 285 285 285 285
296 289 290 290 290 289 288 288 289 289 289 290 289 288 286 285 284 282 285 282 281 278 280 279 279 279 279 279 279 279 285 286 286 286 287 287 282 287 288 288 286 285 285 285 284 284 283 283 282 282 282 283 283 283
294 290 291 289 288 289 289 289 289 289 289 288 286 284 282 280 280 282 283 282 277 276 276 274 274 276 277 275 277 282 283 285 283 279 286 287 287 285 284 284 284 283 284 284 283 283 282 282 281 281 281 281 281 282
291 286 290 288 288 290 290 290 289 288 288 286 283 279 277 278 281 285 283 279 276 275 274 277 278 276 278 278 278 277 282 285 286 284 284 284 285 285 276 275 275 281 282 282 281 280 280 279 279 279 279 279 279 280
291 287 285 285 286 286 287 287 287 288 287 286 281 280 281 285 286 284 279 275 276 279 281 283 283 280 280 281 282 281 281 283 284 283 282 282 282 282 282 280 278 280 279 279 278 277 277 277 277 277 276 277 278 278
287 286 288 285 285 284 287 287 288 289 286 283 283 283 287 289 288 281 277 278 279 279 281 282 283 284 283 282 281 281 281 281 281 281 280 280 279 278 278 277 277 277 277 277 277 276 276 276 276 276 276 276 277 277
286 286 287 286 286 285 285 286 286 283 282 284 285 284 283 280 275 275 278 278 278 279 278 278 278 279 280 280 280 280 281 281 281 275 275 272 270 277 277 277 277 276 276 276 276 275 275 275 276 277 277 276 275 275
286 285 286 284 286 285 280 277 279 276 277 278 278 278 278 276 276 276 277 278 278 279 280 280 279 280 280 280 279 279 279 279 279 279 270 269 272 275 275 275 275 275 275 275 275 275 275 275 275 275 274 274 274 274
283 284 283 281 280 276 274 272 273 275 274 274 273 278 277 273 276 276 277 278 279 279 278 277 278 279 280 279 279 275 274 277 277 276 276 275 275 275 275 275 275 275 275 275 274 274 274 273 273 273 272 272 272 271
282 282 283 282 279 273 271 273 272 274 274 275 275 271 274 276 278 272 276 277 277 276 278 279 280 279 280 279 278 278 277 276 276 275 274 274 274 275 275 275 275 275 276 275 275 274 274 273 272 271 270 270 270 269
278 278 277 277 277 276 275 275 275 275 274 273 273 269 268 273 278 272 275 276 278 279 280 280 280 280 279 278 277 277 276 275 274 274 273 273 275 275 276 276 276 275 276 275 275 274 273 272 271 271 270 269 269 269

GFSWCAN_925_thetae_099.txt.gz
Theta_e
298 298 298 299 300 300 301 300 300 302 302 302 305 309 310 306 307 300 300 300 299 296 296 296 295 296 294 295 297 295 296 296 297 297 294 295 298 300 301 301 301 302 304 304 303 303 304 305 305 307 304 303 303 304
297 298 299 299 299 300 301 300 300 302 301 301 304 309 307 307 306 300 298 298 299 296 296 295 295 295 295 295 294 293 294 295 296 295 290 290 297 288 295 297 299 305 304 306 302 303 304 304 304 301 302 302 302 302
298 298 299 299 299 300 301 300 300 302 301 301 304 309 307 305 304 302 299 298 298 295 295 296 295 295 297 296 296 295 293 294 294 290 290 292 296 293 294 293 298 298 299 303 304 302 300 303 303 303 303 303 301 301
298 298 299 299 299 300 301 300 300 302 301 301 304 309 306 306 306 303 300 299 298 296 298 296 293 294 295 296 296 296 294 294 292 290 289 291 297 293 295 295 295 295 296 296 297 296 300 301 297 296 295 300 301 301
299 299 299 299 299 299 300 300 299 301 301 301 305 309 305 305 304 301 301 300 300 299 297 294 292 294 294 295 295 295 294 292 291 291 290 293 293 293 291 292 293 292 295 296 296 295 295 295 294 296 296 298 301 302
298 299 300 299 299 299 300 300 300 300 300 303 308 307 305 303 301 301 299 301 301 297 295 295 291 293 294 295 295 294 293 291 290 292 293 292 292 291 292 293 293 292 292 294 295 295 295 295 294 295 295 297 298 300
299 299 300 299 299 299 300 300 300 300 302 308 306 306 304 303 300 298 297 299 299 297 293 293 293 293 294 293 293 293 293 291 291 291 292 293 293 288 288 294 294 293 296 296 297 297 297 296 295 294 294 294 297 300
300 300 299 299 299 299 300 300 298 302 307 306 303 301 301 300 299 298 298 297 298 295 293 291 293 295 293 294 295 295 294 292 291 292 292 293 293 293 294 293 292 293 297 297 297 297 296 294 292 295 295 296 299 301
301 300 299 299 298 300 300 298 304 305 303 301 299 299 299 300 297 296 297 298 297 296 293 290 292 291 291 295 293 295 293 289 292 291 293 293 294 294 294 293 293 296 297 297 297 297 294 293 293 296 296 297 300 302
301 299 299 298 299 300 299 298 302 301 300 299 299 297 296 296 296 296 296 295 294 291 291 292 291 294 293 294 294 293 292 293 289 294 293 295 295 294 293 292 294 295 295 297 298 297 296 294 294 297 299 299 300 300
299 299 299 299 300 299 297 302 300 300 299 299 296 296 296 296 297 295 295 295 292 294 294 292 292 293 292 293 294 292 289 292 296 291 292 288 293 291 292 292 293 295 295 296 297 297 297 296 297 297 298 297 297 297
299 299 300 300 299 298 301 300 299 300 298 297 296 296 296 296 296 297 294 292 293 295 292 292 291 291 293 292 293 295 289 291 292 292 295 294 292 288 292 294 294 294 295 296 297 297 297 296 295 296 296 295 294 294
300 300 300 299 299 299 300 300 300 299 297 299 298 297 299 295 295 297 296 291 293 292 293 293 294 293 293 292 293 293 296 293 295 298 296 292 291 291 289 293 294 295 295 296 296 297 296 295 294 293 293 292 292 291
300 300 299 298 300 300 300 300 298 299 302 298 299 299 299 293 295 295 296 295 292 293 294 293 294 294 294 293 295 289 294 298 299 296 294 291 292 293 291 294 295 295 294 295 295 294 294 293 292 291 291 290 290 290
299 299 297 299 301 300 299 299 300 302 298 298 298 301 297 294 295 292 288 291 291 295 294 294 293 293 292 292 292 295 299 298 297 294 292 289 291 290 291 293 294 294 293 292 292 293 294 293 292 291 288 286 286 286
296 299 297 297 301 299 299 300 300 297 293 294 291 295 295 296 296 290 291 295 294 294 291 292 291 289 290 291 294 294 292 292 293 290 288 289 290 289 290 292 294 293 292 292 291 289 288 287 286 287 287 287 285 285
298 296 298 301 299 300 300 300 296 294 294 292 295 294 293 295 294 293 295 295 293 293 291 289 290 291 289 287 291 291 291 290 288 290 288 290 290 289 288 288 293 294 292 291 291 290 290 289 290 290 289 288 288 286
297 300 300 299 298 298 295 294 293 294 294 293 295 294 294 294 296 295 294 294 293 289 289 288 289 289 290 291 291 291 289 284 286 288 289 290 289 288 289 288 291 293 293 292 291 291 291 291 290 290 291 292 291 290
299 299 298 298 299 296 293 292 291 291 290 292 293 293 294 295 294 294 295 291 290 289 288 285 286 287 292 291 288 282 290 288 295 291 290 290 291 290 290 289 291 291 291 291 290 288 288 289 288 288 287 287 287 289
299 297 299 300 301 293 293 292 291 290 292 292 292 292 293 293 293 292 291 291 289 285 287 286 290 290 291 290 286 288 293 293 290 292 292 290 290 290 289 288 289 289 288 287 286 286 285 284 285 286 286 286 286 287
296 295 299 299 291 290 290 289 289 289 291 291 290 292 292 293 294 294 292 290 289 285 287 288 290 289 286 286 290 290 289 289 290 291 291 286 289 290 289 289 290 288 287 284 283 283 286 285 285 285 285 286 286 286
294 296 293 293 290 289 288 288 289 289 290 290 290 291 293 293 293 291 289 293 289 287 286 288 285 285 285 288 288 290 291 291 291 291 290 290 286 282 283 288 286 285 285 285 284 284 285 284 284 284 285 285 285 285
297 298 293 292 291 291 289 288 290 291 292 289 289 291 290 289 286 285 291 290 287 281 282 282 280 281 282 285 287 287 288 289 285 287 289 289 289 288 289 289 288 286 280 285 285 285 284 284 283 283 282 282 283 283
298 290 291 291 290 289 289 289 290 290 290 290 290 288 287 286 285 286 289 287 282 278 280 279 277 279 279 279 278 278 284 285 286 285 286 286 281 286 287 288 287 287 285 284 284 284 283 282 282 282 281 281 281 281
295 290 291 289 288 290 289 289 289 291 290 289 288 286 284 283 287 286 288 287 279 278 277 275 277 276 278 274 275 280 283 284 282 279 284 286 286 285 283 284 283 283 283 283 283 283 282 281 280 280 280 279 279 280
291 287 291 290 289 292 291 291 291 290 289 288 285 281 281 284 286 289 287 282 279 277 276 279 279 277 278 277 277 276 282 285 285 282 282 284 285 285 276 275 274 280 281 281 281 281 279 278 278 278 278 278 277 277
291 287 285 285 286 287 288 288 288 290 290 288 283 282 285 289 287 286 280 277 277 278 281 283 283 280 280 280 280 281 282 284 285 283 281 282 282 282 282 280 277 279 279 279 278 277 277 277 276 276 275 276 276 276
287 286 287 285 285 284 288 288 289 290 288 284 285 286 288 288 289 282 277 277 278 280 281 282 283 284 284 282 281 280 280 281 281 280 280 279 279 278 278 277 277 277 277 277 276 276 275 275 275 275 275 276 276 276
286 286 288 287 286 286 286 288 288 284 283 284 287 286 284 280 275 274 276 277 278 279 277 276 276 279 279 279 279 280 280 281 280 274 274 272 269 276 276 276 276 276 276 276 275 275 274 275 276 276 276 274 274 274
287 286 287 286 288 286 280 277 280 278 278 279 279 278 278 276 275 275 276 277 277 278 279 279 278 279 277 279 277 278 278 279 280 280 271 270 272 275 275 275 275 275 275 275 275 275 275 275 275 274 274 274 273 272
285 285 284 282 281 277 275 274 275 276 275 275 274 278 278 274 275 276 277 278 278 278 277 275 277 279 280 279 280 276 274 278 278 277 277 276 275 275 275 275 275 275 275 275 275 274 274 274 273 272 271 271 271 269
283 282 284 283 280 275 274 276 276 277 276 277 276 273 274 276 279 274 275 277 275 276 278 279 279 279 280 281 280 280 279 278 276 276 275 275 275 275 275 275 275 275 275 275 275 274 274 273 272 271 270 270 269 269
279 279 276 279 279 276 275 276 276 277 275 274 273 269 269 274 280 274 275 276 278 279 280 280 281 281 279 279 278 277 277 276 275 275 273 273 275 276 276 276 275 275 275 275 274 274 273 272 271 270 270 269 269 269

GFSWCAN_925_thetae_102.txt.gz
Theta_e
297 298 299 299 299 299 300 300 301 302 300 300 302 300 307 307 308 307 300 299 298 296 295 295 295 295 294 294 296 294 295 295 296 297 295 295 297 299 299 298 299 300 301 303 301 301 301 304 304 307 304 302 303 302
297 298 298 299 299 299 300 300 300 301 300 300 301 300 305 308 308 306 298 298 298 296 295 294 293 294 294 294 293 292 293 294 295 294 290 290 296 288 294 297 298 302 300 301 300 301 301 304 303 301 301 302 301 301
297 298 298 298 299 300 300 300 300 301 300 300 301 300 306 308 308 304 298 298 297 296 295 295 294 294 295 295 295 295 292 293 294 289 289 292 296 293 294 293 297 297 298 302 303 302 300 300 303 300 297 299 300 301
297 298 298 298 299 300 300 299 300 301 300 301 301 303 309 308 307 301 298 298 298 296 297 295 294 294 294 296 295 295 293 293 290 289 288 290 296 292 294 294 295 294 297 297 296 296 299 300 296 295 295 295 296 299
298 298 299 299 299 299 300 300 300 300 301 301 301 302 308 307 305 302 299 299 299 299 296 294 292 294 294 295 295 295 293 291 290 291 290 292 293 292 290 292 292 291 295 296 296 294 294 295 293 295 295 296 295 297
299 299 299 299 299 299 299 299 299 299 300 300 299 301 308 306 303 301 300 301 298 297 295 295 292 293 293 294 294 293 292 290 290 292 292 291 291 291 291 292 293 291 291 291 294 295 294 294 294 293 294 294 294 294
298 299 299 299 299 299 299 299 298 299 300 300 299 304 308 306 304 300 299 299 298 298 294 294 295 293 293 293 292 292 292 290 290 290 291 292 292 287 288 294 293 291 293 295 296 296 295 295 294 292 293 294 295 296
300 300 300 300 299 299 299 299 298 300 300 300 300 306 304 303 302 300 297 296 296 295 294 294 293 295 293 293 293 292 291 290 290 292 291 293 292 292 294 292 292 292 295 296 297 296 297 295 292 292 295 296 296 299
301 301 301 301 300 299 299 299 299 300 300 300 303 300 300 300 299 298 298 297 297 297 296 291 295 294 291 294 293 293 290 290 291 291 293 293 293 294 294 292 291 292 295 296 297 297 296 295 292 293 296 299 300 300
302 302 302 301 300 299 299 300 300 299 302 301 301 298 298 298 297 297 297 297 296 294 292 294 292 295 293 293 292 292 292 291 289 293 292 294 294 293 292 291 291 293 294 295 298 297 296 296 295 297 298 298 298 298
303 303 302 300 299 299 300 301 299 301 301 301 296 296 296 297 299 295 296 297 295 296 293 292 291 294 291 292 292 291 290 291 287 290 290 287 291 291 291 290 291 292 293 295 297 297 297 297 297 297 297 297 296 296
302 301 300 300 300 300 300 300 301 302 300 297 297 296 297 297 297 298 297 293 293 295 292 292 291 290 292 292 294 294 289 288 290 290 295 293 291 287 290 292 292 292 293 295 296 297 297 297 296 295 295 294 293 293
299 299 300 300 299 298 302 301 302 299 297 299 298 296 299 294 293 295 294 290 290 292 292 293 294 292 292 291 292 292 292 293 292 297 296 291 290 289 287 291 292 294 295 295 296 297 296 295 294 293 293 292 292 292
300 300 300 299 298 298 302 301 299 300 301 298 298 299 298 294 294 294 295 295 294 294 294 293 293 293 294 292 292 290 293 296 298 295 293 289 291 291 289 292 293 294 294 295 295 295 294 294 293 292 291 289 289 289
300 300 298 297 299 301 301 300 300 301 298 298 297 297 296 293 294 290 290 294 293 294 293 293 292 293 291 291 292 294 298 298 296 293 291 288 290 290 290 295 294 294 294 293 293 293 294 293 291 290 288 286 285 285
299 298 297 297 301 300 299 299 300 297 293 293 290 294 295 295 295 288 292 295 294 294 291 292 291 289 291 293 296 292 292 292 292 289 288 287 289 289 289 294 293 293 293 292 292 290 288 286 286 287 289 286 286 285
297 297 301 300 300 299 299 299 296 293 294 293 295 294 292 293 295 293 294 294 294 293 291 289 290 292 290 288 291 291 290 290 287 285 289 289 291 289 288 289 293 292 292 292 291 291 290 289 289 290 290 291 290 290
298 297 299 300 298 299 296 293 293 294 293 293 294 294 295 295 295 294 292 294 292 289 290 289 289 288 291 291 291 291 287 284 285 287 288 289 288 287 289 288 292 293 293 292 292 291 291 290 290 290 291 291 290 290
300 298 298 297 298 296 293 291 291 292 290 292 293 293 295 295 293 293 294 291 289 289 289 287 289 287 291 289 288 281 291 290 295 291 289 288 289 288 289 290 291 292 292 291 290 289 288 288 287 287 287 286 285 286
300 299 297 299 300 292 292 291 291 291 292 292 292 293 294 294 293 292 291 291 290 288 289 288 290 290 291 290 286 287 288 289 290 291 291 289 289 289 287 287 289 289 288 286 285 285 284 284 285 285 285 285 285 285
296 296 298 298 292 290 289 289 289 290 291 291 291 293 293 293 295 293 291 289 291 286 289 287 289 288 285 284 289 290 289 289 290 291 292 286 288 289 288 288 288 287 286 285 283 283 286 284 284 284 284 285 285 285
294 296 295 293 290 289 289 287 288 289 290 290 291 292 294 294 294 292 287 289 288 289 287 289 285 284 284 287 287 289 290 290 290 291 290 290 286 283 285 286 284 284 286 287 285 284 284 284 284 284 284 283 283 283
297 298 293 292 291 291 289 288 290 291 294 290 290 292 291 290 286 286 289 287 288 284 283 282 280 280 281 284 286 287 289 289 285 287 289 288 287 287 288 288 288 286 281 287 285 285 284 284 283 283 282 282 281 281
298 290 292 291 291 289 289 289 290 290 290 291 290 289 288 288 286 288 290 289 287 280 281 280 280 281 280 279 278 278 284 286 284 284 286 287 280 285 287 287 287 287 286 284 283 284 283 282 282 281 281 280 280 280
297 291 291 290 289 290 290 290 290 291 291 289 289 287 286 285 290 287 290 291 281 278 279 278 278 280 283 276 275 279 283 284 281 278 283 285 285 282 282 283 282 282 282 282 282 282 282 281 280 279 278 278 278 278
292 287 291 290 289 291 290 291 291 290 290 289 286 282 283 287 290 291 289 285 280 280 278 282 282 279 279 277 278 276 282 284 285 281 281 284 285 285 275 276 274 278 280 280 280 280 279 278 277 277 277 277 276 276
291 286 286 286 287 288 289 289 289 291 291 289 285 284 287 292 292 289 283 280 280 278 281 284 284 283 281 277 278 281 283 284 285 283 281 282 282 282 282 279 276 278 279 278 278 277 277 276 276 275 274 275 276 275
287 286 288 286 286 286 289 289 291 293 290 286 286 288 291 292 291 283 279 275 276 276 279 281 283 284 282 281 281 280 279 280 280 280 279 278 277 278 278 278 277 277 277 276 276 276 275 275 274 275 275 275 275 275
285 286 288 287 287 287 287 289 289 285 283 285 290 288 285 281 276 276 275 276 276 277 277 275 274 279 278 278 278 279 280 280 279 273 274 272 268 276 276 276 276 276 276 276 275 275 274 275 276 276 274 274 273 273
286 286 288 287 289 287 281 278 281 279 279 280 280 279 279 277 274 274 275 276 277 277 277 277 276 278 276 276 274 276 278 279 279 280 272 270 272 276 276 276 275 275 275 275 275 275 275 275 274 274 273 272 272 271
286 286 284 283 281 278 276 275 276 278 278 278 277 281 280 277 275 275 276 277 277 277 276 274 276 278 278 277 277 273 273 277 278 278 278 277 276 276 276 275 275 275 275 275 275 274 274 273 273 272 271 270 270 269
284 284 285 283 280 276 276 279 278 279 278 279 278 276 276 278 281 276 275 276 275 274 277 278 278 278 280 281 281 281 281 279 277 277 276 276 276 275 276 275 275 275 275 275 274 274 273 272 271 270 270 269 269 269
280 279 278 280 280 279 277 279 278 279 278 278 277 273 274 277 282 276 275 276 278 279 280 280 280 281 280 279 279 279 278 277 276 276 275 274 275 276 276 275 274 274 274 274 274 273 272 272 271 270 270 270 270 270

GFSWCAN_925_thetae_105.txt.gz
Theta_e
304 302 300 299 298 299 300 300 300 300 300 301 302 299 300 306 305 305 301 301 299 295 294 294 294 295 294 295 296 294 295 295 296 297 295 294 297 298 298 297 298 298 297 298 300 301 300 303 303 307 303 302 302 302
303 301 299 299 299 299 299 300 300 300 300 300 301 299 300 305 304 304 299 298 298 295 294 293 293 293 293 294 292 292 292 294 295 294 290 290 296 287 294 297 297 301 298 300 299 300 298 304 303 301 300 302 301 301
301 299 298 299 299 299 299 300 300 300 300 300 302 300 300 305 306 305 299 297 296 295 293 293 294 294 294 294 294 294 292 292 294 288 289 292 295 292 294 293 296 296 297 302 302 300 300 299 302 300 296 296 296 297
299 298 298 299 299 299 300 300 300 300 300 301 302 301 300 305 308 307 299 298 298 295 296 295 294 294 294 295 295 294 293 292 289 289 288 290 295 292 293 293 294 294 295 297 297 296 296 300 296 295 294 295 295 295
297 298 299 299 299 299 300 300 300 300 300 300 301 301 300 305 308 306 299 298 298 299 297 295 292 293 294 294 294 294 293 290 290 290 290 292 292 292 289 291 292 291 295 297 297 294 294 295 294 294 295 295 294 294
298 298 298 298 299 299 300 300 299 299 299 298 299 300 300 304 306 300 300 300 298 297 295 296 292 293 293 293 293 292 291 289 290 291 292 291 291 290 291 292 292 290 290 291 293 292 293 294 293 293 293 293 293 293
298 299 299 299 299 299 299 299 299 299 299 298 299 299 299 305 305 300 300 298 297 297 294 294 294 292 293 292 291 291 291 290 290 290 291 291 291 287 287 293 293 290 291 293 295 295 295 295 294 292 291 293 295 295
299 298 298 298 299 300 299 299 298 299 299 298 299 298 298 303 302 299 296 296 296 295 294 293 294 293 293 293 293 290 291 289 290 292 291 292 292 291 293 292 292 290 292 294 295 295 295 294 293 292 293 295 298 299
298 299 299 300 300 300 300 299 299 299 299 299 301 298 301 302 299 300 296 296 296 297 294 292 295 297 292 292 292 291 290 290 291 291 293 292 293 294 294 292 290 291 294 294 295 296 296 295 294 292 295 298 299 300
299 300 301 301 301 301 301 299 299 299 299 300 301 299 297 298 300 299 299 298 296 294 291 293 292 295 293 292 292 291 292 291 289 293 291 294 293 292 291 291 290 290 292 294 296 296 295 296 295 296 298 298 297 297
299 300 301 301 301 301 301 299 300 299 300 300 295 296 297 298 299 296 298 299 297 297 293 292 291 294 291 292 291 291 291 290 286 290 290 287 290 290 290 290 289 291 292 293 295 297 296 297 296 296 297 296 296 295
301 301 302 303 302 301 300 300 299 300 300 297 296 296 297 298 297 299 299 294 295 298 291 292 291 291 292 291 292 292 289 287 289 290 294 293 290 286 288 289 290 290 291 293 295 296 296 297 296 296 295 295 294 293
301 301 302 302 301 301 300 300 300 300 299 299 298 297 300 297 299 299 296 292 290 292 291 292 294 293 291 289 292 291 289 291 291 295 295 291 289 288 285 290 290 291 293 294 295 295 296 296 295 294 294 293 293 292
301 301 301 301 300 300 300 300 300 300 300 299 299 300 300 297 297 294 294 293 292 293 294 295 294 293 293 291 292 290 293 295 296 294 292 289 290 289 288 291 294 292 293 294 294 295 295 295 294 293 291 289 287 287
300 300 300 300 300 300 300 299 300 300 298 297 297 300 297 293 292 287 287 293 293 295 295 294 292 292 289 291 292 295 296 296 295 293 291 287 288 290 289 293 291 294 294 294 294 294 294 293 292 290 288 286 286 285
298 298 299 299 300 300 299 300 299 297 293 292 291 294 295 294 293 289 292 295 295 295 292 293 291 289 290 292 295 292 291 292 292 289 287 285 289 290 290 295 292 293 293 293 292 291 289 287 285 287 289 290 287 285
298 298 298 300 300 299 299 299 295 294 295 293 295 293 291 292 293 292 295 295 295 295 294 290 291 292 290 289 290 291 291 290 287 285 285 288 290 289 290 293 290 291 292 293 292 290 290 289 288 289 290 291 291 291
297 298 300 300 297 298 296 293 293 294 293 291 296 295 295 294 294 294 293 295 294 291 291 291 290 290 292 293 292 291 287 286 284 290 287 288 287 286 289 291 292 292 291 292 292 292 291 291 290 290 289 287 287 287
299 299 298 298 299 296 293 291 292 291 291 293 293 294 295 295 293 292 293 290 289 289 288 286 288 290 292 290 288 283 290 294 293 290 288 287 288 288 289 290 292 292 293 292 291 290 289 288 287 287 286 285 284 284
300 298 298 298 300 293 292 291 291 290 293 292 292 293 294 294 292 292 291 290 290 288 289 289 291 291 291 290 286 287 292 289 291 291 290 287 287 287 287 288 290 290 290 288 287 287 285 284 284 285 285 284 283 284
297 296 298 298 292 290 290 290 290 290 291 292 291 293 293 294 294 294 293 291 293 287 291 289 290 288 285 285 288 289 288 289 291 291 291 288 287 287 286 287 287 286 286 284 283 283 286 283 284 284 284 284 284 284
296 297 296 292 290 289 288 286 287 289 289 290 291 293 294 295 295 294 289 293 290 292 289 290 287 285 286 288 287 289 290 290 290 290 290 290 287 287 286 284 283 284 284 286 286 285 284 284 284 284 283 282 282 282
297 297 293 292 292 291 289 288 289 291 294 291 291 292 291 290 288 287 296 292 291 287 286 285 282 282 283 284 287 288 289 289 286 286 287 286 286 287 287 286 286 284 281 287 287 286 284 283 283 282 282 281 281 281
297 291 292 292 291 288 289 289 290 290 291 292 291 289 289 289 288 291 292 292 290 284 284 282 283 283 282 282 281 279 284 286 283 283 286 286 279 283 286 286 285 285 285 285 284 282 282 282 281 281 281 280 279 278
297 291 292 290 288 290 288 289 290 291 290 290 289 287 287 286 291 289 291 292 285 284 284 282 283 285 288 281 277 278 282 285 282 279 282 285 282 281 281 282 281 282 282 282 282 282 281 281 280 279 277 277 277 277
292 286 290 290 289 290 290 290 290 290 290 289 286 283 284 289 291 293 291 288 283 282 283 285 285 283 282 279 280 277 282 284 286 280 281 284 286 285 275 275 273 278 280 281 281 280 279 277 277 276 276 276 275 275
290 287 286 286 287 288 288 288 289 292 292 290 286 285 288 294 295 290 282 280 282 279 282 285 285 285 282 276 278 281 283 284 285 283 282 283 283 283 283 279 275 279 279 278 278 278 277 276 275 275 275 275 275 274
287 286 289 286 287 286 289 289 291 294 291 287 288 290 293 295 292 280 277 275 275 276 279 282 283 284 281 280 280 281 279 279 279 279 278 278 278 278 279 279 278 277 277 277 276 276 275 275 275 275 274 274 273 273
286 287 289 288 287 287 286 290 290 285 284 287 292 290 288 281 275 274 275 275 275 277 277 276 274 278 278 278 279 280 279 279 278 274 274 272 268 275 276 277 277 276 276 275 275 275 274 276 275 274 274 272 272 272
288 287 288 288 290 287 281 279 281 279 279 281 281 280 279 277 274 274 275 276 277 278 278 277 275 277 276 276 273 275 277 278 279 280 274 272 274 277 276 276 276 275 275 275 275 275 274 274 274 273 273 272 272 271
286 285 283 282 281 278 277 276 277 279 278 278 277 281 279 275 274 275 276 277 277 276 276 275 275 277 277 276 276 274 274 277 279 279 280 279 277 276 276 275 275 275 275 275 275 275 274 273 272 271 271 271 270 269
283 284 285 283 280 277 277 280 280 280 279 280 279 277 276 279 280 276 275 276 275 276 278 277 277 276 279 280 281 282 282 280 278 278 278 277 276 276 275 275 275 275 275 275 274 273 273 272 271 271 270 270 270 270
281 281 280 281 281 281 279 281 280 281 280 280 278 275 275 278 283 277 274 276 278 279 279 279 279 279 279 280 280 280 279 278 277 276 276 276 276 276 276 275 274 274 274 274 273 272 272 272 271 271 271 271 271 271

GFSWCAN_925_thetae_108.txt.gz
Theta_e
308 307 306 305 303 301 299 299 300 300 301 301 300 301 301 304 309 306 301 302 300 299 297 295 295 297 297 299 301 298 299 298 300 304 305 305 305 304 303 302 303 303 303 304 303 305 306 302 306 308 307 305 305 305
308 307 307 305 303 301 299 299 300 300 300 300 299 300 302 305 303 302 298 299 298 299 297 293 293 293 294 294 297 296 297 299 301 302 300 301 303 300 303 304 300 305 303 306 305 305 302 306 306 304 304 305 302 301
307 306 306 304 302 300 299 299 300 300 300 300 300 301 302 303 304 303 300 298 297 298 296 296 296 293 294 294 294 300 297 297 298 295 300 301 303 301 304 303 303 301 300 305 305 305 303 303 304 304 300 299 298 298
307 307 305 303 300 299 300 299 300 300 300 301 301 301 302 302 303 302 301 299 298 298 301 297 294 294 294 294 295 294 295 293 294 296 300 301 301 298 301 298 300 301 301 304 305 303 300 301 301 300 297 298 298 298
307 305 303 300 298 299 299 299 299 300 300 301 300 301 301 301 305 304 302 299 298 301 302 297 293 293 293 294 293 294 295 296 297 299 300 301 298 297 296 296 299 298 303 304 304 301 300 301 298 297 297 297 297 297
305 303 301 297 298 299 299 300 299 299 299 299 299 299 301 301 306 304 300 302 298 297 299 300 294 294 293 293 294 294 294 294 296 299 298 296 294 297 300 301 300 297 297 298 299 296 297 298 297 296 296 296 296 297
303 299 297 297 298 299 299 299 299 299 299 299 299 298 301 301 304 303 301 300 299 297 299 297 297 294 293 293 294 295 293 294 296 297 297 297 296 296 298 301 299 296 296 295 296 298 298 297 297 295 295 295 297 298
297 297 298 298 299 299 299 299 299 298 299 299 299 298 301 300 300 300 298 297 296 296 297 299 297 296 293 296 297 294 296 295 295 296 295 296 295 295 298 298 295 294 295 297 297 298 298 297 295 295 295 297 299 300
296 298 298 299 299 298 298 298 299 298 299 299 299 300 300 299 300 299 296 296 296 297 301 298 301 302 294 295 295 295 294 298 294 297 297 296 297 299 299 298 295 294 297 298 297 298 297 297 296 296 297 298 299 299
298 298 298 298 298 298 299 299 299 300 299 299 300 299 296 298 299 297 298 300 300 298 296 299 296 298 296 296 295 296 295 297 299 296 295 296 298 297 295 295 295 295 296 297 298 297 297 297 296 296 298 298 298 297
298 298 298 299 299 300 300 300 300 300 299 300 298 297 297 298 301 298 300 302 302 302 297 296 296 296 293 298 298 295 296 295 298 297 297 298 298 297 294 295 293 295 296 297 298 297 297 297 297 296 296 297 296 296
298 299 300 300 300 300 300 301 301 300 300 297 296 297 297 299 298 301 302 302 302 303 294 296 295 296 294 295 297 293 296 292 299 294 296 298 298 293 292 294 293 294 295 296 297 298 297 297 297 296 295 295 294 294
299 299 300 300 301 301 301 301 301 299 298 298 298 296 297 299 302 303 302 300 302 296 293 295 297 295 294 295 296 296 297 297 294 296 298 299 295 292 292 293 294 295 295 296 296 296 296 296 295 295 294 294 293 292
299 300 301 301 302 303 302 301 300 298 299 298 298 301 301 301 301 301 301 298 296 296 295 298 296 298 296 297 296 298 296 295 297 297 299 298 295 293 292 294 295 295 296 296 296 296 296 296 296 294 293 291 289 287
300 300 301 302 302 302 302 300 298 299 297 298 299 304 301 297 293 293 293 295 295 296 298 296 297 296 296 296 296 296 296 298 297 300 299 296 293 293 293 295 295 296 296 295 295 294 294 295 293 292 288 287 286 285
299 301 301 301 300 301 300 298 299 298 293 294 293 296 295 295 293 293 295 296 296 298 297 298 297 297 297 297 296 298 298 298 302 298 296 292 294 294 295 295 294 295 295 294 294 293 292 291 288 287 288 289 289 287
299 299 300 300 299 300 300 298 297 295 296 295 295 295 294 295 295 294 296 296 296 298 300 296 298 299 295 296 297 296 297 300 297 294 291 293 294 294 295 295 294 294 294 294 293 291 290 289 288 289 290 291 290 290
298 300 300 300 300 298 296 294 293 295 294 294 296 295 296 294 295 295 295 296 297 295 296 298 294 295 298 298 298 298 295 291 289 292 291 292 293 294 294 294 292 292 292 293 292 292 292 291 291 291 289 287 287 287
298 299 300 299 298 296 293 292 292 294 294 294 295 296 295 294 293 293 295 295 292 292 292 294 296 298 297 296 297 292 292 294 293 292 291 291 292 292 292 292 293 291 291 292 292 291 291 290 289 288 287 286 286 285
298 298 298 298 299 293 293 292 291 293 295 294 294 295 294 294 293 293 293 292 293 294 295 295 296 294 294 293 291 291 294 293 293 293 292 290 290 289 290 291 292 292 292 291 290 289 287 286 284 285 285 284 284 285
298 297 297 298 292 290 290 291 292 292 293 294 293 294 295 294 294 295 295 292 295 294 295 292 292 290 287 288 289 291 292 293 296 296 294 291 288 289 287 289 290 289 289 288 287 287 287 285 285 284 284 283 283 283
295 296 294 293 291 289 289 288 291 291 291 292 293 294 296 296 296 296 293 297 295 296 293 292 290 290 290 290 289 289 291 291 291 293 292 290 289 288 287 286 286 287 287 286 286 287 286 284 284 283 283 282 282 282
297 297 292 292 292 292 290 288 290 292 296 293 293 294 293 294 292 290 298 297 295 291 289 288 286 285 287 285 287 288 289 290 290 290 290 288 288 288 288 286 286 287 285 285 287 286 284 283 283 283 282 281 281 280
297 292 294 292 291 290 290 289 290 291 292 293 292 291 291 291 289 294 298 295 293 288 288 286 287 286 286 288 288 286 285 287 284 284 286 287 286 284 285 285 285 286 286 285 284 283 283 282 281 280 280 279 278 277
296 293 293 290 288 288 288 290 290 290 292 292 291 289 289 288 294 294 295 295 290 289 288 287 290 293 293 287 284 282 283 286 287 286 281 285 281 280 280 281 281 282 283 283 282 282 280 279 279 278 277 276 276 276
294 289 293 287 290 288 289 291 292 291 290 291 290 286 286 290 293 296 293 290 287 287 287 289 291 288 287 287 285 283 283 285 286 284 280 283 284 285 283 283 282 279 281 282 281 280 278 278 277 276 275 275 275 274
291 286 286 287 287 288 289 289 290 292 292 290 287 286 289 294 296 292 283 281 283 281 285 288 288 291 288 281 280 282 283 284 285 284 283 282 284 285 285 283 280 281 280 280 279 279 277 276 275 275 274 274 274 273
285 285 288 286 285 285 289 290 292 293 293 288 288 290 294 297 295 283 279 276 275 277 280 283 285 286 282 280 280 280 278 279 280 280 279 278 279 280 281 281 281 279 278 277 277 277 276 276 275 274 274 273 273 272
284 286 288 286 287 286 285 289 290 287 285 288 293 292 290 281 276 276 275 274 276 278 279 277 275 277 277 277 278 279 278 278 280 281 280 278 276 276 277 278 278 277 277 276 275 275 275 275 274 274 273 272 272 272
288 288 290 289 289 287 281 279 282 280 280 282 282 281 280 278 274 273 274 276 278 280 279 278 277 279 278 277 274 274 277 279 281 282 281 279 278 278 277 277 276 276 275 275 275 275 274 274 274 273 272 272 272 271
286 286 284 283 281 279 278 277 279 280 280 280 280 283 281 278 275 274 276 277 277 276 277 278 278 278 278 278 279 278 277 278 280 282 282 282 280 278 277 276 276 275 275 275 275 274 274 273 272 272 271 271 270 270
284 284 284 283 281 278 277 281 282 282 281 282 281 279 279 281 283 277 275 276 277 278 280 279 279 277 279 280 281 282 282 281 280 280 280 279 278 277 276 275 275 275 275 275 274 273 273 272 272 271 271 271 271 271
282 282 281 281 281 281 280 282 283 283 283 283 281 278 278 280 284 278 274 276 278 279 278 279 279 279 280 281 281 281 281 280 278 278 277 277 276 276 275 275 275 275 274 274 273 273 273 272 272 272 271 271 272 272

GFSWCAN_925_thetae_111.txt.gz
Theta_e
309 309 309 309 308 307 305 303 300 300 300 301 301 301 300 300 303 306 304 303 304 304 301 298 299 300 300 301 303 301 301 301 301 304 306 307 305 306 305 305 304 305 305 306 305 307 308 306 307 310 309 307 307 307
309 309 309 309 308 307 305 303 300 300 299 300 300 300 299 301 301 303 301 304 303 303 300 296 295 295 296 297 301 300 301 302 303 304 305 306 306 306 305 305 303 305 304 308 306 307 306 306 308 307 306 307 306 303
308 308 309 308 308 307 304 303 300 299 299 300 300 300 300 301 303 303 301 300 300 302 300 298 298 295 294 295 295 303 301 301 301 301 305 305 306 304 305 305 304 304 303 304 306 306 305 306 306 305 305 303 301 300
308 308 309 308 307 307 304 302 299 300 300 300 301 301 301 301 304 304 301 300 303 303 306 301 295 296 294 294 295 296 297 297 298 300 305 305 304 302 304 302 302 304 303 304 305 305 304 303 303 304 301 300 299 299
308 308 308 307 307 306 304 300 299 299 299 301 301 301 301 301 302 303 302 300 301 303 305 300 296 295 295 295 296 296 297 299 301 302 303 304 301 300 300 299 301 301 303 305 305 305 304 304 303 300 300 299 299 298
308 308 308 307 306 305 303 298 299 299 299 299 300 300 300 301 301 302 303 302 298 300 303 303 296 296 295 296 296 297 297 298 300 302 302 300 297 300 303 303 303 302 301 303 303 301 300 300 299 299 298 297 297 297
308 308 307 307 306 304 300 297 299 299 299 299 299 299 299 300 301 304 304 302 303 298 302 302 301 296 295 296 297 297 297 298 300 301 300 301 299 299 302 302 302 301 300 299 299 299 300 299 300 297 297 297 297 299
307 307 307 306 305 302 296 297 299 299 299 299 299 299 299 301 300 301 302 300 299 300 300 304 301 298 295 298 300 297 299 298 299 301 299 299 298 298 301 301 300 299 299 299 299 300 300 299 297 297 297 298 298 299
307 307 306 305 303 297 297 298 299 299 299 298 299 299 300 300 300 299 298 296 297 300 306 302 305 306 296 298 299 297 298 301 298 300 299 299 300 302 301 301 300 298 298 299 299 299 299 299 297 297 298 298 298 299
307 306 305 302 297 297 299 299 299 299 298 298 299 300 299 299 300 297 296 298 300 301 300 301 301 300 298 298 299 300 298 301 302 300 298 298 301 301 300 300 300 298 298 299 299 299 299 299 297 297 298 298 297 298
305 304 300 296 297 299 299 299 299 298 299 300 300 299 299 297 300 300 299 300 301 304 302 301 301 298 296 301 301 299 301 300 302 302 299 303 302 302 299 299 297 297 298 299 300 299 299 299 298 298 297 297 297 297
303 298 297 298 299 298 298 298 298 299 301 299 297 298 298 299 301 301 302 303 304 304 301 301 299 299 296 298 300 296 301 296 303 298 299 301 304 298 296 297 296 297 298 299 298 299 298 298 298 297 296 295 295 294
297 298 299 298 298 298 299 299 299 300 299 298 299 297 297 298 301 304 305 306 305 303 299 299 299 297 296 299 299 299 300 301 297 299 301 304 300 295 295 296 296 297 298 298 298 298 298 298 296 296 295 294 294 293
298 298 298 298 299 300 300 300 300 300 298 298 299 301 300 304 303 306 307 307 303 301 298 301 298 301 298 300 299 303 300 298 300 301 302 303 301 296 295 296 296 297 297 298 297 297 297 296 296 295 295 294 293 290
298 298 299 299 299 300 300 300 301 299 298 298 299 304 303 302 298 299 300 299 298 298 300 300 300 300 300 299 300 298 297 300 301 303 306 303 298 295 295 297 297 298 298 297 297 296 296 295 295 294 293 290 288 287
299 299 300 300 300 301 301 301 301 298 294 297 298 300 299 301 298 296 298 299 299 300 300 302 301 302 302 303 299 301 301 302 306 304 302 297 296 295 296 297 297 298 297 296 296 295 294 294 293 293 289 290 290 288
299 300 300 300 301 302 302 301 293 294 297 297 298 297 299 300 302 300 298 298 299 300 303 303 303 305 300 301 301 302 303 305 306 300 297 297 296 296 296 296 296 296 296 295 294 294 293 292 290 290 291 291 291 291
299 299 301 302 301 296 294 292 293 296 297 297 299 298 296 297 298 297 297 297 299 301 300 304 298 298 302 302 303 302 300 296 296 296 295 296 296 296 296 296 295 295 294 294 293 292 292 291 291 292 292 289 288 288
299 300 301 299 297 294 294 293 293 298 297 296 296 296 296 296 296 297 296 297 295 295 296 298 302 304 302 301 304 301 298 297 295 294 294 296 296 296 295 293 293 293 293 293 292 293 292 292 292 291 290 288 288 287
299 301 297 297 298 295 295 293 293 296 297 296 295 296 296 296 295 296 296 296 295 297 298 300 301 299 298 297 296 296 297 296 294 294 294 294 295 293 293 293 293 293 293 292 292 291 290 289 287 287 287 286 286 286
300 300 297 297 292 291 294 294 295 295 294 296 295 296 296 295 295 296 295 294 296 299 301 297 295 292 290 291 291 295 295 294 296 296 294 293 292 292 292 292 293 293 292 291 290 289 288 287 287 285 285 285 285 284
293 296 295 294 292 291 291 290 294 293 295 296 295 296 297 297 296 296 294 297 298 299 297 294 293 292 291 292 292 293 293 293 294 295 294 292 291 291 290 290 290 290 290 289 288 289 289 287 285 284 283 284 282 282
295 296 293 292 293 293 291 290 294 294 297 295 295 296 296 297 296 294 299 299 299 294 291 291 290 290 290 288 289 290 292 293 294 293 293 292 291 290 289 288 289 289 288 287 288 288 287 284 284 283 282 281 281 280
296 293 296 295 294 293 292 292 292 294 295 296 296 294 294 294 291 297 300 299 297 290 289 288 290 290 290 291 292 290 288 290 289 289 289 289 289 288 289 287 288 288 288 288 287 285 283 283 283 281 280 280 279 279
297 294 295 292 291 292 292 293 293 294 295 294 294 293 292 290 297 298 298 298 293 293 291 290 292 294 295 292 288 285 286 290 291 288 284 288 285 284 283 283 283 285 286 284 283 283 281 280 280 279 278 278 277 278
296 292 294 294 292 294 293 294 293 293 293 293 293 289 289 293 296 298 297 296 293 294 292 292 294 293 292 291 289 287 285 288 289 287 282 285 287 287 286 284 283 281 283 283 283 281 279 279 278 277 276 276 276 275
293 291 289 288 290 291 292 292 292 294 293 292 290 289 292 296 298 297 286 283 286 285 290 292 294 294 290 285 282 284 284 286 287 285 283 284 285 286 287 286 285 282 281 281 281 280 279 277 276 276 275 275 274 273
290 288 292 290 289 289 291 292 293 294 295 291 291 293 296 298 299 284 281 278 277 280 283 285 288 288 287 283 280 280 280 281 281 282 281 280 280 282 282 283 282 280 280 279 279 278 277 277 276 275 274 274 273 272
289 288 289 288 287 288 288 292 293 289 287 290 296 295 292 282 278 279 277 276 277 280 282 281 278 279 279 278 278 280 279 280 283 284 284 281 278 276 278 279 278 278 278 277 277 276 276 275 275 274 273 273 272 272
290 289 291 287 285 287 283 281 284 282 282 283 283 282 282 279 276 274 275 277 280 283 282 280 279 281 279 279 276 276 279 281 284 285 285 282 282 278 277 277 277 277 277 276 276 276 274 274 274 273 273 272 272 271
288 287 285 284 283 281 280 279 281 282 282 282 282 285 283 280 277 275 276 277 278 279 280 281 281 281 281 279 280 279 279 279 281 282 283 283 281 279 278 277 277 276 276 275 275 274 274 273 273 272 272 271 271 271
286 287 286 285 282 280 279 283 284 284 284 285 283 282 281 283 285 279 276 277 279 281 282 281 281 281 281 281 281 282 283 281 281 281 282 281 280 278 278 277 276 276 275 275 274 274 274 273 272 272 272 272 272 271
284 283 283 283 283 283 282 285 286 285 285 285 283 281 281 283 286 280 276 277 279 281 280 280 280 280 281 281 282 281 282 281 280 280 280 280 279 278 277 276 275 275 275 274 274 274 273 273 272 272 272 272 272 271

GFSWCAN_925_thetae_114.txt.gz
Theta_e
307 307 308 309 309 309 309 307 305 303 299 300 300 300 300 299 300 302 303 302 303 304 302 299 300 300 300 300 302 300 300 300 300 303 305 305 303 304 303 304 303 304 301 301 303 304 303 305 306 309 307 307 307 306
307 307 308 309 309 309 309 307 306 303 299 299 300 300 300 300 301 302 303 304 303 304 300 297 297 297 297 297 299 299 301 301 302 303 303 304 304 302 303 301 303 302 302 305 303 305 304 305 306 305 305 305 305 304
307 307 308 308 309 309 309 307 306 303 299 299 299 300 300 300 301 303 301 304 303 303 301 298 298 296 295 295 296 300 299 300 300 299 302 303 303 301 301 301 303 302 302 301 303 304 304 304 306 305 304 303 300 300
308 308 308 308 309 309 309 307 306 303 299 298 300 300 300 300 301 304 301 303 303 304 305 299 296 296 296 295 295 296 297 297 298 298 301 301 302 300 301 300 300 300 300 301 302 302 304 302 303 303 300 299 299 299
308 308 308 308 308 309 308 307 306 303 298 299 301 301 301 300 301 303 302 301 302 303 304 300 296 296 295 295 296 296 296 298 298 298 299 300 299 297 297 296 297 299 300 301 301 302 301 303 300 300 299 299 299 298
308 308 308 308 308 308 308 307 305 302 297 299 299 300 300 300 301 302 302 303 301 300 304 303 296 296 295 296 296 297 298 297 298 300 301 299 297 297 299 299 300 297 298 299 300 299 299 298 297 298 298 297 297 297
308 308 308 308 308 308 308 307 305 299 297 299 299 299 300 300 301 303 304 301 301 299 301 303 299 295 296 296 296 296 296 297 298 299 298 299 297 295 296 300 300 299 297 297 297 297 299 298 298 296 296 296 297 298
308 308 308 308 308 308 308 306 303 297 298 299 299 299 299 300 300 300 301 302 299 300 301 303 300 296 295 296 298 296 297 297 297 298 297 297 295 295 298 299 299 298 297 297 296 298 299 296 295 295 296 297 298 298
308 308 308 308 308 308 307 305 299 297 299 299 299 299 300 300 300 300 301 301 298 300 302 301 300 300 294 297 297 296 297 298 296 297 298 297 298 297 297 297 297 296 297 297 297 297 297 296 295 295 296 296 298 298
308 308 308 308 308 307 306 302 297 298 299 299 299 300 300 299 299 299 297 297 297 298 298 300 299 298 296 297 297 297 297 299 297 298 295 297 298 299 298 298 297 296 296 297 298 297 297 297 295 295 296 296 297 297
307 307 307 307 308 306 304 298 298 299 299 299 300 299 299 299 299 299 299 298 298 300 299 299 299 296 295 297 299 298 295 297 295 298 296 297 299 297 297 298 296 295 296 297 297 297 297 296 296 295 296 297 297 297
307 307 307 307 306 304 300 297 299 300 299 299 299 298 297 298 300 300 301 299 301 301 300 301 298 296 295 296 298 296 297 294 297 295 294 297 298 295 295 296 295 295 295 297 297 297 297 296 296 295 295 296 296 295
307 307 307 306 304 300 298 298 300 299 299 299 298 297 298 298 300 303 301 301 302 301 297 297 296 295 295 296 299 299 299 297 295 295 297 298 299 295 290 294 294 295 296 296 297 297 296 296 297 296 296 295 295 294
307 306 305 303 300 298 298 299 299 299 299 297 298 299 299 300 299 300 300 301 300 298 298 299 296 298 298 299 299 301 300 296 296 297 299 298 298 294 293 293 295 296 296 296 296 296 296 295 295 295 295 294 294 293
305 303 302 299 298 298 299 298 298 299 297 297 298 301 300 298 296 297 295 296 297 298 299 298 297 298 299 300 300 300 297 295 298 299 301 298 294 293 293 294 294 296 296 296 295 294 294 295 295 295 295 293 291 288
301 300 300 299 298 298 298 298 299 300 295 297 297 301 300 299 298 292 293 296 296 298 299 298 299 301 300 302 299 296 296 296 298 300 300 293 293 293 293 294 294 296 295 294 294 295 294 294 294 293 291 289 289 288
299 299 298 298 298 299 299 301 301 298 295 297 298 297 298 298 299 296 296 297 297 299 300 299 301 300 296 295 296 297 297 299 300 298 295 293 292 293 294 294 295 295 294 294 294 294 294 293 293 290 288 290 290 291
298 298 299 299 299 300 301 296 294 296 298 298 299 298 296 296 297 297 297 297 299 298 299 301 295 294 297 297 297 297 298 295 294 294 293 293 291 293 294 294 294 294 293 293 293 293 292 290 288 289 291 290 289 289
299 300 299 300 300 295 294 291 293 298 298 297 297 296 296 295 294 295 295 296 297 295 293 298 301 299 298 295 297 300 298 295 294 293 294 293 293 293 293 293 293 293 292 291 291 290 290 291 291 291 290 290 289 288
299 299 300 300 300 294 294 293 292 296 296 296 296 296 295 293 293 295 295 296 297 296 298 297 300 298 296 294 293 294 295 294 294 294 295 294 293 291 292 292 292 292 291 292 292 292 291 289 289 289 288 288 286 285
300 300 299 297 293 292 294 294 296 296 294 294 295 293 293 293 295 296 295 295 295 297 300 295 294 291 290 289 290 293 294 293 294 294 295 295 293 291 290 291 291 291 291 291 291 290 289 287 288 287 286 286 285 285
298 297 294 293 292 291 292 290 294 293 294 295 295 293 294 293 293 295 294 295 297 298 296 294 291 291 290 291 291 292 293 293 293 294 294 294 292 292 291 291 291 290 290 290 290 289 288 287 287 285 285 284 283 282
296 297 293 292 294 292 291 289 290 291 292 295 294 294 295 295 294 293 296 296 296 294 291 290 290 289 289 288 290 291 293 292 292 292 293 292 292 291 291 291 291 290 289 288 288 288 288 287 285 283 283 282 281 280
297 294 296 296 293 292 291 291 291 290 293 293 294 294 293 291 291 294 298 296 294 291 291 290 290 289 289 289 289 288 288 292 291 290 291 290 290 289 289 289 290 289 289 287 287 287 285 284 284 282 281 280 279 279
297 295 295 293 291 289 286 291 293 295 296 296 295 292 290 291 294 297 297 297 293 292 292 292 292 293 294 292 287 285 288 290 290 289 288 290 287 286 285 286 287 287 287 286 284 283 282 282 281 280 279 279 278 277
296 292 295 289 291 291 291 291 290 294 294 294 295 291 289 293 296 297 295 295 295 293 291 292 294 294 293 291 289 286 286 290 288 286 285 287 288 288 286 285 283 282 285 287 285 282 280 279 279 278 277 278 277 275
294 290 289 289 290 290 291 291 291 292 292 291 289 289 290 294 296 293 284 282 285 284 290 293 294 295 293 287 284 285 286 288 287 284 284 286 287 287 287 286 285 284 284 285 284 284 280 278 277 277 276 275 274 274
290 290 288 289 287 287 289 289 290 291 289 288 290 289 291 293 293 283 280 278 278 281 285 289 292 290 287 285 281 281 280 281 284 283 282 282 282 284 286 286 285 283 282 282 282 280 279 278 277 276 275 274 273 273
288 288 287 285 286 287 287 288 289 286 285 288 289 290 288 281 277 278 277 277 278 282 284 283 281 281 280 280 280 280 281 283 285 286 284 280 278 277 279 280 280 280 279 279 278 278 278 277 276 275 274 274 273 273
290 288 286 284 285 288 283 280 283 281 281 281 281 281 280 278 276 275 276 277 280 283 283 282 281 282 281 281 279 279 281 285 287 287 285 283 281 278 278 278 278 278 278 278 277 278 276 275 274 273 273 273 272 272
286 285 284 282 280 280 280 279 281 282 281 281 281 281 281 278 276 276 277 278 280 280 281 282 282 282 282 281 282 281 281 281 284 286 286 285 280 278 278 278 278 277 277 277 277 275 274 273 273 273 273 272 271 272
284 282 282 281 279 278 277 283 285 285 285 283 282 282 281 284 285 278 277 278 280 282 283 283 283 282 283 283 284 285 285 282 281 282 283 281 280 279 278 277 277 277 276 276 275 274 274 274 273 273 272 272 272 272
283 281 280 280 280 281 282 285 286 284 284 283 280 280 282 283 287 279 276 277 279 282 281 281 281 282 283 284 284 283 284 282 281 281 281 281 280 279 278 277 276 276 275 275 274 274 274 273 273 273 272 273 273 273

GFSWCAN_925_thetae_117.txt.gz
Theta_e
309 309 308 307 308 308 309 309 309 306 304 300 298 300 299 299 299 300 300 301 303 302 301 298 298 299 298 297 298 298 298 298 297 300 299 299 300 301 300 300 301 301 298 298 299 300 299 304 305 305 303 305 305 304
309 309 307 307 307 308 309 309 309 307 304 302 298 299 300 299 300 302 303 304 303 302 301 299 298 297 297 297 297 296 299 298 297 300 296 296 301 293 298 297 301 300 300 302 300 300 299 302 304 303 302 303 304 303
309 309 307 307 307 308 309 309 309 308 305 302 298 299 299 299 300 302 302 304 303 302 302 298 297 297 296 295 296 298 296 297 298 296 295 298 301 297 298 297 300 300 299 300 301 299 302 303 303 302 303 301 299 298
310 309 307 307 308 308 309 309 309 308 306 302 298 299 300 300 300 303 302 303 304 303 300 299 296 296 296 296 296 296 296 296 296 295 293 294 298 297 298 297 298 297 299 299 299 299 301 301 301 301 299 297 297 297
310 309 308 307 308 308 308 309 309 308 306 303 299 300 300 300 300 303 301 302 304 302 300 297 296 296 296 295 295 295 296 295 294 294 294 298 297 296 294 295 294 296 299 299 299 298 299 299 298 299 298 297 297 296
310 309 309 308 308 308 308 309 309 308 305 302 298 300 300 300 300 302 302 302 302 303 298 297 295 294 295 295 295 295 295 294 294 296 297 296 295 295 295 296 297 294 296 297 299 298 298 298 297 297 297 296 295 295
309 309 309 309 308 308 308 309 309 308 305 300 298 299 300 300 300 302 303 301 302 302 300 301 296 294 295 295 294 294 295 294 295 295 295 296 295 293 291 297 297 297 296 295 296 296 298 297 297 295 295 295 297 297
309 309 309 309 308 308 308 309 308 307 305 298 299 299 299 300 300 300 301 301 301 300 300 302 296 294 294 293 295 293 294 294 294 296 295 296 294 294 297 296 297 297 295 294 295 297 296 295 294 294 295 295 296 296
309 309 309 309 308 308 308 308 308 307 300 298 299 299 300 300 299 299 300 301 300 299 301 300 296 294 292 294 294 293 293 294 293 295 296 295 295 296 297 296 295 296 296 296 295 296 295 296 294 294 294 295 295 296
309 309 309 308 308 308 308 308 307 302 298 299 300 300 299 299 299 299 298 297 297 297 298 299 294 296 293 294 293 294 294 295 293 297 294 296 298 298 296 296 296 295 295 295 296 295 295 294 294 294 294 295 295 296
309 308 308 308 308 308 308 307 303 298 299 300 300 299 299 299 299 297 300 300 299 299 298 299 297 295 292 294 294 295 291 291 289 294 296 293 297 297 296 297 297 294 295 295 296 297 296 295 294 294 294 294 295 297
308 308 308 308 308 308 308 304 299 299 299 298 299 298 297 298 299 299 300 299 299 299 299 299 298 294 293 294 295 295 295 293 296 293 292 292 296 297 295 295 294 293 294 295 295 296 295 295 294 294 294 294 296 296
308 308 308 308 308 308 305 301 299 299 298 298 297 296 297 297 300 300 300 301 302 298 299 294 294 294 294 292 295 294 297 297 293 290 295 294 297 297 291 293 293 292 295 295 295 296 296 295 295 295 294 296 296 295
308 307 307 307 307 306 301 299 300 298 298 296 298 298 298 299 298 299 297 298 299 295 296 298 293 295 296 298 297 300 297 294 291 293 294 295 298 298 293 292 293 294 295 296 295 294 294 294 294 295 295 295 295 294
307 307 307 307 307 302 300 299 298 298 296 298 298 300 299 295 290 292 292 294 294 297 298 295 294 295 294 300 297 296 293 294 295 295 296 300 298 295 292 293 292 294 295 295 294 294 293 294 293 293 294 294 294 293
307 307 307 306 302 300 300 298 298 297 294 296 297 298 295 296 295 292 288 293 294 298 296 295 294 299 301 299 298 296 293 293 294 294 295 296 294 293 292 293 293 295 295 294 294 294 293 293 293 293 293 293 291 289
307 301 305 302 300 299 299 298 297 294 296 297 298 298 293 292 297 292 294 296 297 299 297 294 298 299 296 298 296 294 292 293 293 294 294 295 294 293 292 291 293 294 294 293 293 293 293 294 294 292 288 289 289 288
300 301 301 300 298 297 298 297 294 296 296 295 295 294 296 293 295 295 294 295 296 295 294 295 296 296 296 292 292 293 292 292 290 294 294 293 292 293 293 293 293 294 293 293 292 292 292 292 292 290 289 289 289 290
299 300 300 297 296 294 293 292 293 297 295 292 288 294 293 293 293 294 295 296 293 292 293 291 296 297 295 292 292 292 293 294 298 293 293 292 292 293 293 293 293 292 292 292 292 292 292 291 290 289 289 290 289 289
300 299 297 296 296 293 294 292 292 295 293 293 291 296 293 291 291 291 293 295 292 290 293 296 296 296 295 294 290 292 293 292 292 293 294 293 293 293 293 293 293 291 290 290 290 290 289 288 289 290 290 289 288 286
298 297 296 296 293 292 294 293 295 296 294 292 294 294 293 291 293 290 289 292 297 296 298 295 298 296 289 288 290 290 292 292 293 294 295 294 292 293 292 291 291 291 290 290 289 288 289 287 289 289 288 287 286 285
298 297 294 294 291 291 291 291 293 292 293 294 295 293 293 294 295 296 294 297 296 295 293 295 296 297 290 291 291 291 292 292 292 293 295 294 293 292 291 291 291 290 290 290 290 290 287 288 287 287 286 285 285 284
297 296 293 292 293 292 291 290 293 290 295 295 294 294 292 290 288 291 295 292 291 288 292 289 287 287 290 287 290 291 292 291 292 292 294 292 292 292 292 291 291 290 289 289 289 289 288 287 286 284 284 283 282 282
297 294 296 295 292 290 290 291 290 291 293 294 293 292 290 294 293 294 294 288 292 289 291 291 290 289 288 288 290 289 289 291 291 292 292 292 292 291 291 291 290 290 289 288 288 287 287 285 284 283 282 281 280 279
297 295 295 293 289 289 291 291 290 285 287 285 283 288 292 289 291 292 288 289 293 294 294 293 293 295 296 294 291 288 289 291 291 291 291 292 290 289 288 287 287 288 288 286 284 283 283 283 282 281 280 279 278 277
295 291 293 291 291 288 287 289 286 285 284 284 284 281 283 288 291 291 290 291 294 294 294 294 295 296 296 295 292 290 289 290 290 290 287 289 290 290 288 287 285 283 286 287 285 282 281 280 279 279 278 279 277 275
293 290 289 288 289 288 289 287 287 287 285 288 286 286 291 294 291 291 285 281 283 283 284 294 295 296 296 292 289 287 289 289 289 286 286 288 289 289 289 288 287 286 287 287 287 285 281 279 278 277 277 276 275 275
291 288 290 288 284 282 286 285 286 289 289 286 287 288 289 289 293 284 280 277 277 279 284 292 294 293 288 286 283 282 281 282 282 283 284 284 286 287 289 289 290 289 288 287 286 285 283 281 278 277 276 275 274 273
285 287 286 283 282 281 283 287 286 283 284 286 287 286 286 281 276 274 275 276 277 280 284 285 283 283 281 281 281 282 281 284 286 288 287 283 281 279 282 284 285 285 284 283 283 282 280 279 278 277 275 274 273 273
285 284 283 277 282 283 279 278 278 279 279 280 280 278 278 275 274 275 275 277 280 282 283 283 283 284 283 282 281 280 283 286 289 290 287 285 283 278 279 281 281 280 280 279 278 277 277 276 274 274 274 273 273 273
283 281 279 277 277 276 276 276 279 281 279 277 276 278 278 275 275 276 276 278 280 281 282 283 284 284 284 284 284 284 283 284 287 288 288 286 282 279 279 279 279 279 279 278 278 276 274 274 274 273 273 272 272 273
283 280 278 278 277 276 278 282 284 283 283 285 284 281 276 278 282 277 277 278 280 282 283 283 284 284 285 286 286 287 288 286 285 283 284 283 281 280 279 279 279 279 279 278 276 275 275 274 273 273 273 272 272 272
282 280 279 279 282 280 280 281 284 283 285 285 282 279 281 280 284 278 276 277 279 282 283 283 283 283 284 284 286 286 287 285 284 283 283 284 282 280 279 278 278 278 277 276 275 274 274 274 273 273 273 273 273 273

GFSWCAN_925_thetae_120.txt.gz
Theta_e
312 311 310 308 308 308 307 308 309 309 309 305 301 298 299 299 299 300 300 301 302 299 298 298 298 298 297 296 298 297 296 297 296 299 298 297 298 299 301 298 300 299 297 296 298 298 298 303 305 303 300 305 304 303
312 311 311 309 309 308 307 308 309 309 309 306 303 298 299 299 299 299 301 302 301 301 299 299 299 299 298 298 296 295 296 297 296 298 295 294 300 291 296 296 298 300 298 300 298 299 297 302 301 301 302 304 303 302
312 312 311 310 310 308 307 308 309 309 309 308 304 299 299 299 299 300 302 303 303 303 301 299 299 300 298 297 298 297 294 296 296 294 292 297 300 296 298 296 298 298 296 300 300 298 298 300 301 301 300 301 301 300
312 312 311 310 310 309 307 308 308 309 309 309 305 300 299 300 300 301 302 303 303 302 298 299 296 296 297 296 296 296 296 295 295 294 293 293 296 296 297 296 297 296 297 298 297 297 297 297 299 300 301 298 297 296
312 312 311 310 310 309 307 308 308 309 309 309 305 301 299 300 300 300 302 303 303 301 298 298 295 296 295 295 295 295 295 294 293 294 294 298 296 296 293 294 294 295 298 298 298 297 297 296 298 299 298 297 296 296
311 312 311 311 310 309 307 308 308 308 309 309 306 301 299 300 300 301 303 303 302 303 300 299 295 294 294 294 294 294 294 293 293 295 297 295 295 294 294 296 296 293 295 296 297 295 296 298 297 297 297 296 295 294
311 311 311 311 310 309 309 308 308 308 309 309 306 300 300 300 300 302 302 301 302 302 300 301 298 293 294 294 293 292 294 292 293 294 294 296 295 294 292 299 296 296 296 295 295 296 299 297 298 295 296 295 297 295
310 311 311 310 310 309 309 308 308 308 309 308 304 300 300 300 300 301 302 301 301 301 299 302 298 294 293 293 294 291 293 292 293 294 294 295 294 293 296 296 295 297 295 294 293 296 297 295 294 294 294 294 294 294
310 310 310 310 310 309 309 308 308 308 309 306 301 299 300 301 299 299 299 300 301 299 301 301 300 295 291 293 292 292 292 294 292 294 295 295 295 296 297 298 297 296 296 296 293 294 294 295 295 293 293 293 294 294
309 310 310 310 310 309 309 308 308 309 305 301 299 299 300 300 299 299 298 298 298 298 298 301 294 296 293 294 295 293 293 295 292 296 293 296 297 295 296 297 298 297 295 293 295 295 294 294 294 293 294 294 294 295
309 309 309 309 309 309 309 308 308 305 300 299 299 298 299 298 299 298 299 299 300 299 298 299 298 296 292 297 297 295 290 289 288 293 294 292 294 295 298 299 298 297 295 294 296 297 296 296 294 294 293 293 294 295
309 309 309 309 309 309 308 308 306 302 299 297 298 298 298 298 297 299 299 298 298 300 297 299 296 296 293 294 297 295 293 292 295 292 292 293 292 295 296 297 295 293 294 294 294 294 294 293 294 294 293 293 294 296
308 308 308 309 309 308 308 308 303 302 297 298 295 295 297 297 300 299 298 299 300 298 299 297 297 297 294 295 297 296 297 296 292 294 296 293 292 294 295 296 294 292 292 293 293 294 294 293 294 293 293 294 295 295
308 308 308 308 308 308 308 304 301 298 298 295 298 298 298 299 298 296 296 297 298 296 298 299 295 297 296 298 298 298 296 294 293 294 292 292 294 296 296 294 294 293 292 294 294 294 294 293 292 293 294 294 295 294
308 308 308 308 308 308 307 302 299 299 293 297 298 299 299 294 289 294 294 296 294 298 299 297 296 296 296 300 296 295 295 294 296 295 294 295 295 296 295 294 293 293 294 294 294 294 293 292 292 292 294 295 295 295
307 308 308 307 307 307 303 299 298 298 292 296 296 298 295 296 295 294 293 299 296 299 298 297 297 297 299 296 297 295 293 294 294 291 293 291 296 294 294 293 292 294 294 294 294 293 292 292 292 292 293 294 294 294
307 308 308 307 307 305 301 297 293 294 296 297 298 295 294 295 296 295 297 298 298 300 300 297 296 297 294 297 297 294 292 294 293 292 290 293 295 294 291 292 294 294 294 294 293 293 292 292 292 291 288 290 292 292
307 307 307 307 305 300 296 292 293 296 297 297 298 298 293 293 296 295 295 297 299 299 297 298 294 291 295 295 292 293 291 290 290 292 294 294 292 291 291 291 293 294 293 293 293 292 292 291 291 290 290 289 288 287
305 306 307 305 297 294 294 292 293 298 293 296 291 296 294 293 294 298 296 298 295 295 295 291 294 292 294 291 293 291 289 290 295 294 291 290 291 290 290 291 293 292 293 292 292 293 292 292 292 290 290 288 287 288
305 306 304 298 297 294 294 292 292 294 296 294 291 295 294 294 294 296 296 297 296 294 291 293 299 295 295 295 293 296 294 291 292 293 293 291 289 288 289 291 292 292 292 291 291 290 289 289 291 291 289 288 288 287
304 304 298 296 292 292 293 293 297 295 294 295 292 296 293 292 294 294 295 295 297 292 295 295 297 297 296 293 290 290 290 290 291 292 293 288 290 292 289 292 292 292 291 291 291 290 291 289 288 289 289 289 289 287
297 294 293 293 292 291 292 291 291 292 293 295 296 293 295 296 295 294 290 296 298 298 296 298 298 298 296 289 289 288 291 290 290 290 293 294 291 292 292 291 291 292 291 291 291 290 288 287 289 289 288 286 285 284
294 294 292 292 292 292 291 290 292 292 295 296 296 293 292 292 293 294 296 297 297 291 297 296 295 292 296 294 290 290 290 289 289 290 291 293 292 292 292 292 292 292 291 290 290 288 287 288 287 287 285 284 283 283
295 294 295 294 292 291 291 291 291 292 294 295 295 294 290 293 293 294 293 286 293 296 296 294 294 288 285 283 290 292 289 291 291 290 293 292 291 291 292 292 292 291 291 288 288 287 286 285 284 283 282 281 280 279
298 296 294 292 290 289 289 289 290 290 293 291 290 289 291 292 295 292 287 287 293 294 293 293 294 294 295 295 294 290 289 291 291 292 291 292 292 291 290 289 288 289 289 287 286 285 284 283 282 281 280 279 278 277
295 292 294 290 288 288 287 289 289 289 292 291 287 284 279 288 287 290 286 285 292 291 293 294 294 293 294 295 295 290 289 291 292 291 291 291 291 291 289 288 287 285 288 288 285 283 282 281 280 279 278 279 278 276
293 289 289 288 287 287 289 289 289 290 289 288 290 288 286 288 288 288 281 276 277 277 280 282 287 293 294 294 293 292 290 291 292 291 290 290 291 291 290 290 289 287 287 287 285 284 282 280 278 278 278 278 277 276
290 287 290 287 287 285 290 290 290 290 287 285 288 289 290 291 292 282 277 274 277 278 279 284 288 292 294 292 289 287 283 284 285 285 285 287 288 289 289 290 290 289 287 287 287 285 283 281 279 278 277 275 274 274
287 287 288 287 285 285 286 289 290 287 286 289 291 287 286 281 274 273 273 276 277 277 283 285 284 285 285 284 284 284 282 285 287 288 289 284 283 281 286 287 285 286 286 287 286 286 284 282 280 278 276 275 274 273
288 285 285 281 286 286 281 279 281 277 279 279 279 278 277 274 272 276 275 275 273 278 283 283 283 284 283 283 282 282 284 287 289 290 288 287 285 280 282 283 284 284 284 283 280 279 278 277 275 275 274 273 273 273
283 282 281 280 280 277 276 276 277 279 274 273 272 275 277 273 274 276 276 277 278 281 281 283 284 284 284 283 284 284 284 284 289 289 290 286 282 281 281 282 283 282 281 279 278 276 274 274 273 273 272 272 273 273
280 277 279 279 277 277 277 277 281 279 279 277 276 272 273 277 279 274 277 277 278 279 282 284 284 284 285 285 286 287 287 285 287 287 288 282 280 281 282 281 280 279 279 277 277 276 275 274 273 273 272 273 273 273
277 275 273 275 280 279 277 276 280 278 278 279 278 276 277 281 284 276 276 277 279 281 283 284 284 285 286 286 286 285 286 286 286 285 285 285 283 280 279 279 279 279 279 277 275 275 274 274 273 273 273 273 273 273